[[{"header":{"parameterUnit":"m.s-1","parameterCategory":1,"la1":30.6,"la2":29.2853,"lo1":-89.7004,"lo2":-87.6739,"dy":0.0162,"dx":0.0183,"nx":112,"ny":82,"refTime":"2023-07-25T06:00:00:Z","depth":0,"parameterNumber":2,"parameterNumberName":"U-component_of_WINDS"},"data":[0.0,0.0,0.0,0.0,0.0,0.0,0.0,0.0,0.0,0.0,0.0,0.0,0.0,0.0,0.0,0.0,0.0,0.0,0.0,0.0,0.0,0.0,0.0,0.0,0.0,0.0,0.0,0.0,0.0,0.0,0.0,0.0,0.0,0.0,0.0,0.0,0.0,0.0,0.0,0.0,0.0,0.0,0.0,0.0,0.0,0.0,0.0,0.0,0.0,0.0,0.0,0.0,0.0,0.0,0.0,0.0,0.0,0.0,0.0,0.0,0.0,0.0,0.0,0.0,0.0,0.0,0.0,0.0,0.0,0.0,0.0,0.0,0.0,0.0,0.0,0.0,0.0,0.0,0.0,0.0,0.0,0.0,0.0,0.0,0.0,0.0,0.0,0.0,0.0,0.0,0.0,-3.13,-3.136,-3.136,-3.136,-3.1258,-3.119,-3.119,0.0,0.0,0.0,0.0,0.0,0.0,0.0,0.0,0.0,0.0,0.0,0.0,0.0,0.0,0.0,0.0,0.0,0.0,0.0,0.0,0.0,0.0,0.0,0.0,0.0,0.0,0.0,0.0,0.0,0.0,0.0,0.0,0.0,0.0,0.0,0.0,0.0,0.0,0.0,0.0,0.0,0.0,0.0,0.0,0.0,0.0,0.0,0.0,0.0,0.0,0.0,0.0,0.0,0.0,0.0,0.0,0.0,0.0,0.0,0.0,0.0,0.0,0.0,0.0,0.0,0.0,0.0,0.0,0.0,0.0,0.0,0.0,0.0,0.0,0.0,0.0,0.0,0.0,0.0,0.0,0.0,0.0,0.0,0.0,0.0,0.0,0.0,0.0,0.0,0.0,0.0,0.0,0.0,0.0,0.0,0.0,0.0,0.0,0.0,0.0,0.0,0.0,0.0,0.0,-3.1388,-3.2063,-3.2141,-3.2141,-3.2141,-3.1546,-3.119,-3.119,0.0,0.0,0.0,0.0,0.0,0.0,0.0,0.0,0.0,0.0,0.0,0.0,0.0,0.0,0.0,0.0,0.0,0.0,0.0,0.0,0.0,0.0,0.0,0.0,0.0,0.0,0.0,0.0,0.0,0.0,0.0,0.0,0.0,0.0,0.0,0.0,0.0,0.0,0.0,0.0,0.0,0.0,0.0,0.0,0.0,0.0,0.0,0.0,0.0,0.0,0.0,0.0,0.0,0.0,0.0,0.0,0.0,0.0,0.0,0.0,0.0,0.0,0.0,0.0,0.0,0.0,0.0,0.0,0.0,0.0,0.0,0.0,0.0,0.0,0.0,0.0,0.0,0.0,0.0,0.0,0.0,0.0,0.0,0.0,0.0,0.0,0.0,0.0,0.0,0.0,0.0,0.0,0.0,0.0,0.0,0.0,0.0,0.0,0.0,0.0,0.0,0.0,0.0,-3.1978,-3.2571,-3.2861,-3.2899,-3.2899,-3.2899,-3.2205,-3.1802,-3.1802,-3.141,0.0,0.0,0.0,0.0,0.0,0.0,0.0,0.0,0.0,0.0,0.0,0.0,0.0,0.0,0.0,0.0,0.0,0.0,0.0,0.0,0.0,0.0,0.0,0.0,0.0,0.0,0.0,0.0,0.0,0.0,0.0,0.0,0.0,0.0,0.0,0.0,0.0,0.0,0.0,0.0,0.0,0.0,0.0,0.0,0.0,0.0,0.0,0.0,0.0,0.0,0.0,0.0,0.0,0.0,0.0,0.0,0.0,0.0,0.0,0.0,0.0,0.0,0.0,0.0,0.0,0.0,0.0,0.0,0.0,0.0,0.0,0.0,0.0,0.0,0.0,0.0,0.0,0.0,0.0,0.0,0.0,0.0,0.0,0.0,0.0,0.0,0.0,0.0,0.0,0.0,0.0,0.0,0.0,0.0,0.0,0.0,0.0,0.0,0.0,0.0,0.0,0.0,-3.2962,-3.366,-3.366,-3.366,-3.366,-3.366,-3.2983,-3.2564,-3.2564,-3.187,0.0,0.0,0.0,0.0,0.0,0.0,0.0,0.0,0.0,0.0,0.0,0.0,0.0,0.0,0.0,0.0,0.0,0.0,0.0,0.0,0.0,0.0,0.0,0.0,0.0,0.0,0.0,0.0,0.0,0.0,0.0,0.0,0.0,0.0,0.0,0.0,0.0,0.0,0.0,0.0,0.0,0.0,0.0,0.0,0.0,0.0,0.0,0.0,0.0,0.0,0.0,0.0,0.0,0.0,0.0,0.0,0.0,0.0,0.0,0.0,0.0,0.0,0.0,0.0,0.0,0.0,0.0,0.0,0.0,0.0,0.0,0.0,0.0,0.0,0.0,0.0,0.0,0.0,0.0,0.0,0.0,0.0,0.0,0.0,0.0,0.0,0.0,0.0,0.0,0.0,0.0,0.0,0.0,0.0,0.0,0.0,0.0,0.0,0.0,0.0,0.0,0.0,-3.3974,-3.4421,-3.4421,-3.4421,-3.4421,-3.4421,-3.3744,-3.3322,-3.3322,-3.2632,0.0,0.0,0.0,0.0,0.0,0.0,0.0,0.0,0.0,0.0,0.0,0.0,0.0,0.0,0.0,0.0,0.0,0.0,0.0,0.0,0.0,0.0,0.0,0.0,0.0,0.0,0.0,0.0,0.0,0.0,0.0,0.0,0.0,0.0,0.0,0.0,0.0,0.0,0.0,0.0,0.0,0.0,0.0,0.0,0.0,0.0,0.0,0.0,0.0,0.0,0.0,0.0,0.0,0.0,0.0,0.0,0.0,0.0,0.0,0.0,0.0,0.0,0.0,0.0,0.0,0.0,0.0,0.0,0.0,0.0,0.0,0.0,0.0,0.0,0.0,0.0,0.0,0.0,0.0,0.0,0.0,0.0,0.0,0.0,0.0,0.0,0.0,0.0,0.0,0.0,0.0,0.0,0.0,0.0,0.0,0.0,0.0,0.0,0.0,0.0,0.0,0.0,-3.4766,-3.5199,0.0,-3.5199,-3.5199,-3.5199,-3.4506,-3.4083,-3.4083,0.0,0.0,0.0,0.0,0.0,0.0,0.0,0.0,0.0,0.0,0.0,0.0,0.0,0.0,0.0,0.0,0.0,0.0,0.0,0.0,0.0,0.0,0.0,0.0,0.0,0.0,0.0,0.0,0.0,0.0,0.0,0.0,0.0,0.0,0.0,0.0,0.0,0.0,0.0,0.0,0.0,0.0,0.0,0.0,0.0,0.0,0.0,0.0,0.0,0.0,0.0,0.0,0.0,0.0,0.0,0.0,0.0,0.0,0.0,0.0,0.0,0.0,0.0,0.0,0.0,0.0,0.0,0.0,0.0,0.0,0.0,0.0,0.0,0.0,0.0,0.0,0.0,0.0,0.0,0.0,0.0,0.0,0.0,0.0,0.0,0.0,0.0,0.0,0.0,0.0,0.0,0.0,0.0,0.0,0.0,0.0,0.0,0.0,0.0,0.0,0.0,0.0,-3.4941,-3.5316,-3.56,0.0,-3.56,-3.56,-3.56,-3.5148,-3.4844,-3.4844,0.0,0.0,0.0,0.0,0.0,0.0,0.0,0.0,0.0,0.0,0.0,0.0,0.0,0.0,0.0,0.0,0.0,0.0,0.0,0.0,0.0,0.0,0.0,0.0,0.0,0.0,0.0,0.0,0.0,0.0,0.0,0.0,0.0,0.0,0.0,0.0,0.0,0.0,0.0,0.0,0.0,0.0,0.0,0.0,0.0,0.0,0.0,0.0,0.0,0.0,0.0,0.0,0.0,0.0,0.0,0.0,0.0,0.0,0.0,0.0,0.0,0.0,0.0,0.0,0.0,0.0,0.0,0.0,0.0,0.0,0.0,0.0,0.0,0.0,0.0,0.0,0.0,0.0,0.0,0.0,0.0,0.0,0.0,0.0,0.0,0.0,0.0,0.0,0.0,0.0,0.0,0.0,0.0,0.0,0.0,0.0,0.0,0.0,0.0,0.0,0.0,0.0,-3.5515,-3.56,-3.56,-3.56,-3.56,-3.56,-3.56,-3.56,-3.56,0.0,0.0,0.0,0.0,0.0,0.0,0.0,0.0,0.0,0.0,0.0,0.0,0.0,0.0,0.0,0.0,0.0,0.0,0.0,0.0,0.0,0.0,0.0,0.0,0.0,0.0,0.0,0.0,0.0,0.0,0.0,0.0,0.0,0.0,0.0,0.0,0.0,0.0,0.0,0.0,0.0,0.0,0.0,0.0,0.0,0.0,0.0,0.0,0.0,0.0,0.0,0.0,0.0,0.0,0.0,0.0,0.0,0.0,0.0,0.0,0.0,0.0,0.0,0.0,0.0,0.0,0.0,0.0,0.0,0.0,0.0,0.0,0.0,0.0,0.0,0.0,0.0,0.0,0.0,0.0,0.0,0.0,0.0,0.0,0.0,0.0,0.0,0.0,0.0,0.0,0.0,0.0,0.0,0.0,0.0,0.0,0.0,0.0,0.0,0.0,0.0,0.0,0.0,-3.5577,-3.56,-3.56,-3.56,-3.56,-3.56,-3.56,-3.56,-3.56,-3.56,0.0,0.0,0.0,0.0,0.0,0.0,0.0,0.0,0.0,0.0,0.0,0.0,0.0,0.0,0.0,0.0,0.0,0.0,0.0,0.0,0.0,0.0,0.0,0.0,0.0,0.0,0.0,0.0,0.0,0.0,0.0,0.0,0.0,0.0,0.0,0.0,0.0,0.0,0.0,0.0,0.0,0.0,0.0,0.0,0.0,0.0,0.0,0.0,0.0,0.0,0.0,0.0,0.0,0.0,0.0,0.0,0.0,0.0,0.0,0.0,0.0,0.0,0.0,0.0,0.0,0.0,0.0,0.0,0.0,0.0,0.0,0.0,0.0,0.0,0.0,0.0,0.0,0.0,0.0,0.0,0.0,0.0,0.0,0.0,0.0,0.0,0.0,0.0,0.0,0.0,0.0,0.0,0.0,0.0,0.0,0.0,0.0,0.0,0.0,0.0,0.0,0.0,-3.56,-3.56,-3.56,-3.56,-3.56,-3.56,-3.56,-3.56,-3.56,-3.56,0.0,0.0,0.0,0.0,0.0,0.0,0.0,0.0,0.0,0.0,0.0,0.0,0.0,0.0,0.0,0.0,0.0,0.0,0.0,0.0,0.0,0.0,0.0,0.0,0.0,0.0,0.0,0.0,0.0,0.0,0.0,0.0,0.0,0.0,0.0,0.0,0.0,0.0,0.0,0.0,0.0,0.0,0.0,0.0,0.0,0.0,0.0,0.0,0.0,0.0,0.0,0.0,0.0,0.0,0.0,0.0,0.0,0.0,0.0,0.0,0.0,0.0,0.0,0.0,0.0,0.0,0.0,0.0,0.0,0.0,0.0,0.0,0.0,0.0,0.0,0.0,0.0,0.0,0.0,0.0,0.0,0.0,0.0,0.0,0.0,0.0,0.0,0.0,0.0,0.0,0.0,0.0,0.0,0.0,0.0,0.0,0.0,0.0,0.0,0.0,0.0,0.0,-3.56,-3.56,-3.56,-3.56,-3.56,-3.56,-3.56,-3.56,-3.56,-3.56,0.0,0.0,0.0,0.0,0.0,0.0,0.0,0.0,0.0,0.0,0.0,0.0,0.0,0.0,0.0,0.0,0.0,0.0,0.0,0.0,0.0,0.0,0.0,0.0,0.0,0.0,0.0,0.0,0.0,0.0,0.0,0.0,0.0,0.0,0.0,0.0,0.0,0.0,0.0,0.0,0.0,0.0,0.0,0.0,0.0,0.0,0.0,0.0,0.0,0.0,0.0,0.0,0.0,0.0,0.0,0.0,0.0,0.0,0.0,0.0,-3.583,0.0,0.0,0.0,0.0,0.0,0.0,0.0,0.0,0.0,0.0,0.0,0.0,0.0,0.0,0.0,0.0,0.0,0.0,0.0,0.0,0.0,0.0,0.0,0.0,0.0,0.0,0.0,0.0,0.0,0.0,0.0,0.0,0.0,0.0,0.0,0.0,0.0,0.0,0.0,0.0,0.0,-3.56,-3.56,-3.56,-3.56,-3.56,-3.56,-3.56,-3.56,-3.56,-3.56,-3.56,0.0,0.0,0.0,0.0,0.0,0.0,0.0,0.0,0.0,0.0,0.0,0.0,0.0,0.0,0.0,0.0,0.0,0.0,0.0,0.0,0.0,0.0,0.0,0.0,0.0,0.0,0.0,0.0,0.0,0.0,0.0,0.0,0.0,0.0,0.0,0.0,0.0,0.0,0.0,0.0,0.0,0.0,0.0,0.0,0.0,0.0,0.0,0.0,0.0,0.0,0.0,0.0,0.0,0.0,0.0,0.0,0.0,0.0,0.0,0.0,-3.6164,0.0,0.0,0.0,0.0,0.0,0.0,0.0,0.0,0.0,0.0,0.0,0.0,0.0,0.0,0.0,0.0,0.0,0.0,0.0,0.0,0.0,0.0,0.0,0.0,0.0,0.0,0.0,0.0,0.0,0.0,0.0,0.0,0.0,0.0,0.0,0.0,0.0,0.0,0.0,0.0,-3.56,-3.56,-3.56,-3.56,-3.56,-3.56,-3.56,-3.56,-3.56,-3.56,-3.56,0.0,0.0,0.0,0.0,0.0,0.0,0.0,0.0,0.0,0.0,0.0,0.0,0.0,0.0,0.0,0.0,0.0,0.0,0.0,0.0,0.0,0.0,0.0,0.0,0.0,0.0,0.0,0.0,0.0,0.0,0.0,0.0,0.0,0.0,0.0,0.0,0.0,0.0,0.0,0.0,0.0,0.0,0.0,0.0,0.0,0.0,0.0,0.0,0.0,0.0,0.0,0.0,0.0,-3.8707,-3.8707,-3.8707,-3.8707,-3.8707,-3.8634,-3.7294,-3.6507,-3.6141,-3.6141,0.0,0.0,0.0,0.0,0.0,0.0,0.0,0.0,0.0,0.0,0.0,0.0,0.0,0.0,0.0,0.0,0.0,0.0,0.0,0.0,0.0,0.0,0.0,0.0,-3.56,-3.56,-3.56,0.0,0.0,0.0,0.0,0.0,0.0,0.0,0.0,0.0,0.0,0.0,-3.56,-3.56,-3.56,-3.56,-3.56,-3.56,-3.56,-3.56,-3.56,-3.56,-3.56,-3.56,0.0,0.0,0.0,0.0,0.0,0.0,0.0,0.0,0.0,0.0,0.0,0.0,0.0,0.0,0.0,0.0,0.0,0.0,0.0,0.0,0.0,0.0,0.0,0.0,0.0,0.0,0.0,0.0,0.0,0.0,0.0,0.0,-3.6174,-3.6285,0.0,0.0,0.0,0.0,0.0,0.0,0.0,0.0,0.0,0.0,0.0,0.0,0.0,-3.8707,-3.8707,-3.8707,-3.8707,-3.8707,-3.8707,-3.8707,-3.8707,-3.8707,-3.8707,-3.8689,-3.8487,0.0,-3.8282,-3.8282,0.0,0.0,0.0,0.0,0.0,0.0,0.0,0.0,0.0,0.0,0.0,0.0,0.0,0.0,0.0,0.0,0.0,0.0,0.0,0.0,0.0,0.0,-3.56,-3.56,-3.56,-3.56,0.0,-3.56,-3.56,-3.56,-3.56,0.0,0.0,0.0,0.0,0.0,0.0,0.0,-3.56,-3.56,-3.56,-3.56,-3.56,-3.56,-3.56,-3.56,-3.56,-3.56,-3.56,-3.56,-3.56,-3.56,0.0,0.0,0.0,0.0,0.0,0.0,0.0,0.0,0.0,0.0,0.0,0.0,0.0,0.0,0.0,0.0,0.0,0.0,0.0,0.0,0.0,0.0,0.0,0.0,0.0,0.0,0.0,0.0,0.0,-3.6978,-3.7144,-3.7606,-3.7661,-3.779,0.0,0.0,0.0,0.0,0.0,0.0,0.0,0.0,0.0,-3.8707,-3.8707,-3.8707,-3.8707,-3.8707,-3.8707,-3.8707,-3.8707,-3.8707,-3.8707,-3.8707,-3.8707,-3.8707,-3.8707,-3.8707,-3.8707,-3.8707,-3.8707,-3.8707,0.0,0.0,0.0,0.0,-3.8032,-3.7524,-3.702,-3.6643,-3.6291,-3.5783,0.0,0.0,0.0,0.0,0.0,0.0,0.0,-3.5672,0.0,0.0,-3.6139,-3.6419,-3.6501,-3.6501,-3.6501,-3.6501,-3.6316,0.0,-3.5832,-3.5963,-3.5667,0.0,0.0,0.0,0.0,-3.56,-3.56,-3.56,-3.56,-3.56,-3.56,-3.56,-3.56,-3.56,-3.56,-3.56,-3.56,-3.56,-3.56,-3.56,-3.547,0.0,0.0,0.0,0.0,0.0,0.0,0.0,0.0,0.0,0.0,0.0,0.0,0.0,0.0,0.0,0.0,0.0,0.0,0.0,0.0,0.0,0.0,0.0,0.0,0.0,0.0,0.0,0.0,-3.7823,-3.8028,-3.8634,-3.8707,-3.8707,0.0,0.0,0.0,0.0,0.0,0.0,-3.8707,-3.8707,-3.8707,-3.8707,-3.8707,-3.8707,-3.8707,-3.8707,-3.8707,-3.8707,-3.8707,-3.8707,-3.8707,-3.8707,-3.8707,-3.8707,-3.8707,-3.8707,-3.8707,-3.8707,-3.8707,-3.8707,-3.8707,-3.8707,-3.8707,-3.8707,-3.8449,-3.8048,-3.7542,-3.7116,-3.6686,-3.6186,-3.592,-3.5788,-3.5788,0.0,0.0,0.0,0.0,-3.5694,-3.6097,-3.6308,-3.6498,-3.6902,-3.7097,-3.7209,-3.7209,-3.7285,-3.7116,0.0,-3.6333,-3.6437,-3.5898,0.0,0.0,0.0,0.0,-3.56,-3.56,-3.56,-3.56,-3.56,-3.56,-3.56,-3.56,-3.56,-3.56,-3.56,-3.56,-3.56,-3.56,-3.56,-3.56,-3.56,0.0,0.0,0.0,0.0,0.0,0.0,0.0,0.0,0.0,0.0,0.0,0.0,0.0,0.0,0.0,0.0,0.0,0.0,0.0,0.0,0.0,0.0,0.0,0.0,0.0,0.0,0.0,0.0,0.0,-3.8707,-3.8707,0.0,0.0,0.0,0.0,-3.8707,-3.8707,-3.8707,-3.8707,-3.8707,-3.8707,-3.8707,-3.8707,-3.8707,-3.8707,-3.8707,-3.8707,-3.8707,-3.8707,-3.8707,-3.8707,-3.8707,-3.8707,-3.8707,-3.8707,-3.8707,-3.8707,-3.8707,-3.8707,-3.8707,-3.8707,-3.8707,-3.8707,-3.8707,-3.8673,-3.8578,-3.8048,-3.7842,-3.7755,-3.7267,-3.6783,-3.6354,-3.6354,-3.5989,0.0,0.0,-3.56,-3.56,-3.5627,-3.6028,-3.6412,-3.6437,-3.6823,-3.7209,-3.7209,-3.7542,-3.772,0.0,-3.7135,-3.6999,-3.6457,0.0,-3.6182,-3.5689,-3.56,-3.56,-3.56,-3.56,-3.56,-3.56,-3.56,-3.56,-3.56,-3.56,-3.56,-3.56,-3.56,-3.56,-3.56,-3.56,-3.56,-3.56,-3.56,0.0,0.0,0.0,0.0,0.0,0.0,0.0,0.0,0.0,0.0,0.0,0.0,0.0,0.0,0.0,0.0,0.0,0.0,0.0,0.0,0.0,0.0,0.0,0.0,0.0,0.0,0.0,0.0,-3.8707,-3.8707,0.0,-3.8707,-3.8707,-3.8707,-3.8707,-3.8707,-3.8707,-3.8707,-3.8707,-3.8707,-3.8707,-3.8707,-3.8707,-3.8707,-3.8707,-3.8707,-3.8707,-3.8707,-3.8707,-3.8707,-3.8707,-3.8707,-3.8707,-3.8707,-3.8707,-3.8707,-3.8707,-3.8707,-3.8707,-3.8707,-3.8707,-3.8707,-3.8707,-3.8707,-3.8627,-3.8082,-3.7893,-3.7825,-3.7341,-3.7058,-3.6862,-3.6498,-3.6266,-3.6032,-3.5694,-3.56,-3.5761,-3.644,-3.6766,-3.7095,-3.7738,-3.8016,-3.8168,-3.8168,-3.8302,-3.8366,-3.8185,-3.7632,-3.6923,-3.6032,-3.5876,-3.581,-3.5644,-3.56,-3.56,-3.56,-3.56,-3.56,-3.56,-3.56,-3.56,-3.56,-3.56,-3.56,-3.56,-3.56,-3.56,-3.56,-3.56,-3.56,-3.56,-3.56,-3.5027,0.0,0.0,0.0,0.0,0.0,0.0,0.0,0.0,0.0,0.0,0.0,0.0,0.0,0.0,0.0,0.0,0.0,0.0,0.0,0.0,0.0,0.0,0.0,0.0,0.0,0.0,-3.8707,-3.8707,-3.8707,-3.8707,-3.8707,-3.8707,-3.8707,-3.8707,-3.8707,-3.8707,-3.8707,-3.8964,-3.9093,-3.9093,-3.9368,-3.9515,-3.9515,-3.9515,-3.9515,-3.9515,-3.9515,-3.9515,-3.9515,-3.9515,-3.9515,-3.9515,-3.9515,-3.9515,-3.9515,-3.9515,-3.9515,-3.946,-3.8909,-3.8707,-3.8707,-3.8707,-3.8707,-3.8643,-3.83,-3.8167,-3.8133,-3.7808,-3.7578,-3.7378,-3.702,-3.6803,-3.6603,-3.6249,-3.6143,-3.6295,-3.702,-3.7323,-3.7596,-3.8267,-3.8562,-3.8707,-3.8707,-3.8707,-3.8643,-3.8465,-3.7895,-3.7173,-3.6274,-3.5989,-3.5827,-3.5622,-3.56,-3.56,-3.56,-3.56,-3.56,-3.56,-3.56,-3.56,-3.56,-3.56,-3.56,-3.56,-3.56,-3.56,-3.56,-3.56,-3.56,-3.56,-3.5385,-3.5161,-3.4941,0.0,0.0,0.0,0.0,0.0,0.0,0.0,0.0,0.0,0.0,0.0,0.0,0.0,0.0,0.0,0.0,0.0,0.0,0.0,0.0,0.0,0.0,0.0,-3.8707,-3.8707,-3.8707,-3.8707,-3.8707,-3.8707,-3.8707,-3.8707,-3.8707,-3.8744,-3.8744,-3.8762,-3.8781,-3.9515,-3.9937,-3.9937,-4.0689,-4.1095,-4.1095,-4.1095,-4.1095,-4.1095,-4.1095,-4.1095,-4.1095,-4.1095,-4.1095,-4.1095,-4.1095,-4.1095,-4.1095,-4.1095,-4.1095,-4.093,-3.9368,-3.8744,-3.8726,-3.8707,-3.8707,-3.8707,-3.8707,-3.8707,-3.8707,-3.8707,-3.835,-3.7929,-3.7911,-3.7578,-3.7228,-3.7192,-3.7209,-3.7192,-3.7228,-3.756,-3.7893,-3.7929,-3.8316,-3.8707,-3.8707,-3.8707,-3.8546,-3.8032,-3.7893,-3.7755,-3.7267,-3.6764,-3.6245,-3.5739,-3.5667,0.0,-3.5622,-3.5605,-3.5622,-3.56,-3.56,-3.56,-3.56,-3.56,-3.56,-3.56,-3.56,-3.56,-3.56,-3.56,-3.56,-3.56,-3.4965,-3.4941,-3.5577,0.0,0.0,0.0,0.0,0.0,0.0,0.0,0.0,0.0,0.0,0.0,0.0,0.0,0.0,0.0,0.0,0.0,0.0,0.0,0.0,0.0,0.0,-3.8707,-3.8707,-3.8707,-3.8707,-3.8707,-3.8707,-3.8707,-3.8707,-3.8707,-3.8946,-3.9533,-3.957,-3.9827,-4.0398,-4.0653,-4.0781,-4.0781,-4.0967,-4.1095,-4.1095,-4.1095,-4.1095,-4.1095,-4.1095,-4.1095,-4.1095,-4.1095,-4.1095,-4.1095,-4.1095,-4.1095,-4.1095,-4.1095,-4.1095,-4.1003,-3.9974,-3.957,-3.9496,-3.8927,-3.8707,-3.8707,-3.8707,-3.8707,-3.8707,-3.8707,-3.8611,-3.8417,-3.8013,-3.7807,-3.7632,-3.7285,-3.7209,-3.7267,-3.7614,-3.7807,-3.7997,-3.8382,-3.8578,-3.8707,-3.8707,-3.8707,-3.8676,-3.8496,-3.8167,-3.7755,-3.7267,-3.7095,-3.6941,-3.6786,-3.6746,0.0,-3.6228,-3.6182,-3.6032,-3.5644,-3.56,-3.56,-3.56,-3.56,-3.56,-3.56,-3.56,-3.56,-3.56,-3.56,-3.56,-3.56,-3.5407,-3.5184,0.0,0.0,0.0,0.0,0.0,0.0,0.0,0.0,0.0,0.0,0.0,0.0,0.0,0.0,0.0,0.0,0.0,0.0,0.0,0.0,0.0,0.0,-3.8707,-3.8707,-3.8707,-3.8707,-3.8707,-3.8707,-3.8707,-3.8836,-3.9166,-3.9203,-3.9593,-4.0532,-4.0603,-4.0824,-4.1271,-4.1622,-4.1894,-4.2103,-4.2416,-4.2765,-4.3112,-4.3112,-4.3112,-4.3112,-4.3112,-4.3112,-4.3112,-4.3112,-4.3112,-4.3094,-4.2746,-4.2599,-4.2581,-4.2249,-4.2121,-4.1992,0.0,0.0,0.0,0.0,-3.9701,-3.9701,-3.9701,-3.9701,-3.9662,-3.9313,-3.9203,-3.9082,-3.8441,-3.8251,-3.8167,-3.7895,-3.7826,-3.7878,-3.8167,-3.8251,-3.8316,-3.8627,-3.8707,-3.8707,-3.8707,-3.8707,-3.8707,-3.8707,-3.8449,0.0,-3.7878,-3.7487,-3.7209,-3.7209,-3.7209,-3.7095,-3.6783,-3.6539,-3.6287,-3.5985,-3.5739,-3.56,-3.56,-3.56,0.0,0.0,0.0,-3.56,-3.56,-3.56,0.0,0.0,0.0,-3.5407,-3.5028,-3.5028,0.0,0.0,-3.2762,-3.1873,0.0,0.0,0.0,0.0,0.0,0.0,0.0,0.0,0.0,0.0,0.0,0.0,0.0,0.0,0.0,0.0,-3.8707,-3.8726,-3.8817,-3.8836,-3.8836,-3.8836,-3.8836,-3.9148,-3.9955,-4.0058,-4.0554,-4.1651,-4.1852,-4.1974,-4.2067,0.0,0.0,0.0,0.0,-4.5221,-4.5883,-4.5902,-4.5902,-4.5902,-4.5902,-4.5902,-4.5902,-4.5902,-4.5902,-4.5865,-4.5149,-4.4838,-4.4782,-4.4048,-4.3735,-4.3479,-4.1864,-4.1168,-4.1095,-4.1095,-4.1095,-4.1095,-4.1095,0.0,0.0,-4.0267,-4.0029,-3.99,-3.9184,-3.8982,-3.8982,-3.8982,-3.8982,-3.8982,-3.8982,-3.8982,-3.8982,-3.8982,-3.8982,-3.8946,-3.8854,-3.8836,-3.8817,-3.8726,-3.8707,-3.8707,-3.8707,-3.7965,-3.7377,-3.7377,-3.7322,-3.7267,-3.7267,-3.6764,-3.6395,-3.6395,0.0,0.0,-3.56,-3.56,-3.56,-3.56,-3.56,-3.56,-3.56,-3.56,-3.56,-3.56,-3.56,-3.56,-3.56,-3.56,-3.5276,-3.4688,-3.4037,-3.3347,0.0,0.0,0.0,0.0,0.0,0.0,0.0,0.0,0.0,0.0,0.0,0.0,0.0,0.0,0.0,-3.8707,-3.8707,-3.8927,-3.957,-3.9662,-3.9662,-3.9662,-3.9662,-3.9974,-4.0799,-4.111,-4.1645,-4.2499,-4.3463,-4.4301,-4.4952,-4.5808,-4.6167,-4.5927,-4.6078,-4.6082,-4.5902,-4.5902,-4.5902,-4.5902,0.0,0.0,-4.5902,-4.5902,-4.5902,-4.5883,-4.5736,-4.5663,-4.5663,-4.5498,-4.5057,-4.4305,-4.2708,-4.168,-4.1095,-4.1095,-4.1095,-4.1095,-4.1095,-4.1095,-4.1058,-4.0912,-4.0873,-4.0838,-4.0673,-4.0636,0.0,-4.0636,-4.0636,-4.0636,-4.0636,-4.0636,-4.0636,-4.0636,-4.0636,-4.0469,-3.9808,-3.9662,-3.9478,-3.8836,-3.8707,-3.8707,-3.8707,-3.853,-3.8417,-3.8417,-3.8032,-3.7755,-3.7755,-3.6962,-3.6395,-3.6395,-3.592,-3.56,-3.56,-3.56,-3.56,-3.56,-3.56,-3.56,-3.56,-3.56,-3.56,-3.56,-3.56,-3.56,-3.56,-3.56,-3.5538,-3.5385,-3.4712,-3.4055,0.0,0.0,0.0,0.0,0.0,0.0,0.0,0.0,0.0,0.0,0.0,-3.8707,0.0,0.0,-3.8707,-3.8707,-3.9038,-3.9441,-3.9827,-4.0249,-4.0506,-4.0506,-4.0506,-4.088,-4.1856,-4.2508,-4.3325,-4.4479,-4.5501,-4.6282,-4.6676,-4.7106,-4.7369,-4.7406,-4.7214,-4.7194,-4.7401,-4.7206,-4.7095,-4.7095,-4.7095,-4.7095,-4.7095,-4.7095,-4.7095,-4.7076,-4.6691,-4.6507,-4.6471,-4.6067,-4.5663,-4.5223,-4.4415,-4.3351,-4.2304,-4.2304,-4.2304,-4.2304,-4.2304,-4.2304,-4.2231,-4.1827,-4.1699,-4.1627,-4.1224,-4.1095,-4.1095,-4.1095,-4.1095,-4.1095,-4.1095,-4.1095,-4.1095,-4.1095,-4.1095,-4.0985,-4.0598,-4.0506,-4.0377,-3.9976,-3.9588,-3.9294,-3.9294,-3.8964,-3.8707,-3.8707,-3.8465,-3.83,-3.83,-3.7415,-3.6803,-3.6803,-3.6075,-3.56,-3.56,-3.56,-3.56,-3.56,-3.56,-3.56,-3.56,-3.56,-3.56,-3.56,-3.56,-3.56,-3.56,-3.56,-3.56,-3.56,-3.5253,-3.4918,0.0,0.0,0.0,0.0,0.0,0.0,0.0,0.0,-3.8707,-3.8707,-3.8707,-3.8707,-3.8707,-3.8707,-3.8762,-3.8909,-3.9478,-4.001,-4.0322,-4.0928,-4.1493,-4.1885,-4.1774,-4.2102,-4.3178,-4.419,-4.5257,-4.6447,-4.7425,-4.7955,-4.7955,-4.8108,-4.8334,-4.8637,-4.8329,-4.8453,-4.9011,-4.8622,-4.8421,-4.842,-4.8344,-4.8306,-4.8306,-4.8306,-4.8306,-4.8269,-4.7608,-4.7333,-4.7278,-4.6636,-4.6269,-4.614,-4.614,-4.5241,-4.3938,-4.3791,-4.3718,-4.3699,-4.3551,-4.3515,-4.3404,-4.2745,-4.2525,-4.2415,-4.1772,-4.1572,-4.1572,-4.1572,-4.1572,-4.1572,-4.1572,-4.1572,-4.1572,-4.1572,-4.1572,-4.1517,-4.137,-4.1334,-4.1279,-4.1132,-4.0579,-4.012,-4.012,-3.946,-3.8891,-3.8726,-3.8611,-3.8578,-3.8692,-3.7826,-3.7229,-3.7323,-3.6481,-3.5876,-3.5761,-3.565,-3.56,-3.56,-3.56,-3.56,-3.56,-3.56,-3.56,-3.56,-3.56,-3.56,-3.56,-3.56,-3.56,-3.56,-3.56,-3.56,-3.8707,-3.8707,-3.8707,-3.8707,-3.8707,-3.8707,0.0,0.0,-3.8707,-3.8707,-3.8707,-3.8707,-3.8707,-3.8707,-3.8927,-3.9643,-3.9827,-4.0396,-4.1827,-4.2103,-4.2838,-4.4625,-4.4206,-4.4091,-4.4938,-4.6352,-4.7293,-4.7446,-4.8544,-4.9202,-4.9202,-4.9932,-5.0212,-4.9903,-4.9854,-4.9705,-4.9431,-4.9027,-4.8829,-4.883,-4.8458,-4.8306,-4.8306,-4.8306,-4.8306,-4.8306,-4.8214,-4.8177,-4.8159,-4.8067,-4.7608,-4.6966,-4.6966,-4.6434,-4.5535,-4.4837,-4.458,-4.447,-4.3736,-4.3515,-4.3496,-4.3387,-4.3369,-4.3349,-4.3259,-4.3222,-4.3222,-4.3222,-4.3222,-4.3222,-4.3222,-4.3222,-4.3222,-4.3222,-4.3222,-4.3039,-4.2323,-4.2176,-4.1956,-4.1242,-4.1022,-4.0967,-4.0967,-4.0304,-3.9515,-3.8817,-3.83,-3.8167,-3.8643,-3.7826,-3.736,-3.7772,-3.7341,-3.6843,-3.6354,-3.5876,-3.56,-3.56,-3.56,-3.56,-3.56,-3.56,-3.56,-3.56,-3.56,-3.56,-3.56,-3.56,-3.56,-3.56,-3.56,-3.56,-3.8707,-3.8707,0.0,0.0,-3.8707,-3.8707,-3.8707,-3.8707,-3.8707,-3.8707,-3.8707,-3.8707,-3.8707,-3.9074,-3.9515,0.0,-4.0689,-4.1534,-4.2213,-4.3308,-4.4363,-4.5202,-4.6243,-4.6839,-4.6656,-4.7686,-4.8441,-4.864,-4.9577,-5.0173,-5.0173,-5.05,-5.0614,-5.0442,-5.0206,-5.0031,-4.984,-4.946,-4.9249,-4.9249,-4.9094,-4.8881,-4.8657,-4.888,-4.8881,-4.864,-4.8383,-4.8306,-4.8306,-4.8306,-4.8104,-4.7791,-4.7791,-4.759,-4.715,-4.5865,-4.5406,-4.5351,-4.5002,-4.4892,-4.4892,-4.4892,-4.4892,-4.4892,-4.4892,-4.4562,-4.4195,-4.4195,-4.3864,-4.3515,-4.3515,-4.3515,-4.3515,-4.3515,-4.3515,-4.3423,-4.3057,-4.3002,-4.2892,-4.2561,-4.2121,-4.1809,-4.1809,-4.113,-4.0341,-3.9515,-3.8823,-3.8449,-3.8658,-3.8066,-3.7578,-3.7506,-3.7323,-3.7097,-3.6865,-3.6374,-3.6071,-3.6071,-3.5783,-3.56,-3.56,-3.56,-3.56,-3.56,-3.56,-3.56,-3.56,-3.56,-3.56,-3.56,-3.56,-3.56,-3.8707,0.0,0.0,-3.8707,-3.8707,-3.8707,-3.8707,-3.8707,-3.8707,-3.8707,-3.8707,-3.8781,-3.9001,-3.9515,-4.0063,-4.0487,-4.1534,-4.241,-4.2728,-4.4233,-4.5458,-4.5885,-4.7694,-4.8778,-4.8485,-4.9021,-4.951,-4.9731,-5.0346,-5.0712,-5.0712,-5.0712,-5.0808,-5.101,-5.0755,-5.07,-5.0948,-5.0569,-5.0354,-5.0354,-5.0241,-4.9935,-4.9428,-4.9484,-4.9341,-4.9043,-4.8763,-4.864,-4.864,-4.864,-4.8568,-4.8477,-4.8477,-4.8402,-4.8159,-4.6985,-4.6416,-4.6195,-4.5975,-4.5902,-4.5902,-4.5902,-4.5902,-4.5902,-4.5902,-4.5498,-4.5039,-4.5039,-4.4617,-4.4158,-4.4158,-4.3993,-4.3828,-4.3828,-4.3644,-4.3515,-4.3515,-4.3515,-4.3515,-4.3515,-4.302,-4.2635,-4.2635,-4.1974,-4.124,-4.0653,-3.968,-3.8946,-3.8726,-3.8366,-3.7998,-3.7649,-3.747,-3.7396,-3.7396,-3.6766,-3.6395,-3.6395,-3.5898,-3.56,-3.56,-3.56,-3.56,-3.56,-3.56,-3.56,-3.56,-3.56,-3.56,-3.56,-3.56,-3.56,0.0,0.0,-3.8707,-3.8707,-3.8707,-3.8707,-3.8707,-3.8707,-3.8707,-3.8707,-3.8707,-3.8946,-3.9717,-3.9879,-4.0396,-4.1974,-4.2268,-4.2693,-4.3791,-4.4721,-4.5852,-4.7353,-4.8342,-4.9354,0.0,-5.0625,-5.0644,-5.0654,-5.0693,-5.0712,-5.0712,-5.0712,-5.1048,-5.1846,-5.1836,-5.224,-5.3096,-5.2705,-5.252,-5.2508,-5.2115,-5.151,-5.0707,-4.9881,-4.9489,-4.9475,-4.946,-4.946,-4.946,-4.946,-4.9234,-4.888,-4.888,-4.8639,-4.8306,-4.8251,-4.7718,-4.6947,-4.6177,-4.5902,-4.5902,-4.5902,-4.5902,-4.5902,-4.5902,-4.5883,-4.5865,-4.5865,-4.5847,-4.5828,-4.5828,-4.5259,-4.4672,-4.4672,-4.4066,-4.3515,-4.3515,-4.3515,-4.3515,-4.3515,-4.3478,-4.346,-4.346,-4.28,-4.2268,-4.2231,-4.0873,-3.957,-3.8799,-3.8692,-3.8658,-3.8676,-3.8183,-3.7876,-3.7876,-3.6981,-3.6395,-3.6395,-3.5898,-3.56,-3.56,-3.56,-3.56,-3.56,-3.56,-3.56,-3.56,-3.56,-3.56,-3.56,-3.56,-3.56,0.0,0.0,-3.8707,-3.8707,-3.8707,-3.8707,-3.8707,-3.8707,-3.8707,-3.8707,-3.9129,-3.957,-3.9845,-4.0763,-4.1662,-4.2213,-4.2938,-4.355,-4.3949,-4.5636,-4.7011,-4.7549,-4.9075,0.0,0.0,0.0,0.0,-5.0712,-5.0712,-5.0933,-5.1471,-5.151,-5.1895,-5.2741,-5.275,-5.2895,-5.3203,-5.307,-5.3007,-5.2987,-5.2596,-5.2088,-5.1495,-5.0727,-5.0194,-4.9866,-4.9622,-4.9489,-4.9489,-4.9489,-4.9416,-4.9295,-4.9295,-4.9218,-4.9094,-4.9094,-4.8762,-4.8213,-4.7684,-4.7498,-4.7498,-4.7498,-4.7498,-4.7498,-4.7498,-4.7131,-4.6691,-4.6691,-4.6305,-4.5902,-4.5902,-4.57,-4.5498,-4.5498,-4.4874,-4.4305,-4.4305,-4.3883,-4.3515,-4.3515,-4.3515,-4.3515,-4.3515,-4.3277,-4.291,-4.2378,-4.0928,-3.9606,-3.8799,-3.8707,-3.8707,-3.8707,-3.8546,-3.8433,-3.8433,-3.7506,-3.6941,-3.6941,-3.6079,-3.56,-3.56,-3.56,-3.56,-3.56,-3.56,-3.56,-3.56,-3.56,-3.56,-3.56,-3.56,-3.56,-3.8707,-3.8707,-3.8707,-3.8707,-3.8707,-3.8707,-3.8707,-3.8707,-3.8707,-3.8707,-3.9331,-3.9992,-4.0286,-4.1405,-4.2396,-4.2671,-4.3439,-4.4043,-4.419,-4.6171,-4.7643,-4.7761,-4.9517,-5.0712,0.0,0.0,0.0,-5.0712,-5.0971,-5.1356,-5.1865,-5.2192,-5.275,-5.3645,-5.3664,-5.3799,-5.4087,-5.4087,-5.4087,-5.4087,-5.3548,-5.3107,-5.2797,-5.2023,-5.1319,-5.0723,-5.0462,-5.019,-4.9924,-4.9924,-4.984,-4.9719,-4.9719,-4.9636,-4.9489,-4.9489,-4.9341,-4.9094,-4.8813,-4.8621,-4.8513,-4.8513,-4.8513,-4.8477,-4.8345,-4.7938,-4.7516,-4.7516,-4.7168,-4.6764,-4.6764,-4.6544,-4.6342,-4.6342,-4.5718,-4.5057,-4.4746,-4.4287,-4.3828,-4.357,-4.3515,-4.3515,-4.3515,-4.3515,-4.3222,-4.2415,-4.1423,-4.0359,-3.9276,-3.8891,-3.8707,-3.8707,-3.8707,-3.8707,-3.8707,-3.7929,-3.7378,-3.7209,-3.6545,-3.5989,-3.5622,-3.5766,-3.5805,-3.56,-3.56,-3.56,-3.56,-3.56,-3.56,-3.56,-3.56,-3.56,-3.8707,-3.8707,-3.8707,-3.8707,-3.8707,-3.8707,-3.8707,-3.8707,-3.8707,-3.8762,-3.9405,-4.0212,0.0,0.0,-4.2633,-4.3385,-4.382,-4.4161,-4.4567,-4.633,-4.7701,0.0,0.0,0.0,0.0,0.0,0.0,-5.0712,0.0,-5.1923,-5.1962,-5.2799,-5.3664,-5.453,-5.4549,-5.4934,-5.5684,-5.5703,-5.5703,-5.5684,-5.4934,-5.453,-5.4472,-5.3645,-5.2799,-5.1962,-5.1962,-5.151,-5.077,-5.077,-5.0511,-5.0135,-5.0135,-4.9898,-4.9561,-4.9561,-4.9547,-4.9532,-4.9547,-4.928,-4.893,-4.893,-4.893,-4.8863,-4.8477,-4.8364,-4.8364,-4.8364,-4.8345,-4.8344,-4.8344,-4.7756,-4.7168,-4.7168,-4.6562,-4.5755,-4.5002,-4.4746,-4.447,-4.3699,-4.3533,-4.3515,-4.3515,-4.3515,-4.3239,-4.2488,-4.2323,-4.1717,-4.0102,-3.9239,-3.8762,-3.8707,-3.8707,-3.8707,-3.8707,-3.82,-3.7702,-3.7267,-3.721,-3.6746,-3.5717,-3.6182,-3.6203,-3.5694,-3.5672,-3.5672,-3.5644,-3.5644,-3.5622,-3.56,-3.56,-3.56,-3.8707,-3.8707,-3.8707,-3.8707,-3.8707,-3.8707,-3.8707,-3.8707,-3.8872,-3.946,-4.023,-4.1038,0.0,0.0,0.0,-4.3799,-4.4209,0.0,-4.4919,-4.619,0.0,-4.8019,0.0,-4.999,-5.0635,-5.0712,0.0,0.0,-5.1452,-5.2173,-5.2837,-5.3683,-5.4549,-5.5376,-5.5395,-5.5491,-5.5703,-5.5703,-5.5703,-5.5703,-5.5491,-5.5068,-5.4491,-5.426,-5.3683,-5.2876,-5.2876,-5.2375,-5.1587,-5.1587,-5.1182,-5.0544,-5.0544,-5.0483,-5.038,-5.038,-5.0195,-4.9987,-5.0283,-4.9936,-4.9341,-4.9341,-4.9341,-4.9326,-4.9218,-4.9187,-4.9187,-4.9187,-4.898,-4.8744,-4.8744,-4.8366,-4.7975,-4.7975,-4.7369,-4.6727,-4.6526,-4.5553,-4.4654,-4.4433,-4.3901,-4.3515,-4.3515,-4.3515,-4.3441,-4.3222,-4.2671,-4.1717,-4.0102,-3.9717,-3.935,-3.8762,-3.8707,-3.8707,-3.8707,-3.82,-3.7842,-3.772,-3.7396,-3.7078,-3.6805,-3.6923,-3.6923,-3.6786,-3.6786,-3.6603,-3.6203,-3.6203,-3.6006,-3.56,-3.56,-3.56,-3.8707,-3.8707,-3.8707,-3.8707,-3.8707,-3.8707,-3.8707,-3.8964,-3.935,-3.9808,-4.0818,0.0,0.0,0.0,0.0,0.0,0.0,0.0,-4.5052,-4.6138,-4.7192,0.0,-4.8875,0.0,-5.0616,-5.0712,-5.0712,0.0,-5.1798,-5.2673,-5.3164,-5.4357,-5.5222,-5.5684,-5.5703,-5.5703,-5.5703,-5.5703,-5.5703,-5.5703,-5.5703,-5.5453,-5.503,-5.503,-5.4568,-5.378,0.0,-5.328,-5.2462,-5.2462,-5.2202,-5.176,-5.1375,-5.1221,-5.1183,-5.0827,-5.0554,-5.0399,-5.0614,-5.041,-5.0006,-4.9813,-4.976,-4.9733,-4.9547,-4.9489,-4.9489,-4.9489,-4.9341,-4.9155,-4.9155,-4.8996,-4.8779,-4.8604,-4.8217,-4.7738,-4.7224,-4.6104,-4.5021,-4.4305,-4.3809,-4.3515,-4.3515,-4.3515,-4.3515,-4.3515,-4.3112,-4.2359,-4.1111,-4.0341,-3.9588,-3.8799,-3.8707,-3.8707,-3.8707,-3.8415,-3.815,-3.7911,-3.786,-3.7649,-3.7228,-3.7396,-3.7415,-3.7192,-3.7209,-3.7039,-3.6744,-3.6744,-3.6603,-3.6312,-3.6054,-3.5963,-3.8732,-3.8719,-3.8723,-3.8732,-3.8719,-3.8723,-3.8732,-3.9387,-4.001,-4.0148,0.0,-4.2468,-4.2578,0.0,-4.3758,-4.4087,0.0,-4.4769,-4.5118,-4.6062,-4.7067,-4.799,-4.8779,-4.9625,-5.0596,-5.0712,-5.0712,-5.0712,-5.2241,-5.3203,-5.3203,-5.478,-5.5703,-5.5703,-5.5703,-5.5703,-5.5703,-5.5703,-5.5703,-5.5703,-5.5703,-5.5703,-5.5703,-5.5703,-5.5318,-5.4664,-5.4664,-5.4164,-5.3376,-5.3376,-5.3299,-5.3126,-5.2365,-5.2077,-5.1981,-5.1279,-5.0962,-5.0856,-5.0856,-5.0789,-5.0634,-5.0283,-5.0171,-5.0104,-4.976,-4.9664,-4.9664,-4.9664,-4.9617,-4.9575,-4.9575,-4.9532,-4.9416,-4.9059,-4.8947,-4.8609,-4.7574,-4.6581,-4.5461,-4.3938,-4.357,-4.3515,-4.3515,-4.3515,-4.3515,-4.3515,-4.3515,-4.3221,-4.2396,-4.0983,-3.9753,-3.8946,-3.8762,-3.8707,-3.8707,-3.8707,-3.8496,-3.8048,-3.843,-3.8302,-3.7433,-3.779,-3.7808,-3.7414,-3.7396,-3.736,-3.7285,-3.7285,-3.7248,-3.7173,-3.6724,-3.6457,-3.8957,-3.8869,-3.8747,-3.899,-3.8855,-3.8762,-3.8971,-3.9686,0.0,0.0,0.0,-4.3348,-4.4068,-4.4312,0.0,-4.4853,0.0,0.0,0.0,0.0,-4.6394,0.0,0.0,0.0,0.0,0.0,0.0,0.0,-5.2241,-5.3203,-5.3203,-5.478,-5.5703,-5.5703,-5.5703,-5.5703,-5.5703,-5.5703,-5.5703,-5.5703,-5.5703,-5.5703,-5.5703,-5.5703,-5.5607,-5.5491,-5.5491,0.0,-5.426,-5.426,-5.3857,-5.3183,-5.3029,-5.2972,-5.2972,-5.2818,-5.2318,-5.1692,-5.1692,-5.126,-5.0683,-5.0614,-5.0604,-5.0575,-5.0504,-5.0493,-5.0493,-5.0493,-5.0249,-5.0006,-5.0006,-4.9746,-4.9475,-4.9416,-4.9139,-4.8842,-4.8627,-4.7165,-4.5626,-4.469,-4.3956,-4.3515,-4.3515,-4.3515,-4.3515,-4.3515,-4.3515,-4.3221,-4.2396,-4.1479,-4.0579,-3.9772,-3.9093,-3.8707,-3.8707,-3.8707,-3.8658,-3.8562,-3.8643,-3.8627,-3.8451,-3.8515,-3.853,-3.8433,-3.8433,-3.8218,-3.7772,-3.7772,-3.7578,-3.7209,-3.7097,-3.6823,-3.8855,-3.8894,-3.8933,-3.9058,-3.9131,-3.9203,-3.9333,0.0,0.0,0.0,0.0,-4.4102,-4.4517,0.0,0.0,0.0,0.0,0.0,0.0,0.0,0.0,0.0,0.0,0.0,0.0,0.0,0.0,0.0,0.0,-5.3203,-5.3203,-5.478,-5.5703,-5.5703,-5.5703,-5.5703,-5.5703,-5.5703,-5.5703,-5.5703,-5.5703,-5.5703,-5.5703,-5.5703,-5.5703,-5.5703,-5.5703,-5.5472,-5.5126,-5.5126,-5.4876,-5.4453,-5.4049,-5.3876,-5.3818,-5.3376,-5.2654,-5.1904,-5.1904,-5.1375,-5.0712,-5.0712,-5.0712,-5.0712,-5.0712,-5.0712,-5.0712,-5.0712,-5.0554,-5.041,-5.041,-5.0272,-5.0068,-4.9853,-4.9504,-4.9106,-4.8689,-4.7346,-4.5975,-4.516,-4.42,-4.3515,-4.3515,-4.3515,-4.3515,-4.3515,-4.3515,-4.3368,-4.2965,-4.1864,-4.0799,-3.9992,-3.9184,-3.8707,-3.8707,-3.8707,-3.8707,-3.8707,-3.8707,-3.8707,-3.8707,-3.8707,-3.8707,-3.8707,-3.8707,-3.8562,-3.8334,-3.8334,-3.8201,-3.7982,-3.7703,-3.7433,-3.8777,-3.8894,-3.9049,-3.916,-3.9339,-3.9541,-3.9668,-4.0874,0.0,0.0,-4.3504,-4.4597,-4.4787,0.0,0.0,0.0,0.0,0.0,0.0,0.0,0.0,0.0,0.0,0.0,0.0,0.0,0.0,0.0,0.0,-5.3356,-5.3722,-5.4972,-5.5703,-5.5703,-5.5703,-5.5703,-5.5703,-5.5703,-5.5703,-5.5703,-5.5703,-5.5703,-5.5703,-5.5703,-5.5703,-5.5703,-5.5703,-5.5703,-5.5703,-5.5703,-5.5703,-5.5645,-5.4991,-5.4761,-5.4664,-5.3991,-5.3068,-5.2173,-5.2173,-5.1529,-5.0712,-5.0712,-5.0712,-5.0712,-5.0712,-5.0712,-5.0712,-5.0712,-5.0712,-5.0712,-5.0712,-5.0712,-5.0604,-5.0214,-4.9872,-4.9433,-4.8716,-4.7529,-4.6423,-4.5787,-4.4552,-4.3614,-4.3614,-4.3548,-4.3515,-4.3515,-4.3515,-4.3515,-4.3515,-4.2249,-4.1056,-4.023,-3.9276,-3.8707,-3.8707,-3.8707,-3.8707,-3.8707,-3.8707,-3.8707,-3.8707,-3.8707,-3.8707,-3.8707,-3.8707,-3.8707,-3.8707,-3.8707,-3.8707,-3.8692,-3.8267,-3.7997,-3.8999,-3.8909,-3.8859,-3.9408,-3.9339,-3.9302,-3.9912,0.0,0.0,-4.279,-4.3717,-4.4563,-4.535,-4.5504,-4.5513,0.0,0.0,0.0,0.0,0.0,0.0,0.0,0.0,0.0,0.0,0.0,0.0,0.0,-5.2241,-5.3857,-5.5395,-5.5607,-5.5703,-5.5703,-5.5703,-5.5703,-5.5703,-5.5703,-5.5703,-5.5703,-5.5703,-5.5703,-5.5703,-5.5703,-5.5703,-5.5703,-5.5703,-5.5703,0.0,-5.5703,-5.5703,-5.5684,-5.5607,-5.5588,-5.5568,-5.5491,-5.4453,-5.3087,-5.3087,-5.2029,-5.0712,-5.0712,-5.0712,-5.0712,-5.0712,-5.0712,-5.0712,-5.0712,-5.0712,-5.0712,-5.0712,-5.0712,-5.0604,-5.0214,-5.0068,-4.993,-4.9481,-4.8117,-4.692,-4.6859,-4.5286,-4.3955,-4.3955,-4.3693,-4.3515,-4.3515,-4.3515,-4.3515,-4.3515,-4.2727,-4.1882,-4.1077,-3.9625,-3.8707,-3.8707,-3.8707,-3.8707,-3.8707,-3.8707,-3.8707,-3.8707,-3.8707,-3.8707,-3.8707,-3.8707,-3.8707,-3.8707,-3.8707,-3.8707,-3.8707,-3.8643,-3.8366,-3.8829,-3.8894,-3.8985,-3.9244,-3.9339,-3.951,-3.9992,0.0,0.0,-4.2851,-4.3739,-4.4566,-4.5441,-4.5594,-4.5594,0.0,0.0,0.0,0.0,0.0,0.0,0.0,0.0,0.0,0.0,0.0,0.0,0.0,-5.2049,-5.2953,-5.4126,-5.5145,-5.5703,-5.5703,-5.5703,-5.5703,-5.5703,-5.5703,-5.5703,-5.5703,-5.5703,-5.5703,-5.5703,-5.5703,-5.5703,-5.5703,-5.5703,-5.5703,0.0,-5.5703,-5.5703,-5.5703,-5.5703,-5.5703,-5.5645,-5.5164,-5.4222,-5.3126,-5.2596,-5.1664,-5.0712,-5.0712,-5.0712,-5.0712,-5.0712,-5.0712,-5.0712,-5.0712,-5.0712,-5.0712,-5.0712,-5.0712,-5.0663,-5.0493,-5.0472,-5.0421,-5.026,-4.8722,-4.7371,-4.7371,-4.5746,-4.4346,-4.4346,-4.4046,-4.3804,-4.3804,-4.3629,-4.3515,-4.3515,-4.28,-4.1992,-4.1187,-4.0084,-3.9239,-3.8744,-3.8707,-3.8707,-3.8707,-3.8707,-3.8707,-3.8707,-3.8707,-3.8707,-3.8707,-3.8707,-3.8707,-3.8707,-3.8707,-3.8707,-3.8707,-3.8707,-3.8596,-3.8917,-3.9027,-3.9107,-3.9212,-3.9505,-3.9808,0.0,0.0,-4.1378,-4.2494,-4.3374,-4.4201,-4.5056,-4.5441,-4.5594,-4.5594,0.0,-4.5594,0.0,0.0,0.0,0.0,0.0,0.0,0.0,0.0,0.0,-5.1557,-5.1827,-5.224,-5.2891,-5.4255,-5.4997,-5.4953,-5.4953,-5.4953,-5.4953,-5.4953,-5.4953,-5.4953,-5.4953,-5.4953,-5.4953,-5.4953,-5.4953,-5.4953,-5.4953,-5.4953,0.0,-5.4953,-5.4953,-5.4953,-5.4953,-5.4953,-5.4895,-5.4318,-5.3568,-5.2741,-5.2115,-5.1375,-5.0712,-5.0712,-5.0712,-5.0712,-5.0712,-5.0712,-5.0712,-5.0712,-5.0712,-5.0712,-5.0712,-5.0712,-5.0712,-5.0712,-5.0712,-5.0635,-5.0366,-4.8959,-4.7693,-4.7433,-4.5959,-4.4751,-4.4751,-4.4428,-4.4175,-4.4175,-4.3884,-4.3646,-4.3646,-4.3068,-4.2268,-4.1205,-4.0598,-3.9827,-3.8799,-3.8707,-3.8707,-3.8707,-3.8707,-3.8707,-3.8707,-3.8707,-3.8707,-3.8707,-3.8707,-3.8707,-3.8707,-3.8707,-3.8707,-3.8707,-3.8707,-3.8707,-3.9439,-3.9339,-3.9173,-3.9498,-3.9859,-4.0091,0.0,0.0,-4.0758,-4.1643,-4.2508,-4.3355,-4.4162,-4.5017,-4.5594,-4.5594,-4.5594,0.0,0.0,0.0,0.0,0.0,0.0,0.0,0.0,0.0,0.0,-5.0894,-5.1656,0.0,-5.2299,-5.3009,-5.3351,-5.3222,-5.3241,-5.3241,-5.3241,-5.3241,-5.3241,-5.3241,-5.3241,-5.3241,-5.3241,-5.3241,-5.3241,-5.3241,-5.3241,-5.3241,0.0,-5.3241,-5.3241,-5.3241,-5.3241,-5.3241,-5.3222,-5.3222,-5.2654,-5.1904,-5.1904,-5.1375,-5.0712,-5.0712,-5.0712,-5.0712,-5.0712,-5.0712,-5.0712,-5.0712,-5.0712,-5.0712,-5.0712,-5.0712,-5.0712,-5.0712,-5.0712,-5.0462,-4.9606,-4.8721,-4.7865,-4.7058,-4.5935,-4.5096,-4.5096,-4.4825,-4.4593,-4.4593,-4.4247,-4.3982,-4.3982,-4.371,-4.2873,-4.126,-4.1095,-4.0435,-3.8836,-3.8707,-3.8707,-3.8707,-3.8707,-3.8707,-3.8707,-3.8707,-3.8707,-3.8707,-3.8707,-3.8707,-3.8707,-3.8707,-3.8707,-3.8707,-3.8707,-3.8707,-3.9218,-3.9339,-3.9481,-3.9576,-3.9679,-3.9819,-4.0061,-4.0167,-4.0535,-4.1591,-4.2019,-4.2643,-4.4047,-4.4528,-4.4921,-4.5498,-4.5594,0.0,0.0,0.0,0.0,0.0,0.0,0.0,0.0,0.0,-5.0991,-5.102,-5.1278,-5.1431,-5.1478,-5.1708,-5.2285,-5.3301,-5.3331,-5.3299,-5.3203,-5.329,-5.329,-5.3203,-5.3203,-5.3203,-5.3203,-5.3203,-5.3203,-5.3203,-5.3203,-5.3203,-5.3203,-5.3203,-5.3203,-5.3203,-5.3203,-5.3203,-5.3126,-5.2519,-5.2135,-5.1808,-5.1279,-5.0914,-5.0712,-5.0712,-5.0712,-5.0712,-5.0712,-5.0712,-5.0712,-5.0712,-5.0712,-5.0712,-5.0712,-5.0712,-5.0712,-5.0712,-5.0712,-5.0462,-4.9586,-4.8721,-4.7855,-4.7058,-4.6099,-4.5438,-4.5438,-4.515,-4.4943,-4.4943,-4.4395,-4.4001,-4.4001,-4.371,-4.2873,-4.126,-4.1095,-4.0453,-3.8836,-3.8707,-3.8707,-3.8707,-3.8707,-3.8707,-3.8707,-3.8707,-3.8707,-3.8707,-3.8707,-3.8707,-3.8707,-3.8707,-3.8707,-3.8707,-3.8707,-3.8707,0.0,-3.9724,-3.9786,-3.9786,-3.9853,0.0,0.0,-4.0177,-4.0457,-4.1157,-4.1566,-4.2115,-4.3162,-4.3874,-4.447,-4.5017,-4.5383,0.0,0.0,0.0,0.0,0.0,0.0,0.0,0.0,0.0,-5.1113,-5.1137,-5.1141,-5.1156,-5.121,-5.116,-5.1574,-5.2533,-5.255,-5.2501,-5.2409,-5.2494,-5.2494,-5.2409,-5.2409,-5.2409,-5.2401,-5.2363,-5.2371,-5.2401,-5.23,-5.23,0.0,-5.2281,-5.226,-5.226,-5.226,-5.226,-5.2183,-5.1645,-5.1452,-5.1375,-5.0856,-5.0712,-5.0712,-5.0712,-5.0712,-5.0712,-5.0712,-5.0712,-5.0712,-5.0712,-5.0712,-5.0712,-5.0712,-5.0712,-5.0712,-5.0712,-5.0712,-5.0366,-4.9163,-4.849,-4.7759,-4.6624,-4.597,-4.5594,-4.5594,-4.5429,-4.5292,-4.5292,-4.4688,-4.4237,-4.4237,-4.3788,-4.2873,-4.126,-4.1095,-4.0453,-3.8836,-3.8707,-3.8707,-3.8707,-3.8707,-3.8707,-3.8707,-3.8707,-3.8707,-3.8707,-3.8707,-3.8707,-3.8707,-3.8707,-3.8707,-3.8707,-3.8707,-3.8707,0.0,0.0,0.0,0.0,0.0,0.0,0.0,-4.033,0.0,-4.0496,-4.1143,-4.1731,-4.1788,-4.3066,-4.4162,-4.4278,-4.4979,0.0,0.0,0.0,0.0,0.0,0.0,0.0,0.0,-5.0594,-5.1086,-5.1206,-5.1208,-5.1268,-5.1387,-5.1273,-5.1208,-5.1208,-5.1156,-5.1108,-5.1094,-5.1099,-5.1099,-5.1089,-5.1089,-5.1089,-5.1108,-5.0966,-5.0979,0.0,-5.0835,-5.0808,-5.0896,-5.0773,-5.0721,-5.0721,-5.0721,-5.0721,-5.0721,-5.0721,-5.0712,-5.0712,-5.0712,-5.0702,-5.0712,-5.0712,-5.0712,-5.0712,-5.0712,-5.0712,-5.0712,-5.0712,-5.0712,-5.0712,-5.0712,-5.0712,-5.0712,-5.0712,-5.0654,-5.0144,-4.8471,-4.8067,-4.7548,-4.5922,-4.5594,-4.5594,-4.5594,-4.5594,-4.5594,-4.5594,-4.5044,-4.465,-4.465,-4.4004,-4.2956,-4.134,-4.1142,-4.0483,-3.8882,-3.8704,-3.8707,-3.8707,-3.8707,-3.8707,-3.8707,-3.8707,-3.8707,-3.8707,-3.8707,-3.8707,-3.8707,-3.8707,-3.8707,-3.8707,-3.8707,-3.8707,-4.0481,0.0,-4.0417,-4.0417,-4.0457,-4.0481,0.0,-4.0457,-4.0496,-4.0496,0.0,0.0,-4.1681,-4.2115,-4.2816,-4.4085,-4.447,0.0,0.0,0.0,0.0,0.0,0.0,0.0,0.0,-4.9914,-5.0676,-5.1305,-5.1345,-5.1366,-5.1406,-5.1366,-5.1345,-5.1345,-5.134,-5.1262,-5.1094,-5.114,-5.114,-5.1089,-5.1089,-5.1089,-5.1089,-5.1078,-5.1063,-5.1108,-5.102,-5.1008,-5.1042,-5.1022,-5.101,-5.101,-5.101,-5.101,-5.101,-5.101,-5.0945,-5.0859,-5.0859,-5.0791,-5.0712,-5.0712,-5.0712,-5.0712,-5.0712,-5.0712,-5.0712,-5.0712,-5.0712,-5.0712,-5.0712,-5.0712,-5.0712,-5.0712,-5.0183,-4.9413,-4.8336,-4.7625,-4.6874,-4.5806,-4.5594,-4.5594,-4.5594,-4.5594,-4.5594,-4.5594,-4.5243,-4.4977,-4.4977,-4.4606,-4.3717,-4.2053,-4.1651,-4.081,-3.9143,-3.8833,-3.8707,-3.8707,-3.8707,-3.8707,-3.8707,-3.8707,-3.8707,-3.8707,-3.8707,-3.8707,-3.8707,-3.8707,-3.8707,-3.8707,-3.8707,-3.8707,-4.0496,-4.0496,-4.0496,-4.0496,-4.0496,-4.0496,-4.0496,0.0,0.0,0.0,0.0,0.0,0.0,0.0,0.0,0.0,-4.3489,0.0,0.0,0.0,0.0,0.0,0.0,0.0,0.0,-4.9453,-5.0371,-5.082,-5.1191,-5.1406,-5.1406,-5.1406,-5.1406,-5.1406,-5.1406,-5.1342,-5.1233,-5.1263,-5.1263,-5.123,-5.123,-5.123,-5.1249,-5.1174,-5.1177,-5.1227,-5.1139,-5.1126,-5.1129,-5.1117,-5.1089,-5.1089,-5.1089,-5.1089,-5.1089,-5.1089,-5.1042,-5.0991,-5.0991,-5.0933,-5.0871,-5.0814,-5.0799,-5.0773,-5.0721,-5.0712,-5.0712,-5.0712,-5.0712,-5.0712,-5.0712,-5.0712,-5.0596,-5.0212,-4.974,-4.9067,-4.7817,-4.7212,-4.6644,-4.5768,-4.5594,-4.5594,-4.5594,-4.5594,-4.5594,-4.5594,-4.5322,-4.5096,-4.5096,-4.4812,-4.397,-4.2278,-4.1938,-4.1145,-3.9477,-3.9203,-3.8998,-3.8723,-3.8707,-3.8707,-3.8707,-3.8707,-3.8707,-3.8707,-3.8707,-3.8707,-3.8707,-3.8707,-3.8707,-3.8707,-3.8707,-3.8707,-4.0496,-4.0496,-4.0496,-4.0496,-4.0496,-4.0496,-4.0496,0.0,0.0,0.0,0.0,0.0,0.0,0.0,0.0,0.0,0.0,0.0,0.0,0.0,0.0,0.0,0.0,0.0,-4.7598,-4.8945,-4.9902,-5.0176,-5.082,-5.1269,-5.1387,-5.1406,-5.1406,-5.1406,-5.1406,-5.1406,-5.1406,-5.1406,-5.1406,-5.1406,-5.1406,-5.1406,-5.1406,-5.1273,-5.1295,-5.1386,0.0,0.0,-5.1232,-5.1163,-5.1148,-5.1148,-5.1148,-5.1148,-5.1148,-5.1148,-5.1135,-5.1117,-5.1099,-5.1089,-5.1074,-5.0959,-5.0932,-5.0903,-5.0799,-5.0758,-5.073,-5.073,-5.0721,-5.0673,-5.0539,-5.05,-5.0289,-4.9413,-4.9106,-4.8625,-4.7221,-4.6797,-4.649,-4.5748,-4.5594,-4.5594,-4.5594,-4.5594,-4.5594,-4.5594,-4.5352,-4.518,-4.518,-4.4931,-4.412,-4.2423,-4.2217,-4.1501,-3.9819,-3.9634,-3.9389,-3.8877,-3.8833,-3.8803,-3.8762,-3.8719,-3.8707,-3.8707,-3.8707,-3.8707,-3.8707,-3.8707,-3.8707,-3.8707,-3.8707,-3.8707,-4.0496,-4.0496,-4.0496,-4.0496,-4.0496,-4.0496,-4.0496,0.0,0.0,0.0,0.0,0.0,0.0,0.0,0.0,0.0,0.0,0.0,0.0,0.0,0.0,0.0,0.0,-4.6797,-4.7539,-4.7832,-4.8613,-5.0098,-5.0312,-5.0683,-5.1367,-5.1406,-5.1406,-5.1406,-5.1406,-5.1406,-5.1406,-5.1406,-5.1406,-5.1406,-5.1406,-5.1406,-5.1406,-5.1386,-5.1386,-5.1406,0.0,-5.1364,-5.1366,-5.1363,-5.1343,-5.1343,-5.1343,-5.1343,-5.1343,-5.1343,-5.1288,-5.1177,-5.1131,-5.1089,-5.1108,-5.1088,-5.1058,-5.1078,-5.1036,-5.0953,-5.0863,-5.0863,-5.0791,-5.0539,-4.9779,-4.9606,-4.9375,-4.8509,-4.7778,-4.7221,-4.6962,-4.6317,-4.5768,-4.5633,-4.5594,-4.5594,-4.5594,-4.5594,-4.5594,-4.5594,-4.5559,-4.5522,-4.5522,-4.5485,-4.4805,-4.3136,-4.2689,-4.1852,-4.0175,-3.9765,-3.9564,-3.9457,-3.9457,-3.9333,-3.9049,-3.8815,-3.8707,-3.8707,-3.8707,-3.8707,-3.8707,-3.8707,-3.8707,-3.8707,-3.8707,-3.8707,-4.0582,-4.061,-4.061,-4.061,-4.0552,-4.0496,-4.0496,0.0,0.0,0.0,0.0,0.0,0.0,0.0,0.0,0.0,0.0,0.0,0.0,0.0,0.0,0.0,0.0,-4.6465,-4.6855,-4.7324,-4.793,-4.873,-4.9238,-4.9668,-5.0039,-5.0508,-5.0742,-5.0742,-5.1172,-5.1406,-5.1406,-5.1406,-5.1406,-5.1406,-5.1406,-5.1406,-5.1406,-5.1406,-5.1406,-5.1406,0.0,-5.1406,-5.1406,-5.1406,-5.1406,-5.1406,-5.1406,-5.1406,-5.1406,-5.1406,-5.1365,-5.1296,-5.1275,-5.1267,-5.1243,-5.118,-5.1147,-5.1156,-5.1113,-5.0731,-5.0286,-5.022,-5.0102,-4.9913,-4.949,-4.9048,-4.849,-4.7663,-4.7173,-4.6778,-4.6297,-4.5874,-4.5594,-4.5594,-4.5594,-4.5594,-4.5594,-4.5594,-4.5594,-4.5594,-4.5594,-4.5594,-4.5594,-4.5594,-4.5133,-4.3874,-4.323,-4.2381,-4.1126,-4.0453,-3.9954,-3.9622,-3.9599,-3.9541,-3.9377,-3.9249,-3.91,-3.8923,-3.8923,-3.8826,-3.8707,-3.8707,-3.8707,-3.8707,-3.8707,-3.8707,-4.069,-4.071,-4.071,-4.071,0.0,-4.0568,-4.0519,0.0,0.0,0.0,0.0,0.0,0.0,0.0,0.0,0.0,0.0,0.0,0.0,0.0,0.0,-4.498,-4.5762,-4.6308,-4.6308,-4.6894,-4.7383,-4.7578,-4.8223,-4.8672,-4.8887,-4.9531,-4.9902,-4.9902,-5.0488,-5.0801,-5.0801,-5.0801,-5.1016,-5.1406,-5.1406,-5.1406,-5.1406,-5.1406,-5.1406,-5.1406,-5.1406,-5.1406,-5.1406,-5.1406,-5.1406,-5.1406,-5.1406,-5.1406,-5.1406,-5.1406,-5.1406,-5.1406,-5.1406,-5.1406,-5.1386,-5.1271,-5.1125,-5.0961,-5.0901,-5.0239,-4.9469,-4.9362,-4.91,-4.8817,-4.8817,-4.8317,-4.7605,-4.6797,-4.6605,-4.6413,-4.5748,-4.5594,-4.5594,-4.5594,-4.5594,-4.5594,-4.5594,-4.5594,-4.5594,-4.5594,-4.5594,-4.5594,-4.5594,-4.5594,-4.5267,-4.4393,-4.3585,-4.2662,-4.1585,-4.0873,-4.0292,-3.9842,-3.9746,-3.9731,-3.9731,-3.9634,-3.9438,-3.9112,-3.9112,-3.8975,-3.8707,-3.8707,-3.8707,-3.8707,-3.8707,-3.8707,-4.0775,-4.0785,-4.0785,-4.0785,-4.0781,0.0,-4.054,-4.0639,0.0,-4.069,0.0,0.0,0.0,0.0,0.0,0.0,0.0,0.0,0.0,0.0,-4.4082,-4.4902,-4.5762,-4.6308,-4.6308,-4.6367,-4.6738,-4.7539,-4.7656,-4.8047,-4.8867,-4.8965,-4.8984,-4.8984,-4.9043,-4.9082,-4.9082,-4.9082,-4.9863,-5.1406,-5.1406,-5.1406,-5.1406,-5.1406,-5.1406,-5.1406,-5.1406,-5.1406,-5.1406,-5.1406,-5.1406,-5.1406,-5.1406,-5.1406,-5.1406,-5.1406,-5.1406,-5.1406,-5.1406,-5.1406,-5.1406,-5.1386,-5.0879,-5.0273,-5.0273,-4.9484,-4.8584,-4.8574,-4.7849,-4.7077,-4.7077,-4.7019,-4.6778,-4.5893,-4.5691,-4.5691,-4.5614,-4.5594,-4.5594,-4.5594,-4.5594,-4.5594,-4.5594,-4.5594,-4.5594,-4.5594,-4.5594,-4.5594,-4.5594,-4.5594,-4.5267,-4.4393,-4.3585,-4.2412,-4.0746,-4.0535,-4.0481,-4.043,-4.0204,-4.0052,-4.0052,-3.9765,-3.9438,-3.9112,-3.9112,-3.8975,-3.8707,-3.8707,-3.8707,-3.8707,-3.8707,-3.8707,-4.088,-4.092,-4.092,-4.092,-4.099,0.0,0.0,-4.0757,-4.0785,0.0,0.0,0.0,0.0,0.0,0.0,0.0,0.0,0.0,-4.1601,-4.2363,-4.3203,-4.4082,-4.4961,-4.5703,-4.625,-4.6308,-4.6445,-4.6777,-4.6797,-4.6933,-4.7266,-4.7793,-4.8086,-4.8086,-4.8613,-4.8906,-4.8906,-4.8906,-4.9219,-4.9844,-4.9844,-5.0137,-5.0644,-5.0644,-5.0937,-5.1406,-5.1406,-5.1406,-5.1406,-5.1406,-5.1406,-5.1406,-5.1406,-5.1406,-5.1406,-5.1406,-5.1074,-5.0644,-5.0644,-5.0293,-4.9844,-4.9844,-4.9648,-4.9375,-4.9287,-4.8593,-4.7785,-4.7664,-4.6952,-4.6318,-4.6775,-4.6509,-4.6009,-4.5691,-4.5594,-4.5594,-4.5594,-4.5594,-4.5594,-4.5594,-4.5594,-4.5594,-4.5594,-4.5594,-4.5594,-4.5594,-4.5594,-4.5594,-4.5594,-4.5594,-4.5479,-4.5152,-4.3893,-4.2393,-4.065,-4.0496,-4.0496,-4.0496,-4.0397,-4.0347,-4.0347,-4.023,-3.9925,-3.9414,-3.9401,-3.9176,-3.8707,-3.8707,-3.8707,-3.8707,-3.8707,-3.8707,-4.1025,-4.1056,-4.1056,-4.1056,0.0,0.0,-4.0962,-4.0922,0.0,0.0,0.0,0.0,0.0,0.0,0.0,0.0,0.0,-4.1191,-4.1191,-4.1894,-4.2715,-4.3594,-4.4473,-4.5332,-4.6211,-4.6308,-4.6308,-4.6308,-4.6308,-4.6308,-4.6308,-4.6875,-4.7187,-4.7187,-4.7773,-4.8086,-4.8086,-4.8086,-4.8086,-4.8086,-4.8086,-4.8672,-4.9785,-4.9785,-5.0098,-5.0605,-5.0605,-5.0605,-5.0605,-5.0605,-5.0605,-5.0605,-5.0605,-5.0605,-5.0605,-5.0605,-5.0254,-4.9785,-4.9785,-4.9394,-4.8906,-4.8906,-4.8711,-4.8476,-4.8386,-4.7705,-4.6952,-4.6824,-4.6316,-4.5924,-4.6422,-4.6089,-4.5594,-4.5594,-4.5594,-4.5594,-4.5594,-4.5594,-4.5594,-4.5594,-4.5594,-4.5594,-4.5594,-4.5594,-4.5594,-4.5594,-4.5594,-4.5594,-4.5594,-4.5594,-4.5402,-4.4883,-4.3778,-4.2393,-4.065,-4.0496,-4.0496,-4.0496,-4.0496,-4.0496,-4.0496,-4.0496,-4.0257,-3.9775,-3.9765,-3.95,-3.8984,-3.8984,-3.8984,-3.8984,-3.8984,-3.8946,-4.1151,-4.1191,-4.1191,0.0,0.0,0.0,-4.1191,-4.1191,0.0,0.0,0.0,0.0,0.0,0.0,0.0,0.0,-4.1191,-4.1191,-4.1191,-4.1894,-4.2715,-4.3574,-4.4453,-4.5312,-4.6191,-4.6289,-4.6289,-4.6308,-4.6308,-4.6308,-4.6308,-4.6308,-4.6308,-4.6308,-4.6308,-4.6308,-4.6308,-4.6308,-4.6308,-4.6308,-4.6308,-4.7207,-4.8887,-4.8887,-4.8887,-4.8906,-4.8906,-4.8906,-4.8906,-4.8906,-4.8906,-4.8906,-4.8906,-4.8906,-4.8906,-4.8906,-4.8887,-4.8887,-4.8887,-4.8887,-4.8887,-4.8887,-4.8281,-4.7598,-4.7598,-4.6884,-4.6108,-4.6108,-4.5946,-4.5803,-4.5803,-4.57,-4.5594,-4.5594,-4.5594,-4.5594,-4.5594,-4.5594,-4.5594,-4.5594,-4.5594,-4.5594,-4.5594,-4.5594,-4.5594,-4.5594,-4.5594,-4.5594,-4.5594,-4.5594,-4.496,-4.3278,-4.3104,-4.2393,-4.065,-4.0496,-4.0496,-4.0496,-4.0496,-4.0496,-4.0496,-4.0496,-4.0372,-4.0101,-4.0101,-3.9951,-3.9599,-3.9599,-3.9599,-3.9599,-3.9599,-3.9414,-4.1191,-4.1191,0.0,0.0,0.0,0.0,0.0,0.0,0.0,0.0,0.0,0.0,0.0,0.0,0.0,-4.1191,-4.1191,-4.1191,-4.1191,-4.1406,-4.1855,-4.2695,-4.3008,-4.375,-4.5234,-4.5391,-4.5644,-4.625,-4.6308,-4.6308,-4.6308,-4.6308,-4.6308,-4.6308,-4.6308,-4.6308,-4.6308,-4.6308,-4.6308,-4.6308,-4.6308,-4.6894,-4.7988,-4.7988,-4.832,-4.8906,-4.8906,-4.8906,-4.8906,-4.8906,-4.8906,-4.8906,-4.8906,-4.8906,-4.8906,-4.8906,-4.8516,-4.7988,-4.7988,-4.7578,-4.707,-4.707,-4.6894,-4.6679,-4.6569,-4.6337,-4.608,-4.5985,-4.5923,-4.5867,-4.5867,-4.5814,-4.5723,-4.561,-4.5594,-4.5594,-4.5594,-4.5594,-4.5594,-4.5594,-4.5594,-4.5594,-4.5594,-4.5594,-4.5594,-4.5594,-4.5594,-4.5594,-4.5594,-4.5594,-4.496,-4.3278,-4.3104,-4.2393,-4.065,-4.0496,-4.0496,-4.0496,-4.0496,-4.0496,-4.0496,-4.0496,-4.0372,-4.0101,-4.0101,-3.9951,-3.9599,-3.9599,-3.9599,-3.9599,-3.9599,-3.9552,-4.1148,-4.1151,0.0,0.0,0.0,0.0,0.0,0.0,0.0,0.0,0.0,0.0,0.0,0.0,0.0,-4.1191,-4.1191,-4.1191,-4.1191,-4.1191,-4.1504,-4.2305,-4.2402,-4.2949,-4.4355,-4.4473,-4.4707,-4.5234,-4.5586,-4.5781,-4.5781,-4.6113,-4.6308,-4.6308,-4.6308,-4.6308,-4.6308,-4.6308,-4.6308,-4.6308,-4.6308,-4.6582,-4.707,-4.707,-4.7363,-4.7871,-4.7871,-4.7871,-4.7871,-4.7871,-4.7871,-4.7871,-4.7871,-4.7871,-4.7871,-4.7871,-4.7539,-4.707,-4.707,-4.6738,-4.6308,-4.6308,-4.6308,-4.6289,-4.6201,-4.6175,-4.6152,-4.6082,-4.6027,-4.5981,-4.5981,-4.59,-4.582,-4.5715,-4.5635,-4.5594,-4.5594,-4.5594,-4.5594,-4.5594,-4.5594,-4.5594,-4.5594,-4.5594,-4.5594,-4.5594,-4.5594,-4.5594,-4.5594,-4.5594,-4.496,-4.3278,-4.3104,-4.2393,-4.065,-4.0496,-4.0496,-4.0496,-4.0496,-4.0496,-4.0496,-4.0496,-4.0414,-4.025,-4.025,-4.0157,-3.9964,-3.9964,-3.9964,-3.9964,-3.9964,-3.9903,-4.1052,0.0,0.0,0.0,0.0,0.0,0.0,0.0,0.0,0.0,0.0,0.0,0.0,0.0,-4.1191,-4.1191,-4.1191,-4.1191,-4.1191,-4.1191,-4.1465,-4.2207,-4.2285,-4.2617,-4.3496,-4.3574,-4.3593,-4.3671,-4.4413,-4.4863,-4.4842,-4.5604,-4.6073,-4.6151,-4.6151,-4.619,-4.6268,-4.6268,-4.6268,-4.6268,-4.6268,-4.6268,-4.6268,-4.6289,-4.6308,-4.6308,-4.6308,-4.6308,-4.6308,-4.6308,-4.6308,-4.6308,-4.6308,-4.6308,-4.6308,-4.6308,-4.6308,-4.6308,-4.6308,-4.6308,-4.6308,-4.6308,-4.6308,-4.6308,-4.6308,-4.6308,-4.6308,-4.6308,-4.6203,-4.6117,-4.6117,-4.6027,-4.5909,-4.5844,-4.5718,-4.562,-4.5594,-4.5594,-4.5594,-4.5594,-4.5594,-4.5594,-4.5594,-4.5594,-4.5594,-4.5594,-4.5594,-4.5594,-4.5594,-4.5594,-4.496,-4.3278,-4.3104,-4.2393,-4.065,-4.0496,-4.0496,-4.0496,-4.0496,-4.0496,-4.0496,-4.0496,-4.0496,-4.0496,-4.0496,-4.0496,-4.0496,-4.0496,-4.0496,-4.0496,-4.0496,-4.0364,0.0,-4.1171,0.0,0.0,0.0,0.0,0.0,0.0,0.0,0.0,0.0,0.0,0.0,-4.1191,-4.1191,-4.1191,-4.1191,-4.1191,-4.1191,-4.1191,-4.1269,-4.1445,-4.1378,-4.1636,-4.2516,-4.2594,-4.2832,-4.3428,-4.3745,-4.3868,-4.376,-4.3913,-4.4341,-4.5017,-4.5037,-4.5349,-4.5988,-4.5988,-4.5988,-4.5988,-4.5988,-4.5988,-4.5992,-4.6201,-4.6308,-4.6308,-4.6308,-4.6308,-4.6308,-4.6308,-4.6308,-4.6308,-4.6308,-4.6308,-4.6308,-4.6308,-4.6308,-4.6308,-4.6308,-4.6308,-4.6308,-4.6308,-4.6308,-4.6308,-4.6308,-4.6308,-4.6308,-4.6308,-4.6289,-4.6267,-4.6267,-4.617,-4.6045,-4.6047,-4.5896,-4.5737,-4.561,-4.5594,-4.5594,-4.5594,-4.5594,-4.5594,-4.5594,-4.5594,-4.5594,-4.5594,-4.5594,-4.5594,-4.5594,-4.5594,-4.496,-4.3278,-4.3104,-4.2393,-4.065,-4.0496,-4.0496,-4.0496,-4.0496,-4.0496,-4.0496,-4.0496,-4.0496,-4.0496,-4.0496,-4.0496,-4.0496,-4.0496,-4.0496,-4.0496,-4.0496,-4.0473,0.0,0.0,0.0,0.0,0.0,0.0,0.0,0.0,0.0,0.0,0.0,0.0,0.0,-4.1191,-4.1191,-4.1191,-4.1149,-4.1104,-4.1104,-4.1052,-4.1017,-4.1017,-4.0952,-4.1087,-4.1535,-4.1574,-4.1734,-4.2136,-4.2607,-4.2848,-4.2782,-4.3171,-4.3619,-4.4063,-4.4082,-4.4277,-4.4701,-4.4701,-4.4915,-4.5319,-4.5319,-4.5533,-4.5907,-4.6113,-4.6246,-4.6308,-4.6308,-4.6308,-4.6308,-4.6308,-4.6308,-4.6308,-4.6308,-4.6308,-4.6308,-4.6308,-4.6308,-4.6308,-4.6308,-4.6308,-4.6308,-4.6308,-4.6308,-4.6308,-4.6308,-4.6308,-4.6308,-4.6308,-4.6308,-4.6308,-4.6308,-4.6247,-4.6175,-4.6115,-4.5975,-4.5836,-4.577,-4.572,-4.5692,-4.5692,-4.5643,-4.5594,-4.5594,-4.5594,-4.5594,-4.5594,-4.5594,-4.5594,-4.5594,-4.5248,-4.4489,-4.3239,-4.2739,-4.1931,-4.0612,-4.0496,-4.0496,-4.0496,-4.0496,-4.0496,-4.0496,-4.0496,-4.0496,-4.0496,-4.0496,-4.0496,-4.0496,-4.0496,-4.0496,-4.0496,-4.0496,-4.0496,0.0,0.0,0.0,0.0,0.0,0.0,0.0,0.0,0.0,0.0,0.0,0.0,-4.1171,-4.1171,-4.1151,-4.1129,-4.1048,-4.0962,-4.0962,-4.0867,-4.0797,-4.0797,-4.0781,-4.0788,-4.0788,-4.0788,-4.0764,-4.0742,-4.1444,-4.1842,-4.182,-4.2509,-4.2976,-4.3112,-4.3112,-4.3209,-4.3345,-4.3345,-4.3709,-4.4424,-4.4424,-4.4783,-4.5448,-4.5556,-4.5843,-4.6268,-4.6268,-4.6289,-4.6308,-4.6308,-4.6308,-4.6308,-4.6308,-4.6308,-4.6308,-4.6308,-4.6308,-4.6308,-4.6308,-4.6308,-4.6308,-4.6308,-4.6308,-4.6308,-4.6308,-4.6308,-4.6308,-4.6308,-4.6308,-4.6308,-4.6308,-4.6308,-4.6268,-4.615,-4.6045,-4.5967,-4.5907,-4.5855,-4.5815,-4.5803,-4.5685,-4.5594,-4.5594,-4.5594,-4.5594,-4.5594,-4.5594,-4.5594,-4.5594,-4.4836,-4.3989,-4.3181,-4.2316,-4.145,-4.0573,-4.0496,-4.0496,-4.0496,-4.0496,-4.0496,-4.0496,-4.0496,-4.0496,-4.0496,-4.0496,-4.0496,-4.0496,-4.0496,-4.0496,-4.0496,-4.0496,-4.0496,0.0,0.0,0.0,0.0,0.0,0.0,0.0,0.0,0.0,0.0,0.0,-4.1151,-4.1051,-4.1025,-4.099,-4.087,-4.0847,-4.0839,-4.0839,-4.0809,-4.0797,-4.0797,-4.0747,-4.0707,-4.0707,-4.0707,-4.0674,-4.0547,-4.0752,-4.0848,-4.0721,-4.081,-4.1234,-4.1998,-4.2017,-4.2383,-4.3135,-4.3135,-4.3193,-4.3308,-4.3308,-4.3405,-4.3554,-4.3577,-4.4517,-4.614,-4.614,-4.6199,-4.6308,-4.6308,-4.6308,-4.6308,-4.6308,-4.6308,-4.6308,-4.6308,-4.6308,-4.6308,-4.6308,-4.6308,-4.6308,-4.6308,-4.6308,-4.6308,-4.6308,-4.6308,-4.6308,-4.6308,-4.6308,-4.6308,-4.6308,-4.6308,-4.6308,-4.6289,-4.6268,-4.6177,-4.594,-4.5885,-4.5862,-4.5809,-4.5685,-4.5594,-4.5594,-4.5594,-4.5594,-4.5594,-4.5594,-4.5594,-4.5594,-4.4836,-4.3989,-4.3181,-4.2316,-4.145,-4.0573,-4.0496,-4.0496,-4.0496,-4.0496,-4.0496,-4.0496,-4.0496,-4.0496,-4.0496,-4.0496,-4.0496,-4.0496,-4.0496,-4.0496,-4.0496,-4.0496,-4.0496,-4.1191,0.0,0.0,0.0,0.0,0.0,0.0,0.0,0.0,0.0,-4.1191,-4.1171,-4.1127,-4.1052,-4.0988,-4.092,-4.0828,-4.0738,-4.0738,-4.0668,-4.0635,-4.0635,-4.061,-4.0602,-4.0602,-4.0602,-4.0566,-4.0504,-4.0552,-4.0566,-4.0496,-4.0496,-4.0689,-4.1066,-4.1066,-4.1258,-4.1643,-4.1643,-4.1893,-4.2374,-4.2874,-4.3115,-4.313,-4.313,-4.3662,-4.4595,-4.4595,-4.4613,-4.4684,-4.4767,-4.4793,-4.4834,-4.537,-4.5566,-4.5625,-4.6113,-4.6308,-4.6308,-4.6308,-4.6308,-4.6308,-4.6308,-4.6308,-4.6308,-4.6308,-4.6308,-4.6308,-4.6308,-4.6308,-4.6308,-4.6308,-4.6308,-4.6308,-4.6308,-4.6308,-4.6268,-4.6147,-4.6072,-4.5978,-4.5881,-4.5783,-4.5715,-4.5715,-4.566,-4.5594,-4.5594,-4.5594,-4.5421,-4.4932,-4.4143,-4.3316,-4.247,-4.1585,-4.0912,-4.0535,-4.0496,-4.0496,-4.0496,-4.0496,-4.0496,-4.0496,-4.0496,-4.0496,-4.0496,-4.0496,-4.0496,-4.0496,-4.0496,-4.0496,-4.0496,-4.0496,-4.0496,0.0,0.0,0.0,0.0,0.0,0.0,0.0,0.0,0.0,0.0,-4.1191,-4.1191,-4.1191,-4.1055,-4.0922,-4.0883,-4.0752,-4.0655,-4.0655,-4.0566,-4.0496,-4.0496,-4.0496,-4.0496,-4.0496,-4.0496,-4.0496,-4.0496,-4.0496,-4.0496,-4.0496,-4.0496,-4.0496,-4.0496,-4.0496,-4.0496,-4.0496,-4.0496,-4.0843,-4.1489,-4.2124,-4.2431,-4.2431,-4.2431,-4.2509,-4.2694,-4.3155,-4.3376,-4.3413,-4.3515,-4.3556,-4.3619,-4.4365,-4.4646,-4.4724,-4.539,-4.5644,-4.5644,-4.5644,-4.5644,-4.5644,-4.5644,-4.5644,-4.5644,-4.5644,-4.5644,-4.5644,-4.5644,-4.5644,-4.5644,-4.5644,-4.5644,-4.5703,-4.5918,-4.5976,-4.6035,-4.625,-4.6199,-4.6075,-4.5974,-4.5886,-4.5826,-4.5826,-4.574,-4.566,-4.566,-4.5436,-4.5037,-4.4374,-4.3393,-4.2527,-4.1865,-4.1027,-4.0496,-4.0496,-4.0496,-4.0496,-4.0496,-4.0496,-4.0496,-4.0496,-4.0496,-4.0496,-4.0496,-4.0496,-4.0496,-4.0496,-4.0496,-4.0496,-4.0496,-4.0496,-4.0496,0.0,0.0,0.0,0.0,0.0,0.0,0.0,0.0,0.0,0.0,-4.1191,-4.1191,-4.1191,-4.099,-4.0757,-4.0561,-4.0527,-4.0512,-4.0512,-4.0504,-4.0496,-4.0496,-4.0496,-4.0496,-4.0496,-4.0496,-4.0496,-4.0496,-4.0496,-4.0496,-4.0496,-4.0496,-4.0496,-4.0496,-4.0496,-4.0496,-4.0496,-4.0496,-4.0516,-4.0573,-4.0612,-4.065,-4.065,-4.065,-4.0646,-4.0754,-4.246,-4.3271,-4.3405,-4.3413,-4.3413,-4.3424,-4.3597,-4.3677,-4.3683,-4.3806,-4.3848,-4.3848,-4.3848,-4.3848,-4.3848,-4.3848,-4.3848,-4.3848,-4.3848,-4.3848,-4.3848,-4.3848,-4.3848,-4.3848,-4.3848,-4.3848,-4.4043,-4.4863,-4.5078,-4.5293,-4.6113,-4.6199,-4.6108,-4.6084,-4.5985,-4.589,-4.589,-4.5836,-4.579,-4.579,-4.4974,-4.4355,-4.4316,-4.2874,-4.1846,-4.1788,-4.1027,-4.0496,-4.0496,-4.0496,-4.0496,-4.0496,-4.0496,-4.0496,-4.0496,-4.0496,-4.0496,-4.0496,-4.0496,-4.0496,-4.0496,-4.0496,-4.0496,-4.0496,-4.0496,-4.0496,0.0,0.0,0.0,0.0,0.0,0.0,0.0,0.0,0.0,0.0,-4.1191,-4.1149,-4.0966,-4.0864,-4.0773,-4.0703,-4.0578,-4.0496,-4.0496,-4.0496,-4.0496,-4.0496,-4.0496,-4.0496,-4.0496,-4.0496,-4.0496,-4.0496,-4.0496,-4.0496,-4.0496,-4.0496,-4.0496,-4.0496,-4.0496,-4.0496,-4.0496,-4.0496,-4.0496,-4.0496,-4.0496,-4.0496,-4.0496,-4.0496,-4.0496,-4.0535,-4.1195,-4.1498,-4.1551,-4.1626,-4.1664,-4.1737,-4.2381,-4.2682,-4.2836,-4.3417,-4.3667,-4.3691,-4.3691,-4.3691,-4.3691,-4.3691,-4.3691,-4.3691,-4.3691,-4.3691,-4.3691,-4.3691,-4.3691,-4.3691,-4.3691,-4.3691,-4.3789,-4.4082,-4.418,-4.4258,-4.4551,-4.5467,-4.6225,-4.6225,-4.6117,-4.6033,-4.6033,-4.5503,-4.5084,-4.5084,-4.424,-4.3405,-4.2883,-4.2221,-4.1585,-4.1027,-4.0689,-4.0496,-4.0496,-4.0496,-4.0496,-4.0496,-4.0496,-4.0496,-4.0496,-4.0496,-4.0496,-4.0496,-4.0496,-4.0496,-4.0496,-4.0496,-4.0496,-4.0496,-4.0496,-4.0496,-4.1191,0.0,0.0,0.0,0.0,0.0,0.0,0.0,0.0,0.0,-4.1191,-4.1149,-4.0962,-4.0864,-4.0777,-4.0713,-4.0584,-4.0496,-4.0496,-4.0496,-4.0496,-4.0496,-4.0496,-4.0496,-4.0496,-4.0496,-4.0496,-4.0496,-4.0496,0.0,-4.0496,-4.0496,-4.0496,-4.0496,-4.0496,-4.0496,-4.0496,-4.0496,-4.0496,-4.0496,-4.0496,-4.0496,-4.0496,-4.0496,-4.0496,-4.0496,-4.0496,-4.0496,-4.0504,-4.0589,-4.0636,-4.0694,-4.1378,-4.1673,-4.1848,-4.2443,-4.2692,-4.2738,-4.2786,-4.2789,-4.2809,-4.2851,-4.2851,-4.2851,-4.2851,-4.2851,-4.2851,-4.2851,-4.2851,-4.2851,-4.2851,-4.3066,-4.3262,-4.3262,-4.3496,-4.3691,-4.3691,-4.4609,-4.543,-4.543,-4.5365,-4.5293,-4.5293,-4.4757,-4.4327,-4.4327,-4.3471,-4.2646,-4.2103,-4.168,-4.1203,-4.0631,-4.0534,-4.0496,-4.0496,-4.0496,-4.0496,-4.0496,-4.0496,-4.0496,-4.0496,-4.0496,-4.0496,-4.0496,-4.0496,-4.0496,-4.0496,-4.0496,-4.0496,-4.0496,-4.0496,-4.0496,0.0,0.0,0.0,0.0,0.0,0.0,0.0,0.0,0.0,0.0,-4.1191,-4.1191,-4.1191,-4.0988,-4.0747,-4.0552,-4.0496,-4.0496,-4.0496,-4.0496,-4.0496,-4.0496,-4.0496,-4.0496,-4.0496,-4.0496,-4.0496,-4.0496,-4.0496,-4.0496,-4.0496,-4.0496,-4.0496,-4.0496,-4.0496,-4.0496,-4.0496,-4.0496,-4.0496,-4.0496,-4.0496,-4.0496,-4.0496,-4.0496,-4.0496,-4.0496,-4.0496,-4.0496,-4.0496,-4.0496,-4.0496,-4.0512,-4.063,-4.0692,-4.0715,-4.077,-4.0797,-4.0813,-4.0952,-4.0994,-4.1021,-4.115,-4.1191,-4.1191,-4.1191,-4.1191,-4.1191,-4.1191,-4.1191,-4.1191,-4.1191,-4.1777,-4.2363,-4.2363,-4.3008,-4.3633,-4.3633,-4.3633,-4.3633,-4.3691,-4.3691,-4.3691,-4.3691,-4.3619,-4.355,-4.355,-4.2708,-4.2062,-4.2062,-4.1276,-4.0703,-4.0697,-4.0575,-4.0504,-4.0496,-4.0496,-4.0496,-4.0496,-4.0496,-4.0496,-4.0496,-4.0496,-4.0496,-4.0496,-4.0496,-4.0496,-4.0496,-4.0496,-4.0496,-4.0496,-4.0496,-4.0496,-4.1191,0.0,0.0,0.0,0.0,0.0,0.0,0.0,0.0,-4.1191,-4.1191,-4.1171,-4.1078,-4.0994,-4.088,-4.0686,-4.0566,-4.0496,-4.0496,-4.0496,-4.0496,-4.0496,-4.0496,-4.0496,-4.0496,-4.0496,-4.0496,0.0,-4.0496,-4.0496,-4.0496,-4.0496,-4.0496,-4.0496,-4.0496,-4.0496,-4.0496,-4.0496,-4.0496,-4.0496,-4.0496,-4.0496,-4.0496,-4.0496,-4.0496,-4.0496,-4.0496,-4.0496,-4.0496,-4.0496,-4.0496,-4.0504,-4.0537,-4.0616,-4.0703,-4.0724,-4.0767,-4.0801,-4.0831,-4.086,-4.0874,-4.1019,-4.1054,-4.1078,-4.1171,-4.1191,-4.1191,-4.1191,-4.1191,-4.1191,-4.1191,-4.1367,-4.1523,-4.1523,-4.1719,-4.1894,-4.1894,-4.1894,-4.2246,-4.3457,-4.3691,-4.3691,-4.3691,-4.3163,-4.2731,-4.2731,-4.1922,-4.1301,-4.1301,-4.0995,-4.0757,-4.0709,-4.0681,-4.0603,-4.0504,-4.0496,-4.0496,-4.0496,-4.0496,-4.0496,-4.0496,-4.0496,-4.0496,-4.0496,-4.0496,-4.0496,-4.0496,-4.0496,-4.0496,-4.0496,-4.0496,-4.0496,0.0,0.0,0.0,0.0,0.0,0.0,-4.1191,-4.1191,-4.1191,0.0,-4.1191,-4.1171,-4.1102,-4.1048,-4.0952,-4.0832,-4.0707,-4.0597,-4.0519,-4.0496,-4.0496,-4.0496,-4.0496,-4.0496,-4.0496,-4.0496,-4.0496,-4.0496,-4.0496,-4.0496,-4.0496,-4.0496,-4.0496,-4.0496,-4.0496,-4.0496,-4.0496,-4.0496,-4.0496,-4.0496,-4.0496,-4.0496,-4.0496,-4.0496,-4.0496,-4.0496,-4.0496,-4.0496,-4.0496,-4.0496,-4.0496,-4.0496,-4.0496,-4.0545,-4.0616,-4.0616,-4.0642,-4.0671,-4.0747,-4.0767,-4.0785,-4.087,-4.0957,-4.1002,-4.1082,-4.115,-4.1191,-4.1191,-4.1191,-4.1191,-4.1191,-4.1191,-4.1191,-4.1191,-4.1191,-4.1191,-4.1191,-4.1191,-4.1484,-4.2461,-4.2656,-4.2656,-4.2656,-4.2246,-4.1894,-4.1894,-4.1422,-4.1081,-4.1081,-4.0962,-4.0877,-4.0835,-4.0786,-4.0721,-4.0635,-4.0629,-4.0629,-4.0629,-4.0597,-4.061,-4.0623,-4.0597,-4.0575,-4.0575,-4.0575,-4.0559,-4.0496,-4.0496,-4.0496,-4.0496,-4.0496,-4.0496,0.0,0.0,0.0,0.0,0.0,0.0,-4.1191,-4.1191,-4.1191,-4.1191,-4.1191,-4.1171,-4.1171,-4.1077,-4.0983,-4.0976,-4.0867,-4.0723,-4.054,-4.0527,-4.0519,-4.0496,-4.0496,-4.0496,-4.0496,-4.0496,-4.0496,-4.0496,-4.0496,-4.0496,-4.0496,-4.0496,-4.0496,-4.0496,-4.0496,-4.0496,-4.0496,-4.0496,-4.0496,-4.0496,-4.0496,-4.0496,-4.0496,-4.0496,-4.0496,-4.0496,-4.0496,-4.0496,-4.0496,-4.0496,-4.0496,-4.0496,-4.0496,-4.0496,-4.0496,-4.0496,-4.0496,-4.0519,-4.0643,-4.0674,-4.0697,-4.0761,-4.086,-4.0976,-4.0983,-4.1055,-4.1151,-4.1171,-4.1191,-4.1191,-4.1191,-4.1191,-4.1191,-4.1191,-4.1191,-4.1191,-4.1191,-4.1191,-4.1191,-4.1191,-4.1191,-4.1191,-4.1191,-4.1191,-4.1191,-4.1191,-4.1191,-4.1191,-4.1191,-4.1102,-4.1021,-4.0996,-4.0883,-4.0813,-4.0801,-4.0797,-4.0797,-4.0797,-4.0738,-4.0742,-4.0793,-4.0736,-4.0697,-4.0697,-4.0697,-4.0649,-4.0527,-4.0504,-4.0496,-4.0496,-4.0496,-4.0504,0.0,0.0,0.0,0.0,0.0,0.0,-4.1191,-4.1191,-4.1191,0.0,-4.1106,-4.1049,-4.1049,-4.0925,-4.0821,-4.0762,-4.0775,-4.077,-4.066,-4.0655,-4.0623,-4.0512,-4.0496,-4.0496,-4.0496,-4.0496,-4.0496,-4.0496,-4.0496,-4.0496,-4.0496,-4.0496,-4.0496,-4.0496,-4.0496,-4.0496,-4.0496,-4.0496,-4.0496,-4.0496,-4.0496,-4.0496,-4.0496,-4.0496,-4.0496,-4.0496,-4.0496,-4.0496,-4.0496,-4.0496,-4.0496,-4.0496,-4.0496,-4.0496,-4.0496,-4.0496,-4.0496,-4.0504,-4.0542,-4.053,-4.0566,-4.0672,-4.0745,-4.0767,-4.0824,-4.086,-4.0908,-4.1019,-4.1126,-4.1191,-4.1191,-4.1191,-4.1191,-4.1191,-4.1191,-4.1191,-4.1191,-4.1191,-4.1191,-4.1191,-4.1191,-4.1191,-4.1191,-4.1191,-4.1191,-4.1191,-4.1191,-4.1191,-4.1191,-4.1171,-4.1126,-4.1019,-4.0986,-4.0917,-4.0805,-4.0797,-4.0797,-4.0797,-4.0796,-4.0796,-4.0797,-4.0736,-4.0697,-4.0697,-4.0697,-4.0686,-4.0655,-4.0552,-4.0496,-4.0496,-4.0496,-4.0559,0.0,0.0,0.0,-4.1191,0.0,0.0,0.0,-4.1191,-4.1191,-4.1191,-4.1149,-4.108,-4.1,0.0,-4.088,-4.0771,-4.0828,-4.0839,-4.0713,-4.0726,-4.0715,-4.0616,-4.0596,-4.0561,-4.0504,-4.0496,-4.0496,-4.0496,-4.0496,-4.0496,-4.0496,-4.0496,-4.0496,-4.0496,-4.0496,-4.0496,-4.0496,-4.0496,-4.0496,-4.0496,-4.0496,-4.0496,-4.0496,-4.0496,-4.0496,-4.0496,-4.0496,-4.0496,-4.0496,-4.0496,-4.0496,-4.0496,-4.0496,-4.0496,-4.0496,-4.0496,-4.0496,-4.0496,-4.0496,-4.0496,-4.0512,-4.0588,-4.0655,-4.0715,-4.0747,-4.0775,-4.0839,-4.0959,-4.1052,-4.1126,-4.1172,-4.1191,-4.1191,-4.1191,-4.1191,-4.1191,-4.1191,-4.1191,-4.1191,-4.1191,-4.1191,-4.1191,-4.1191,-4.1191,-4.1191,-4.1191,-4.1191,-4.1191,-4.1191,-4.1191,-4.1171,-4.1104,-4.1103,-4.1077,-4.1017,-4.0996,-4.0996,-4.0996,-4.0947,-4.0925,-4.0994,-4.0909,-4.0856,-4.0856,-4.0781,-4.0747,-4.0747,-4.0679,-4.0597,-4.0504,-4.061,-4.0665,0.0,0.0,0.0,0.0,0.0,-4.1127,0.0,0.0,0.0,-4.1127,-4.1103,0.0,0.0,0.0,0.0,0.0,0.0,0.0,0.0,-4.065,0.0,-4.0674,-4.068,-4.0655,-4.0512,-4.0496,-4.0496,-4.0496,-4.0496,-4.0496,-4.0496,-4.0496,-4.0496,-4.0496,-4.0496,-4.0496,-4.0496,-4.0496,-4.0496,-4.0496,-4.0496,-4.0496,-4.0496,-4.0496,-4.0496,-4.0496,-4.0496,-4.0496,-4.0496,-4.0496,-4.0496,-4.0496,-4.0496,-4.0496,-4.0496,-4.0496,-4.0496,-4.0496,-4.0496,-4.0496,-4.0496,-4.0496,-4.0561,-4.0655,-4.0655,-4.0721,-4.0805,-4.0902,-4.095,-4.099,-4.1083,-4.1149,-4.1151,-4.1151,-4.1171,-4.1191,-4.1191,-4.1191,-4.1191,-4.1191,-4.1191,-4.1191,-4.1191,-4.1191,-4.1191,-4.1191,-4.1191,-4.1191,-4.1191,-4.1191,-4.1191,-4.1191,-4.1191,-4.1191,-4.1191,-4.1191,-4.1191,-4.1191,-4.1103,-4.1081,-4.1191,-4.1077,-4.0996,-4.0996,-4.0883,-4.0847,-4.0847,-4.0864,-4.077,-4.0556,-4.0709,-4.0779,0.0,0.0,0.0,0.0,-4.0854,0.0,0.0,0.0,-4.0854,-4.0854,0.0,0.0,0.0,0.0,0.0,0.0,0.0,0.0,-3.965,-4.0266,-4.0738,-4.0533,-4.063,-4.0655,-4.0512,-4.0496,-4.0496,-4.0496,-4.0496,-4.0496,-4.0496,-4.0496,-4.0496,-4.0496,-4.0496,-4.0496,-4.0496,-4.0496,-4.0496,-4.0496,-4.0496,-4.0496,-4.0496,-4.0496,-4.0496,-4.0496,-4.0496,-4.0496,-4.0496,-4.0496,-4.0496,-4.0496,-4.0496,-4.0496,-4.0496,-4.0496,-4.0496,-4.0496,-4.0496,-4.0496,-4.0496,-4.0496,-4.0512,-4.0527,-4.0527,-4.0616,-4.0707,-4.0724,-4.0776,-4.0839,-4.085,-4.0925,-4.1023,-4.1023,-4.1106,-4.1191,-4.1191,-4.1191,-4.1191,-4.1191,-4.1191,-4.1191,-4.1191,-4.1191,-4.1191,-4.1191,-4.1191,-4.1191,-4.1191,-4.1191,-4.1191,-4.1191,-4.1191,-4.1191,-4.1191,-4.1191,-4.1191,-4.1191,-4.1191,-4.1172,-4.1191,-4.1077,-4.0996,-4.0996,-4.099,-4.0986,-4.0986,-4.1102,-4.1021,-4.0764,-4.0789,-4.086,0.0,0.0,0.0,0.0,0.0,0.0,0.0,0.0,-4.0797,0.0,0.0,0.0,0.0,0.0,0.0,0.0,-4.0378,0.0,0.0,0.0,-4.0757,0.0,0.0,0.0,-4.0512,-4.0496,-4.0496,-4.0496,-4.0496,-4.0496,-4.0496,-4.0496,-4.0496,-4.0496,-4.0496,-4.0496,-4.0496,-4.0496,-4.0496,-4.0496,-4.0496,-4.0496,-4.0496,-4.0496,-4.0496,-4.0496,-4.0496,-4.0496,-4.0496,-4.0496,-4.0496,-4.0496,-4.0496,-4.0496,-4.0496,-4.0496,-4.0496,-4.0496,-4.0496,-4.0496,-4.0496,-4.0496,-4.0496,-4.0496,-4.0496,-4.053,-4.0596,-4.0674,-4.0724,-4.0752,-4.0781,-4.085,-4.0877,-4.0877,-4.0922,-4.0992,-4.1076,-4.1081,-4.1104,-4.1172,-4.1191,-4.1191,-4.1191,-4.1191,-4.1191,-4.1191,-4.1191,-4.1191,-4.1191,-4.1191,-4.1191,-4.1191,-4.1191,-4.1191,-4.1191,-4.1191,-4.1191,-4.1191,-4.1191,-4.1191,-4.1191,-4.1149,-4.1126,-4.1126,-4.1126,-4.1126,-4.1126,-4.1171,-4.1149,-4.1026,-4.1026,-4.1023,-4.0692,0.0,0.0,0.0,0.0,0.0,0.0,0.0,0.0,0.0,0.0,0.0,0.0,0.0,0.0,0.0,0.0,-3.9837,0.0,0.0,0.0,0.0,0.0,0.0,0.0,-4.0496,-4.0496,-4.0496,-4.0496,-4.0496,-4.0496,-4.0496,-4.0496,-4.0496,-4.0496,-4.0496,-4.0496,-4.0496,-4.0496,-4.0496,-4.0496,-4.0496,-4.0496,-4.0496,-4.0496,-4.0496,-4.0496,-4.0496,-4.0496,-4.0496,-4.0496,-4.0496,-4.0496,-4.0496,-4.0496,-4.0496,-4.0496,-4.0496,-4.0496,-4.0496,-4.0496,-4.0496,-4.0496,-4.0496,-4.0496,-4.0496,-4.0527,-4.0616,-4.0655,-4.0661,-4.0717,-4.0747,-4.077,-4.077,-4.0796,-4.0847,-4.0964,-4.0996,-4.1049,-4.1171,-4.1191,-4.1191,-4.1191,-4.1191,-4.1191,-4.1191,-4.1191,-4.1191,-4.1191,-4.1191,-4.1191,-4.1191,-4.1191,-4.1191,-4.1191,-4.1191,-4.1191,-4.1191,-4.1191,-4.1191,-4.1191,-4.1191,-4.1191,-4.1191,-4.1191,-4.1191,-4.1191,-4.1191,-4.1191,-4.1191,-4.1191,-4.115,0.0,0.0,0.0,-3.953,0.0,0.0,0.0,0.0,-3.8087,0.0,0.0,0.0,0.0,0.0,0.0,0.0,0.0,0.0,0.0,0.0,0.0,0.0,0.0,0.0,0.0,-4.0496,-4.0496,-4.0496,-4.0496,-4.0496,-4.0496,-4.0496,-4.0496,-4.0496,-4.0496,-4.0496,-4.0496,-4.0496,-4.0496,-4.0496,-4.0496,-4.0496,-4.0496,-4.0496,-4.0496,-4.0496,-4.0496,-4.0496,-4.0496,-4.0496,-4.0496,-4.0496,-4.0496,-4.0496,-4.0496,-4.0496,-4.0496,-4.0496,-4.0496,-4.0496,-4.0496,-4.0496,-4.0496,-4.0496,-4.0496,-4.0496,-4.0496,-4.0504,-4.0504,-4.0504,-4.0512,-4.061,-4.0703,-4.0703,-4.0752,-4.0847,-4.0964,-4.0996,-4.1049,-4.1171,-4.1191,-4.1191,-4.1191,-4.1191,-4.1191,-4.1191,-4.1191,-4.1191,-4.1191,-4.1191,-4.1191,-4.1191,-4.1191,-4.1191,-4.1191,-4.1191,-4.1191,-4.1191,-4.1191,-4.1191,-4.1191,-4.1191,-4.1191,-4.1191,-4.1191,-4.1191,-4.1191,-4.1191,-4.1191,-4.1191,-4.1191,-4.1191,0.0,0.0,-3.9496,-3.8642,0.0,0.0,0.0,0.0,0.0,0.0,0.0,0.0,0.0,0.0,0.0,0.0,0.0,0.0,0.0,0.0,0.0,0.0,0.0,0.0,0.0,0.0,-4.0496,-4.0496,-4.0496,-4.0496,-4.0496,-4.0496,-4.0496,-4.0496,-4.0496,-4.0496,-4.0496,-4.0496,-4.0496,-4.0496,-4.0496,-4.0496,-4.0496,-4.0496,-4.0496,-4.0496,-4.0496,-4.0496,-4.0496,-4.0496,-4.0496,-4.0496,-4.0496,-4.0496,-4.0496,-4.0496,-4.0496,-4.0496,-4.0496,-4.0496,-4.0496,-4.0496,-4.0496,-4.0496,-4.0496,-4.0496,-4.0496,-4.0496,-4.0496,-4.0496,-4.0496,-4.0523,-4.0574,-4.0574,-4.0584,-4.0635,-4.0777,-4.08,-4.0859,-4.1025,-4.1076,-4.1102,-4.1172,-4.1191,-4.1191,-4.1191,-4.1191,-4.1191,-4.1191,-4.1191,-4.1191,-4.1191,-4.1191,-4.1191,-4.1191,-4.1191,-4.1191,-4.1191,-4.1191,-4.1191,-4.1191,-4.1191,-4.1191,-4.1191,-4.1191,-4.1191,-4.1191,-4.1191,-4.1191,-4.1191,-4.1191,-4.1191,-3.8969,-3.8834,0.0,-3.7757,-3.7546,0.0,-3.718,0.0,0.0,0.0,0.0,0.0,0.0,0.0,0.0,0.0,0.0,0.0,0.0,-3.7103,0.0,0.0,0.0,0.0,0.0,0.0,-4.0189,-4.0477,-4.0496,-4.0496,-4.0496,-4.0496,-4.0496,-4.0496,-4.0496,-4.0496,-4.0496,-4.0496,-4.0496,-4.0496,-4.0496,-4.0496,-4.0496,-4.0496,-4.0496,-4.0496,-4.0496,-4.0496,-4.0496,-4.0496,-4.0496,-4.0496,-4.0496,-4.0496,-4.0496,-4.0496,-4.0496,-4.0496,-4.0496,-4.0496,-4.0496,-4.0496,-4.0496,-4.0496,-4.0496,-4.0496,-4.0496,-4.0496,-4.0496,-4.0496,-4.0496,-4.0496,-4.0496,-4.0496,-4.0496,-4.0549,-4.0667,-4.0697,-4.0751,-4.0899,-4.0922,-4.0964,-4.1104,-4.1128,-4.1149,-4.1191,-4.1191,-4.1191,-4.1191,-4.1191,-4.1191,-4.1191,-4.1191,-4.1191,-4.1191,-4.1191,-4.1191,-4.1191,-4.1191,-4.1191,-4.1191,-4.1191,-4.1191,-4.1191,-4.1191,-4.1191,-4.1191,-4.1191,-4.1191,-4.1191,-4.1191,-4.1191]},{"header":{"parameterUnit":"m.s-1","parameterCategory":1,"la1":30.6,"la2":29.2853,"lo1":-89.7004,"lo2":-87.6739,"dy":0.0162,"dx":0.0183,"nx":112,"ny":82,"refTime":"2023-07-25T06:00:00:Z","depth":0,"parameterNumber":3,"parameterNumberName":"V-component_of_WINDS"},"data":[0.0,0.0,0.0,0.0,0.0,0.0,0.0,0.0,0.0,0.0,0.0,0.0,0.0,0.0,0.0,0.0,0.0,0.0,0.0,0.0,0.0,0.0,0.0,0.0,0.0,0.0,0.0,0.0,0.0,0.0,0.0,0.0,0.0,0.0,0.0,0.0,0.0,0.0,0.0,0.0,0.0,0.0,0.0,0.0,0.0,0.0,0.0,0.0,0.0,0.0,0.0,0.0,0.0,0.0,0.0,0.0,0.0,0.0,0.0,0.0,0.0,0.0,0.0,0.0,0.0,0.0,0.0,0.0,0.0,0.0,0.0,0.0,0.0,0.0,0.0,0.0,0.0,0.0,0.0,0.0,0.0,0.0,0.0,0.0,0.0,0.0,0.0,0.0,0.0,0.0,0.0,-1.8208,-1.8105,-1.8105,-1.8105,-1.8047,-1.8008,-1.8008,0.0,0.0,0.0,0.0,0.0,0.0,0.0,0.0,0.0,0.0,0.0,0.0,0.0,0.0,0.0,0.0,0.0,0.0,0.0,0.0,0.0,0.0,0.0,0.0,0.0,0.0,0.0,0.0,0.0,0.0,0.0,0.0,0.0,0.0,0.0,0.0,0.0,0.0,0.0,0.0,0.0,0.0,0.0,0.0,0.0,0.0,0.0,0.0,0.0,0.0,0.0,0.0,0.0,0.0,0.0,0.0,0.0,0.0,0.0,0.0,0.0,0.0,0.0,0.0,0.0,0.0,0.0,0.0,0.0,0.0,0.0,0.0,0.0,0.0,0.0,0.0,0.0,0.0,0.0,0.0,0.0,0.0,0.0,0.0,0.0,0.0,0.0,0.0,0.0,0.0,0.0,0.0,0.0,0.0,0.0,0.0,0.0,0.0,0.0,0.0,0.0,0.0,0.0,0.0,-1.9613,-1.8605,-1.851,-1.851,-1.851,-1.8213,-1.8008,-1.8008,0.0,0.0,0.0,0.0,0.0,0.0,0.0,0.0,0.0,0.0,0.0,0.0,0.0,0.0,0.0,0.0,0.0,0.0,0.0,0.0,0.0,0.0,0.0,0.0,0.0,0.0,0.0,0.0,0.0,0.0,0.0,0.0,0.0,0.0,0.0,0.0,0.0,0.0,0.0,0.0,0.0,0.0,0.0,0.0,0.0,0.0,0.0,0.0,0.0,0.0,0.0,0.0,0.0,0.0,0.0,0.0,0.0,0.0,0.0,0.0,0.0,0.0,0.0,0.0,0.0,0.0,0.0,0.0,0.0,0.0,0.0,0.0,0.0,0.0,0.0,0.0,0.0,0.0,0.0,0.0,0.0,0.0,0.0,0.0,0.0,0.0,0.0,0.0,0.0,0.0,0.0,0.0,0.0,0.0,0.0,0.0,0.0,0.0,0.0,0.0,0.0,0.0,0.0,-1.9885,-1.9474,-1.902,-1.8994,-1.8994,-1.8994,-1.8594,-1.8315,-1.8315,-1.8135,0.0,0.0,0.0,0.0,0.0,0.0,0.0,0.0,0.0,0.0,0.0,0.0,0.0,0.0,0.0,0.0,0.0,0.0,0.0,0.0,0.0,0.0,0.0,0.0,0.0,0.0,0.0,0.0,0.0,0.0,0.0,0.0,0.0,0.0,0.0,0.0,0.0,0.0,0.0,0.0,0.0,0.0,0.0,0.0,0.0,0.0,0.0,0.0,0.0,0.0,0.0,0.0,0.0,0.0,0.0,0.0,0.0,0.0,0.0,0.0,0.0,0.0,0.0,0.0,0.0,0.0,0.0,0.0,0.0,0.0,0.0,0.0,0.0,0.0,0.0,0.0,0.0,0.0,0.0,0.0,0.0,0.0,0.0,0.0,0.0,0.0,0.0,0.0,0.0,0.0,0.0,0.0,0.0,0.0,0.0,0.0,0.0,0.0,0.0,0.0,0.0,0.0,-2.0447,-1.9434,-1.9434,-1.9434,-1.9434,-1.9434,-1.9043,-1.8754,-1.8754,-1.8354,0.0,0.0,0.0,0.0,0.0,0.0,0.0,0.0,0.0,0.0,0.0,0.0,0.0,0.0,0.0,0.0,0.0,0.0,0.0,0.0,0.0,0.0,0.0,0.0,0.0,0.0,0.0,0.0,0.0,0.0,0.0,0.0,0.0,0.0,0.0,0.0,0.0,0.0,0.0,0.0,0.0,0.0,0.0,0.0,0.0,0.0,0.0,0.0,0.0,0.0,0.0,0.0,0.0,0.0,0.0,0.0,0.0,0.0,0.0,0.0,0.0,0.0,0.0,0.0,0.0,0.0,0.0,0.0,0.0,0.0,0.0,0.0,0.0,0.0,0.0,0.0,0.0,0.0,0.0,0.0,0.0,0.0,0.0,0.0,0.0,0.0,0.0,0.0,0.0,0.0,0.0,0.0,0.0,0.0,0.0,0.0,0.0,0.0,0.0,0.0,0.0,0.0,-2.0515,-1.9873,-1.9873,-1.9873,-1.9873,-1.9873,-1.9482,-1.9238,-1.9238,-1.8792,0.0,0.0,0.0,0.0,0.0,0.0,0.0,0.0,0.0,0.0,0.0,0.0,0.0,0.0,0.0,0.0,0.0,0.0,0.0,0.0,0.0,0.0,0.0,0.0,0.0,0.0,0.0,0.0,0.0,0.0,0.0,0.0,0.0,0.0,0.0,0.0,0.0,0.0,0.0,0.0,0.0,0.0,0.0,0.0,0.0,0.0,0.0,0.0,0.0,0.0,0.0,0.0,0.0,0.0,0.0,0.0,0.0,0.0,0.0,0.0,0.0,0.0,0.0,0.0,0.0,0.0,0.0,0.0,0.0,0.0,0.0,0.0,0.0,0.0,0.0,0.0,0.0,0.0,0.0,0.0,0.0,0.0,0.0,0.0,0.0,0.0,0.0,0.0,0.0,0.0,0.0,0.0,0.0,0.0,0.0,0.0,0.0,0.0,0.0,0.0,0.0,0.0,-2.0941,-2.0322,0.0,-2.0322,-2.0322,-2.0322,-1.9922,-1.9678,-1.9678,0.0,0.0,0.0,0.0,0.0,0.0,0.0,0.0,0.0,0.0,0.0,0.0,0.0,0.0,0.0,0.0,0.0,0.0,0.0,0.0,0.0,0.0,0.0,0.0,0.0,0.0,0.0,0.0,0.0,0.0,0.0,0.0,0.0,0.0,0.0,0.0,0.0,0.0,0.0,0.0,0.0,0.0,0.0,0.0,0.0,0.0,0.0,0.0,0.0,0.0,0.0,0.0,0.0,0.0,0.0,0.0,0.0,0.0,0.0,0.0,0.0,0.0,0.0,0.0,0.0,0.0,0.0,0.0,0.0,0.0,0.0,0.0,0.0,0.0,0.0,0.0,0.0,0.0,0.0,0.0,0.0,0.0,0.0,0.0,0.0,0.0,0.0,0.0,0.0,0.0,0.0,0.0,0.0,0.0,0.0,0.0,0.0,0.0,0.0,0.0,0.0,0.0,-2.1517,-2.1011,-2.0605,0.0,-2.0605,-2.0605,-2.0605,-2.0293,-2.0117,-2.0117,0.0,0.0,0.0,0.0,0.0,0.0,0.0,0.0,0.0,0.0,0.0,0.0,0.0,0.0,0.0,0.0,0.0,0.0,0.0,0.0,0.0,0.0,0.0,0.0,0.0,0.0,0.0,0.0,0.0,0.0,0.0,0.0,0.0,0.0,0.0,0.0,0.0,0.0,0.0,0.0,0.0,0.0,0.0,0.0,0.0,0.0,0.0,0.0,0.0,0.0,0.0,0.0,0.0,0.0,0.0,0.0,0.0,0.0,0.0,0.0,0.0,0.0,0.0,0.0,0.0,0.0,0.0,0.0,0.0,0.0,0.0,0.0,0.0,0.0,0.0,0.0,0.0,0.0,0.0,0.0,0.0,0.0,0.0,0.0,0.0,0.0,0.0,0.0,0.0,0.0,0.0,0.0,0.0,0.0,0.0,0.0,0.0,0.0,0.0,0.0,0.0,0.0,-2.0712,-2.0605,-2.0605,-2.0605,-2.0605,-2.0605,-2.0605,-2.0605,-2.0605,0.0,0.0,0.0,0.0,0.0,0.0,0.0,0.0,0.0,0.0,0.0,0.0,0.0,0.0,0.0,0.0,0.0,0.0,0.0,0.0,0.0,0.0,0.0,0.0,0.0,0.0,0.0,0.0,0.0,0.0,0.0,0.0,0.0,0.0,0.0,0.0,0.0,0.0,0.0,0.0,0.0,0.0,0.0,0.0,0.0,0.0,0.0,0.0,0.0,0.0,0.0,0.0,0.0,0.0,0.0,0.0,0.0,0.0,0.0,0.0,0.0,0.0,0.0,0.0,0.0,0.0,0.0,0.0,0.0,0.0,0.0,0.0,0.0,0.0,0.0,0.0,0.0,0.0,0.0,0.0,0.0,0.0,0.0,0.0,0.0,0.0,0.0,0.0,0.0,0.0,0.0,0.0,0.0,0.0,0.0,0.0,0.0,0.0,0.0,0.0,0.0,0.0,0.0,-2.0644,-2.0605,-2.0605,-2.0605,-2.0605,-2.0605,-2.0605,-2.0605,-2.0605,-2.0605,0.0,0.0,0.0,0.0,0.0,0.0,0.0,0.0,0.0,0.0,0.0,0.0,0.0,0.0,0.0,0.0,0.0,0.0,0.0,0.0,0.0,0.0,0.0,0.0,0.0,0.0,0.0,0.0,0.0,0.0,0.0,0.0,0.0,0.0,0.0,0.0,0.0,0.0,0.0,0.0,0.0,0.0,0.0,0.0,0.0,0.0,0.0,0.0,0.0,0.0,0.0,0.0,0.0,0.0,0.0,0.0,0.0,0.0,0.0,0.0,0.0,0.0,0.0,0.0,0.0,0.0,0.0,0.0,0.0,0.0,0.0,0.0,0.0,0.0,0.0,0.0,0.0,0.0,0.0,0.0,0.0,0.0,0.0,0.0,0.0,0.0,0.0,0.0,0.0,0.0,0.0,0.0,0.0,0.0,0.0,0.0,0.0,0.0,0.0,0.0,0.0,0.0,-2.0605,-2.0605,-2.0605,-2.0605,-2.0605,-2.0605,-2.0605,-2.0605,-2.0605,-2.0605,0.0,0.0,0.0,0.0,0.0,0.0,0.0,0.0,0.0,0.0,0.0,0.0,0.0,0.0,0.0,0.0,0.0,0.0,0.0,0.0,0.0,0.0,0.0,0.0,0.0,0.0,0.0,0.0,0.0,0.0,0.0,0.0,0.0,0.0,0.0,0.0,0.0,0.0,0.0,0.0,0.0,0.0,0.0,0.0,0.0,0.0,0.0,0.0,0.0,0.0,0.0,0.0,0.0,0.0,0.0,0.0,0.0,0.0,0.0,0.0,0.0,0.0,0.0,0.0,0.0,0.0,0.0,0.0,0.0,0.0,0.0,0.0,0.0,0.0,0.0,0.0,0.0,0.0,0.0,0.0,0.0,0.0,0.0,0.0,0.0,0.0,0.0,0.0,0.0,0.0,0.0,0.0,0.0,0.0,0.0,0.0,0.0,0.0,0.0,0.0,0.0,0.0,-2.0605,-2.0605,-2.0605,-2.0605,-2.0605,-2.0605,-2.0605,-2.0605,-2.0605,-2.0605,0.0,0.0,0.0,0.0,0.0,0.0,0.0,0.0,0.0,0.0,0.0,0.0,0.0,0.0,0.0,0.0,0.0,0.0,0.0,0.0,0.0,0.0,0.0,0.0,0.0,0.0,0.0,0.0,0.0,0.0,0.0,0.0,0.0,0.0,0.0,0.0,0.0,0.0,0.0,0.0,0.0,0.0,0.0,0.0,0.0,0.0,0.0,0.0,0.0,0.0,0.0,0.0,0.0,0.0,0.0,0.0,0.0,0.0,0.0,0.0,-1.3754,0.0,0.0,0.0,0.0,0.0,0.0,0.0,0.0,0.0,0.0,0.0,0.0,0.0,0.0,0.0,0.0,0.0,0.0,0.0,0.0,0.0,0.0,0.0,0.0,0.0,0.0,0.0,0.0,0.0,0.0,0.0,0.0,0.0,0.0,0.0,0.0,0.0,0.0,0.0,0.0,0.0,-2.0605,-2.0605,-2.0605,-2.0605,-2.0605,-2.0605,-2.0605,-2.0605,-2.0605,-2.0605,-2.0605,0.0,0.0,0.0,0.0,0.0,0.0,0.0,0.0,0.0,0.0,0.0,0.0,0.0,0.0,0.0,0.0,0.0,0.0,0.0,0.0,0.0,0.0,0.0,0.0,0.0,0.0,0.0,0.0,0.0,0.0,0.0,0.0,0.0,0.0,0.0,0.0,0.0,0.0,0.0,0.0,0.0,0.0,0.0,0.0,0.0,0.0,0.0,0.0,0.0,0.0,0.0,0.0,0.0,0.0,0.0,0.0,0.0,0.0,0.0,0.0,-1.3476,0.0,0.0,0.0,0.0,0.0,0.0,0.0,0.0,0.0,0.0,0.0,0.0,0.0,0.0,0.0,0.0,0.0,0.0,0.0,0.0,0.0,0.0,0.0,0.0,0.0,0.0,0.0,0.0,0.0,0.0,0.0,0.0,0.0,0.0,0.0,0.0,0.0,0.0,0.0,0.0,-2.0605,-2.0605,-2.0605,-2.0605,-2.0605,-2.0605,-2.0605,-2.0605,-2.0605,-2.0605,-2.0605,0.0,0.0,0.0,0.0,0.0,0.0,0.0,0.0,0.0,0.0,0.0,0.0,0.0,0.0,0.0,0.0,0.0,0.0,0.0,0.0,0.0,0.0,0.0,0.0,0.0,0.0,0.0,0.0,0.0,0.0,0.0,0.0,0.0,0.0,0.0,0.0,0.0,0.0,0.0,0.0,0.0,0.0,0.0,0.0,0.0,0.0,0.0,0.0,0.0,0.0,0.0,0.0,0.0,-1.4088,-1.4088,-1.4088,-1.4088,-1.4088,-1.4062,-1.3574,-1.3786,-1.451,-1.451,0.0,0.0,0.0,0.0,0.0,0.0,0.0,0.0,0.0,0.0,0.0,0.0,0.0,0.0,0.0,0.0,0.0,0.0,0.0,0.0,0.0,0.0,0.0,0.0,-2.0605,-2.0605,-2.0605,0.0,0.0,0.0,0.0,0.0,0.0,0.0,0.0,0.0,0.0,0.0,-2.0605,-2.0605,-2.0605,-2.0605,-2.0605,-2.0605,-2.0605,-2.0605,-2.0605,-2.0605,-2.0605,-2.0605,0.0,0.0,0.0,0.0,0.0,0.0,0.0,0.0,0.0,0.0,0.0,0.0,0.0,0.0,0.0,0.0,0.0,0.0,0.0,0.0,0.0,0.0,0.0,0.0,0.0,0.0,0.0,0.0,0.0,0.0,0.0,0.0,-1.3166,-1.3206,0.0,0.0,0.0,0.0,0.0,0.0,0.0,0.0,0.0,0.0,0.0,0.0,0.0,-1.4088,-1.4088,-1.4088,-1.4088,-1.4088,-1.4088,-1.4088,-1.4088,-1.4088,-1.4088,-1.4082,-1.4008,0.0,-1.417,-1.417,0.0,0.0,0.0,0.0,0.0,0.0,0.0,0.0,0.0,0.0,0.0,0.0,0.0,0.0,0.0,0.0,0.0,0.0,0.0,0.0,0.0,0.0,-2.0605,-2.0605,-2.0605,-2.0605,0.0,-2.0605,-2.0605,-2.0605,-2.0605,0.0,0.0,0.0,0.0,0.0,0.0,0.0,-2.0605,-2.0605,-2.0605,-2.0605,-2.0605,-2.0605,-2.0605,-2.0605,-2.0605,-2.0605,-2.0605,-2.0605,-2.0605,-2.0605,0.0,0.0,0.0,0.0,0.0,0.0,0.0,0.0,0.0,0.0,0.0,0.0,0.0,0.0,0.0,0.0,0.0,0.0,0.0,0.0,0.0,0.0,0.0,0.0,0.0,0.0,0.0,0.0,0.0,-1.3413,-1.3473,-1.3687,-1.3707,-1.3754,0.0,0.0,0.0,0.0,0.0,0.0,0.0,0.0,0.0,-1.4088,-1.4088,-1.4088,-1.4088,-1.4088,-1.4088,-1.4088,-1.4088,-1.4088,-1.4088,-1.4088,-1.4088,-1.4088,-1.4088,-1.4088,-1.4088,-1.4088,-1.4088,-1.4088,0.0,0.0,0.0,0.0,-1.5462,-1.656,-1.7658,-1.847,-1.9195,-2.0245,0.0,0.0,0.0,0.0,0.0,0.0,0.0,-2.044,0.0,0.0,-1.952,-1.8908,-1.8749,-1.8749,-1.8749,-1.8749,-1.9107,0.0,-2.0118,-1.9883,-2.0489,0.0,0.0,0.0,0.0,-2.0605,-2.0605,-2.0605,-2.0605,-2.0605,-2.0605,-2.0605,-2.0605,-2.0605,-2.0605,-2.0605,-2.0605,-2.0605,-2.0605,-2.0605,-2.0789,0.0,0.0,0.0,0.0,0.0,0.0,0.0,0.0,0.0,0.0,0.0,0.0,0.0,0.0,0.0,0.0,0.0,0.0,0.0,0.0,0.0,0.0,0.0,0.0,0.0,0.0,0.0,0.0,-1.372,-1.3841,-1.4062,-1.4088,-1.4088,0.0,0.0,0.0,0.0,0.0,0.0,-1.4088,-1.4088,-1.4088,-1.4088,-1.4088,-1.4088,-1.4088,-1.4088,-1.4088,-1.4088,-1.4088,-1.4088,-1.4088,-1.4088,-1.4088,-1.4088,-1.4088,-1.4088,-1.4088,-1.4088,-1.4088,-1.4088,-1.4088,-1.4088,-1.4088,-1.4088,-1.4615,-1.5421,-1.6519,-1.7455,-1.8341,-1.9392,-1.9962,-2.0196,-2.0196,0.0,0.0,0.0,0.0,-2.0401,-1.9599,-1.9204,-1.8798,-1.7948,-1.7496,-1.7302,-1.7302,-1.709,-1.7455,0.0,-1.9116,-1.8917,-2.0001,0.0,0.0,0.0,0.0,-2.0605,-2.0605,-2.0605,-2.0605,-2.0605,-2.0605,-2.0605,-2.0605,-2.0605,-2.0605,-2.0605,-2.0605,-2.0605,-2.0605,-2.0605,-2.0605,-2.0605,0.0,0.0,0.0,0.0,0.0,0.0,0.0,0.0,0.0,0.0,0.0,0.0,0.0,0.0,0.0,0.0,0.0,0.0,0.0,0.0,0.0,0.0,0.0,0.0,0.0,0.0,0.0,0.0,0.0,-1.4088,-1.4088,0.0,0.0,0.0,0.0,-1.4088,-1.4088,-1.4088,-1.4088,-1.4088,-1.4088,-1.4088,-1.4088,-1.4088,-1.4088,-1.4088,-1.4088,-1.4088,-1.4088,-1.4088,-1.4088,-1.4088,-1.4088,-1.4088,-1.4088,-1.4088,-1.4088,-1.4088,-1.4088,-1.4088,-1.4088,-1.4088,-1.4088,-1.4088,-1.4124,-1.4328,-1.5421,-1.582,-1.6026,-1.7131,-1.8189,-1.9076,-1.9076,-1.9795,0.0,0.0,-2.0605,-2.0605,-2.0518,-1.9766,-1.9006,-1.8917,-1.8109,-1.7302,-1.7302,-1.6519,-1.6108,0.0,-1.7415,-1.7747,-1.8877,0.0,-1.9441,-2.045,-2.0605,-2.0605,-2.0605,-2.0605,-2.0605,-2.0605,-2.0605,-2.0605,-2.0605,-2.0605,-2.0605,-2.0605,-2.0605,-2.0605,-2.0605,-2.0605,-2.0605,-2.0605,-2.0605,0.0,0.0,0.0,0.0,0.0,0.0,0.0,0.0,0.0,0.0,0.0,0.0,0.0,0.0,0.0,0.0,0.0,0.0,0.0,0.0,0.0,0.0,0.0,0.0,0.0,0.0,0.0,0.0,-1.4088,-1.4088,0.0,-1.4088,-1.4088,-1.4088,-1.4088,-1.4088,-1.4088,-1.4088,-1.4088,-1.4088,-1.4088,-1.4088,-1.4088,-1.4088,-1.4088,-1.4088,-1.4088,-1.4088,-1.4088,-1.4088,-1.4088,-1.4088,-1.4088,-1.4088,-1.4088,-1.4088,-1.4088,-1.4088,-1.4088,-1.4088,-1.4088,-1.4088,-1.4088,-1.4088,-1.425,-1.5338,-1.5696,-1.5861,-1.6968,-1.7577,-1.8029,-1.8798,-1.9283,-1.9717,-2.0401,-2.0605,-2.0284,-1.8868,-1.8181,-1.7545,-1.6165,-1.5553,-1.5228,-1.5228,-1.4943,-1.4776,-1.5186,-1.6363,-1.7859,-1.9717,-2.004,-2.0157,-2.0527,-2.0605,-2.0605,-2.0605,-2.0605,-2.0605,-2.0605,-2.0605,-2.0605,-2.0605,-2.0605,-2.0605,-2.0605,-2.0605,-2.0605,-2.0605,-2.0605,-2.0605,-2.0605,-2.0605,-2.1151,0.0,0.0,0.0,0.0,0.0,0.0,0.0,0.0,0.0,0.0,0.0,0.0,0.0,0.0,0.0,0.0,0.0,0.0,0.0,0.0,0.0,0.0,0.0,0.0,0.0,0.0,-1.4088,-1.4088,-1.4088,-1.4088,-1.4088,-1.4088,-1.4088,-1.4088,-1.4088,-1.4088,-1.4088,-1.4182,-1.4229,-1.4229,-1.4329,-1.4382,-1.4382,-1.4382,-1.4382,-1.4382,-1.4382,-1.4382,-1.4382,-1.4382,-1.4382,-1.4382,-1.4382,-1.4382,-1.4382,-1.4382,-1.4382,-1.4362,-1.4162,-1.4088,-1.4088,-1.4088,-1.4088,-1.4208,-1.4894,-1.5179,-1.5262,-1.6,-1.6486,-1.6887,-1.7658,-1.8149,-1.855,-1.9274,-1.9471,-1.9146,-1.7658,-1.7009,-1.6396,-1.4977,-1.437,-1.4088,-1.4088,-1.4088,-1.4208,-1.4573,-1.5794,-1.7334,-1.9186,-1.9795,-2.0167,-2.0566,-2.0605,-2.0605,-2.0605,-2.0605,-2.0605,-2.0605,-2.0605,-2.0605,-2.0605,-2.0605,-2.0605,-2.0605,-2.0605,-2.0605,-2.0605,-2.0605,-2.0605,-2.0605,-2.0895,-2.1231,-2.1517,0.0,0.0,0.0,0.0,0.0,0.0,0.0,0.0,0.0,0.0,0.0,0.0,0.0,0.0,0.0,0.0,0.0,0.0,0.0,0.0,0.0,0.0,0.0,-1.4088,-1.4088,-1.4088,-1.4088,-1.4088,-1.4088,-1.4088,-1.4088,-1.4088,-1.4102,-1.4102,-1.4108,-1.4115,-1.4382,-1.4536,-1.4536,-1.481,-1.5008,-1.5008,-1.5008,-1.5008,-1.5008,-1.5008,-1.5008,-1.5008,-1.5008,-1.5008,-1.5008,-1.5008,-1.5008,-1.5008,-1.5008,-1.5008,-1.4948,-1.4329,-1.4102,-1.4095,-1.4088,-1.4088,-1.4088,-1.4088,-1.4088,-1.4088,-1.4088,-1.4817,-1.5662,-1.5703,-1.6437,-1.7261,-1.7293,-1.7302,-1.7293,-1.7261,-1.6478,-1.5696,-1.5662,-1.4852,-1.4088,-1.4088,-1.4088,-1.4412,-1.5462,-1.5696,-1.6026,-1.7131,-1.823,-1.9323,-2.0323,-2.0489,0.0,-2.0566,-2.0557,-2.0566,-2.0605,-2.0605,-2.0605,-2.0605,-2.0605,-2.0605,-2.0605,-2.0605,-2.0605,-2.0605,-2.0605,-2.0605,-2.0605,-2.1479,-2.1517,-2.0644,0.0,0.0,0.0,0.0,0.0,0.0,0.0,0.0,0.0,0.0,0.0,0.0,0.0,0.0,0.0,0.0,0.0,0.0,0.0,0.0,0.0,0.0,-1.4088,-1.4088,-1.4088,-1.4088,-1.4088,-1.4088,-1.4088,-1.4088,-1.4088,-1.4175,-1.4389,-1.4402,-1.4496,-1.4754,-1.4796,-1.4843,-1.4843,-1.4961,-1.5008,-1.5008,-1.5008,-1.5008,-1.5008,-1.5008,-1.5008,-1.5008,-1.5008,-1.5008,-1.5008,-1.5008,-1.5008,-1.5008,-1.5008,-1.5008,-1.4975,-1.4549,-1.4402,-1.4376,-1.4168,-1.4088,-1.4088,-1.4088,-1.4088,-1.4088,-1.4088,-1.4292,-1.4699,-1.5455,-1.5902,-1.6314,-1.709,-1.7302,-1.7131,-1.6355,-1.5902,-1.5496,-1.4734,-1.4328,-1.4088,-1.4088,-1.4088,-1.4173,-1.4489,-1.5179,-1.6026,-1.7131,-1.7545,-1.7868,-1.8141,-1.8221,0.0,-1.9313,-1.9441,-1.9717,-2.0527,-2.0605,-2.0605,-2.0605,-2.0605,-2.0605,-2.0605,-2.0605,-2.0605,-2.0605,-2.0605,-2.0605,-2.0605,-2.0857,-2.1193,0.0,0.0,0.0,0.0,0.0,0.0,0.0,0.0,0.0,0.0,0.0,0.0,0.0,0.0,0.0,0.0,0.0,0.0,0.0,0.0,0.0,0.0,-1.4088,-1.4088,-1.4088,-1.4088,-1.4088,-1.4088,-1.4088,-1.4135,-1.4255,-1.4269,-1.4166,-1.3907,-1.3882,-1.3957,-1.416,-1.4281,-1.463,-1.5324,-1.5491,-1.5618,-1.5691,-1.5691,-1.5691,-1.5691,-1.5691,-1.5691,-1.5691,-1.5691,-1.5691,-1.5685,-1.5611,-1.5558,-1.5551,-1.5378,-1.5331,-1.5284,0.0,0.0,0.0,0.0,-1.4499,-1.4499,-1.4499,-1.4499,-1.4436,-1.4309,-1.4269,-1.437,-1.4853,-1.5019,-1.5179,-1.5794,-1.5959,-1.5835,-1.5179,-1.5019,-1.4852,-1.425,-1.4088,-1.4088,-1.4088,-1.4088,-1.4088,-1.4088,-1.4615,0.0,-1.5835,-1.669,-1.7302,-1.7302,-1.7302,-1.7545,-1.8189,-1.8718,-1.9244,-1.9844,-2.0323,-2.0605,-2.0605,-2.0605,0.0,0.0,0.0,-2.0605,-2.0605,-2.0605,0.0,0.0,0.0,-2.0857,-2.1413,-2.1413,0.0,0.0,-2.3423,-2.3909,0.0,0.0,0.0,0.0,0.0,0.0,0.0,0.0,0.0,0.0,0.0,0.0,0.0,0.0,0.0,0.0,-1.4088,-1.4095,-1.4128,-1.4135,-1.4135,-1.4135,-1.4135,-1.4249,-1.4543,-1.4432,-1.3964,-1.3132,-1.2945,-1.2883,-1.2911,0.0,0.0,0.0,0.0,-1.6292,-1.67,-1.6707,-1.6707,-1.6707,-1.6707,-1.6707,-1.6707,-1.6707,-1.6707,-1.6693,-1.6433,-1.6375,-1.6299,-1.6032,-1.5864,-1.5825,-1.5237,-1.5035,-1.5008,-1.5008,-1.5008,-1.5008,-1.5008,0.0,0.0,-1.4656,-1.4569,-1.4522,-1.4262,-1.4188,-1.4188,-1.4188,-1.4188,-1.4188,-1.4188,-1.4188,-1.4188,-1.4188,-1.4188,-1.4175,-1.4142,-1.4135,-1.4128,-1.4095,-1.4088,-1.4088,-1.4088,-1.5677,-1.6935,-1.6935,-1.7058,-1.7131,-1.7131,-1.823,-1.8997,-1.8997,0.0,0.0,-2.0605,-2.0605,-2.0605,-2.0605,-2.0605,-2.0605,-2.0605,-2.0605,-2.0605,-2.0605,-2.0605,-2.0605,-2.0605,-2.0605,-2.1039,-2.1886,-2.285,-2.3134,0.0,0.0,0.0,0.0,0.0,0.0,0.0,0.0,0.0,0.0,0.0,0.0,0.0,0.0,0.0,-1.4088,-1.4088,-1.4168,-1.4402,-1.4436,-1.4436,-1.4436,-1.4436,-1.4549,-1.485,-1.3905,-1.328,-1.3298,-1.2463,-1.2078,-1.2361,-1.2489,-1.3238,-1.4701,-1.4805,-1.5419,-1.6707,-1.6707,-1.6707,-1.6707,0.0,0.0,-1.6707,-1.6707,-1.6707,-1.67,-1.6647,-1.662,-1.662,-1.656,-1.64,-1.6126,-1.5545,-1.517,-1.5008,-1.5008,-1.5008,-1.5008,-1.5008,-1.5008,-1.4995,-1.4941,-1.4877,-1.4914,-1.4854,-1.4841,0.0,-1.4841,-1.4841,-1.4841,-1.4841,-1.4841,-1.4841,-1.4841,-1.4841,-1.473,-1.4489,-1.4436,-1.4369,-1.4135,-1.4088,-1.4088,-1.4088,-1.4454,-1.4699,-1.4699,-1.5462,-1.6026,-1.6026,-1.7779,-1.8997,-1.8997,-1.9962,-2.0605,-2.0605,-2.0605,-2.0605,-2.0605,-2.0605,-2.0605,-2.0605,-2.0605,-2.0605,-2.0605,-2.0605,-2.0605,-2.0605,-2.0605,-2.0673,-2.0895,-2.1849,-2.2648,0.0,0.0,0.0,0.0,0.0,0.0,0.0,0.0,0.0,0.0,0.0,-1.4088,0.0,0.0,-1.4088,-1.4088,-1.4208,-1.4355,-1.4496,-1.4649,-1.4743,-1.4743,-1.4743,-1.4627,-1.4259,-1.3658,-1.2936,-1.1866,-1.1345,-1.1111,-1.1314,-1.1363,-1.2085,-1.3593,-1.4379,-1.5164,-1.6033,-1.6774,-1.7141,-1.7141,-1.7141,-1.7141,-1.7141,-1.7141,-1.7141,-1.7134,-1.6994,-1.6927,-1.6914,-1.6767,-1.662,-1.646,-1.6166,-1.5778,-1.5398,-1.5398,-1.5398,-1.5398,-1.5398,-1.5398,-1.5371,-1.5224,-1.5177,-1.5202,-1.5055,-1.5008,-1.5008,-1.5008,-1.5008,-1.5008,-1.5008,-1.5008,-1.5008,-1.5008,-1.5008,-1.4968,-1.4776,-1.4743,-1.4696,-1.4599,-1.4409,-1.4302,-1.4302,-1.4182,-1.4088,-1.4088,-1.4573,-1.4894,-1.4894,-1.6805,-1.8149,-1.8149,-1.9638,-2.0605,-2.0605,-2.0605,-2.0605,-2.0605,-2.0605,-2.0605,-2.0605,-2.0605,-2.0605,-2.0605,-2.0605,-2.0605,-2.0605,-2.0605,-2.0605,-2.0605,-2.1078,-2.1555,0.0,0.0,0.0,0.0,0.0,0.0,0.0,0.0,-1.4088,-1.4088,-1.4088,-1.4088,-1.4088,-1.4088,-1.4108,-1.4162,-1.4369,-1.4563,-1.4676,-1.4897,-1.5,-1.4832,-1.4793,-1.4446,-1.3614,-1.3247,-1.2285,-1.0403,-1.0135,-1.0084,-1.0084,-1.0116,-1.0826,-1.2409,-1.363,-1.4467,-1.4984,-1.6446,-1.7147,-1.7206,-1.7477,-1.7582,-1.7582,-1.7582,-1.7582,-1.7569,-1.7387,-1.7286,-1.7266,-1.6974,-1.684,-1.6794,-1.6794,-1.6466,-1.5992,-1.5939,-1.5912,-1.5905,-1.5798,-1.5784,-1.5744,-1.5558,-1.5478,-1.5438,-1.5204,-1.5182,-1.5182,-1.5182,-1.5182,-1.5182,-1.5182,-1.5182,-1.5182,-1.5182,-1.5182,-1.5162,-1.5109,-1.5095,-1.5075,-1.5022,-1.477,-1.4603,-1.4603,-1.4362,-1.4155,-1.4095,-1.4292,-1.4328,-1.413,-1.5959,-1.7212,-1.7009,-1.8789,-2.004,-2.0284,-2.0479,-2.0605,-2.0605,-2.0605,-2.0605,-2.0605,-2.0605,-2.0605,-2.0605,-2.0605,-2.0605,-2.0605,-2.0605,-2.0605,-2.0605,-2.0605,-2.0605,-1.4088,-1.4088,-1.4088,-1.4088,-1.4088,-1.4088,0.0,0.0,-1.4088,-1.4088,-1.4088,-1.4088,-1.4088,-1.4088,-1.4168,-1.4429,-1.4496,-1.4703,-1.5224,-1.5324,-1.5065,-1.4285,-1.3991,-1.3902,-1.4007,-1.2041,-1.0647,-1.041,-0.9436,-0.8897,-0.8897,-0.9029,-0.976,-1.1235,-1.1452,-1.2163,-1.3534,-1.4931,-1.563,-1.5689,-1.6982,-1.7582,-1.7582,-1.7582,-1.7582,-1.7582,-1.7549,-1.7535,-1.7528,-1.7495,-1.7387,-1.7152,-1.7152,-1.6901,-1.6573,-1.6319,-1.6226,-1.6186,-1.5919,-1.5784,-1.5778,-1.5792,-1.5785,-1.5724,-1.5745,-1.5732,-1.5732,-1.5732,-1.5732,-1.5732,-1.5732,-1.5732,-1.5732,-1.5732,-1.5732,-1.5665,-1.5404,-1.5351,-1.5271,-1.5062,-1.4981,-1.4961,-1.4961,-1.4669,-1.4382,-1.4128,-1.4894,-1.5179,-1.4208,-1.5959,-1.6927,-1.5985,-1.6968,-1.8069,-1.9076,-2.004,-2.0605,-2.0605,-2.0605,-2.0605,-2.0605,-2.0605,-2.0605,-2.0605,-2.0605,-2.0605,-2.0605,-2.0605,-2.0605,-2.0605,-2.0605,-2.0605,-1.4088,-1.4088,0.0,0.0,-1.4088,-1.4088,-1.4088,-1.4088,-1.4088,-1.4088,-1.4088,-1.4088,-1.4088,-1.4222,-1.4382,0.0,-1.481,-1.5117,-1.5364,-1.4965,-1.4522,-1.4144,-1.2824,-1.195,-1.1958,-1.1119,-1.0241,-0.9455,-0.9021,-0.879,-0.879,-0.8848,-0.921,-0.9805,-1.0672,-1.1378,-1.2023,-1.3426,-1.418,-1.418,-1.4776,-1.553,-1.628,-1.547,-1.553,-1.6393,-1.7252,-1.7582,-1.7582,-1.7582,-1.7508,-1.7454,-1.7454,-1.7321,-1.7161,-1.6693,-1.6526,-1.6506,-1.638,-1.6339,-1.6339,-1.6339,-1.6339,-1.6339,-1.6339,-1.6219,-1.6086,-1.6086,-1.5965,-1.5784,-1.5784,-1.5784,-1.5784,-1.5784,-1.5784,-1.5751,-1.5671,-1.5651,-1.5611,-1.5491,-1.5331,-1.5217,-1.5217,-1.497,-1.4683,-1.4382,-1.4564,-1.4615,-1.4166,-1.5428,-1.6437,-1.6601,-1.7009,-1.7496,-1.798,-1.9036,-1.9687,-1.9687,-2.0245,-2.0605,-2.0605,-2.0605,-2.0605,-2.0605,-2.0605,-2.0605,-2.0605,-2.0605,-2.0605,-2.0605,-2.0605,-2.0605,-1.4088,0.0,0.0,-1.4088,-1.4088,-1.4088,-1.4088,-1.4088,-1.4088,-1.4088,-1.4088,-1.4115,-1.4195,-1.4382,-1.4532,-1.4736,-1.5117,-1.5279,-1.5026,-1.4479,-1.3844,-1.3157,-1.1671,-1.0535,-1.003,-1.0141,-0.9792,-0.8825,-0.8821,-0.8885,-0.8885,-0.8885,-0.8902,-0.8994,-1.0038,-1.0603,-1.0655,-1.2082,-1.2788,-1.2788,-1.3227,-1.3907,-1.4817,-1.3781,-1.3857,-1.4877,-1.5962,-1.6393,-1.6393,-1.6393,-1.6664,-1.6988,-1.6988,-1.7259,-1.7528,-1.7101,-1.6894,-1.6814,-1.6734,-1.6707,-1.6707,-1.6707,-1.6707,-1.6707,-1.6707,-1.656,-1.6393,-1.6393,-1.6239,-1.6072,-1.6072,-1.6012,-1.5952,-1.5952,-1.5885,-1.5784,-1.5784,-1.5784,-1.5784,-1.5784,-1.5658,-1.5518,-1.5518,-1.5277,-1.501,-1.4796,-1.4442,-1.4175,-1.4095,-1.4776,-1.5545,-1.6322,-1.6683,-1.6846,-1.6846,-1.8181,-1.8997,-1.8997,-2.0001,-2.0605,-2.0605,-2.0605,-2.0605,-2.0605,-2.0605,-2.0605,-2.0605,-2.0605,-2.0605,-2.0605,-2.0605,-2.0605,0.0,0.0,-1.4088,-1.4088,-1.4088,-1.4088,-1.4088,-1.4088,-1.4088,-1.4088,-1.4088,-1.4175,-1.4456,-1.4466,-1.4703,-1.5277,-1.5384,-1.5066,-1.407,-1.4047,-1.3202,-1.0824,-1.0607,-1.0266,0.0,-0.8927,-0.893,-0.8875,-0.8881,-0.8885,-0.8885,-0.8885,-0.9001,-0.92,-0.9257,-0.9329,-0.9422,-1.0843,-1.1523,-1.1581,-1.2994,-1.3622,-1.3528,-1.3366,-1.3318,-1.3372,-1.3426,-1.3426,-1.3426,-1.3426,-1.4234,-1.547,-1.547,-1.6333,-1.7582,-1.7562,-1.7427,-1.7146,-1.6807,-1.6707,-1.6707,-1.6707,-1.6707,-1.6707,-1.6707,-1.67,-1.6693,-1.6693,-1.6687,-1.668,-1.668,-1.6473,-1.6259,-1.6259,-1.6039,-1.5784,-1.5784,-1.5784,-1.5784,-1.5784,-1.5771,-1.5764,-1.5764,-1.5578,-1.5384,-1.5371,-1.4877,-1.4402,-1.4122,-1.413,-1.4166,-1.4173,-1.5137,-1.5737,-1.5737,-1.7738,-1.8997,-1.8997,-2.0001,-2.0605,-2.0605,-2.0605,-2.0605,-2.0605,-2.0605,-2.0605,-2.0605,-2.0605,-2.0605,-2.0605,-2.0605,-2.0605,0.0,0.0,-1.4088,-1.4088,-1.4088,-1.4088,-1.4088,-1.4088,-1.4088,-1.4088,-1.4242,-1.4402,-1.4502,-1.4836,-1.5164,-1.5364,-1.4837,-1.4308,-1.3962,-1.2602,-1.1341,-1.0487,-0.9873,0.0,0.0,0.0,0.0,-0.8885,-0.8885,-0.8981,-0.9076,-0.9083,-0.915,-0.93,-0.9361,-0.9327,-0.9381,-0.9896,-1.0124,-1.012,-1.154,-1.1667,-1.0711,-1.2589,-1.2864,-1.1914,-1.2891,-1.3318,-1.3318,-1.3318,-1.3588,-1.4019,-1.4019,-1.4288,-1.4776,-1.4776,-1.5258,-1.6132,-1.7003,-1.7288,-1.7288,-1.7288,-1.7288,-1.7288,-1.7288,-1.7154,-1.7052,-1.7052,-1.6854,-1.6707,-1.6707,-1.6633,-1.656,-1.656,-1.6333,-1.6126,-1.6126,-1.5972,-1.5784,-1.5784,-1.5784,-1.5784,-1.5784,-1.5752,-1.5618,-1.5424,-1.4897,-1.4416,-1.4122,-1.4088,-1.4088,-1.4088,-1.4412,-1.4657,-1.4657,-1.665,-1.7868,-1.7868,-1.959,-2.0605,-2.0605,-2.0605,-2.0605,-2.0605,-2.0605,-2.0605,-2.0605,-2.0605,-2.0605,-2.0605,-2.0605,-2.0605,-1.4088,-1.4088,-1.4088,-1.4088,-1.4088,-1.4088,-1.4088,-1.4088,-1.4088,-1.4088,-1.4315,-1.4556,-1.4663,-1.507,-1.5431,-1.5531,-1.464,-1.3728,-1.3247,-1.1565,-1.0236,-0.9771,-0.9233,-0.8885,0.0,0.0,0.0,-0.8885,-0.8988,-0.9055,-0.9204,-0.9262,-0.9361,-0.9459,-0.9462,-0.9486,-0.9537,-0.9537,-0.9537,-0.9537,-1.0409,-1.0323,-0.9428,-1.1236,-1.1436,-1.0493,-1.1418,-1.1818,-1.1755,-1.1755,-1.2023,-1.2512,-1.2512,-1.2837,-1.3318,-1.3318,-1.3857,-1.4776,-1.5743,-1.6387,-1.6823,-1.6823,-1.6823,-1.6929,-1.7417,-1.7507,-1.7353,-1.7353,-1.7168,-1.7021,-1.7021,-1.6941,-1.6867,-1.6867,-1.664,-1.64,-1.6342,-1.6119,-1.5952,-1.5804,-1.5784,-1.5784,-1.5784,-1.5784,-1.5732,-1.5438,-1.5077,-1.4689,-1.4295,-1.4155,-1.4088,-1.4088,-1.4088,-1.4088,-1.4088,-1.5711,-1.6887,-1.7302,-1.8621,-1.9795,-2.0566,-2.0235,-2.0206,-2.0605,-2.0605,-2.0605,-2.0605,-2.0605,-2.0605,-2.0605,-2.0605,-2.0605,-1.4088,-1.4088,-1.4088,-1.4088,-1.4088,-1.4088,-1.4088,-1.4088,-1.4088,-1.4108,-1.4342,-1.4636,0.0,0.0,-1.5465,-1.5684,-1.4609,-1.3343,-1.1994,-1.0909,-0.9868,0.0,0.0,0.0,0.0,0.0,0.0,-0.8885,0.0,-0.9214,-0.9221,-0.931,-0.9462,-0.9615,-0.9618,-0.9686,-0.9819,-0.9822,-0.9822,-0.9819,-0.9686,-0.9615,-0.9605,-0.9459,-0.931,-0.9221,-0.9221,-0.9083,-0.8895,-0.8895,-0.9761,-1.1,-1.1,-1.1864,-1.3048,-1.3048,-1.3102,-1.3156,-1.3102,-1.4073,-1.531,-1.531,-1.531,-1.5524,-1.6988,-1.7364,-1.7364,-1.7364,-1.7417,-1.7477,-1.7477,-1.7323,-1.7226,-1.7226,-1.6947,-1.6653,-1.638,-1.6342,-1.6186,-1.5905,-1.5791,-1.5784,-1.5784,-1.5784,-1.5684,-1.5464,-1.5404,-1.5184,-1.4596,-1.4282,-1.4108,-1.4088,-1.4088,-1.4088,-1.4088,-1.5095,-1.615,-1.7131,-1.7253,-1.8221,-2.0362,-1.9441,-1.9402,-2.0401,-2.044,-2.044,-2.0527,-2.0527,-2.0566,-2.0605,-2.0605,-2.0605,-1.4088,-1.4088,-1.4088,-1.4088,-1.4088,-1.4088,-1.4088,-1.4088,-1.4148,-1.4362,-1.4643,-1.4937,0.0,0.0,0.0,-1.4549,-1.3253,0.0,-1.0681,-0.9555,0.0,-0.8521,0.0,-0.8815,-0.8871,-0.8885,0.0,0.0,-0.9072,-0.9258,-0.9317,-0.9466,-0.9618,-0.9764,-0.9768,-0.9785,-0.9822,-0.9822,-0.9822,-0.9822,-0.9785,-0.971,-0.9608,-0.9568,-0.9466,-0.9323,-0.9323,-0.9235,-0.9096,-0.9096,-0.9255,-0.9482,-0.9482,-0.9699,-1.0021,-1.0021,-1.0726,-1.1483,-1.0402,-1.1701,-1.3857,-1.3857,-1.3857,-1.3911,-1.4288,-1.4395,-1.4395,-1.4395,-1.515,-1.5956,-1.5956,-1.6713,-1.7521,-1.7521,-1.73,-1.7065,-1.6991,-1.6636,-1.6253,-1.6172,-1.5979,-1.5784,-1.5784,-1.5784,-1.5758,-1.5732,-1.5531,-1.5184,-1.4596,-1.4456,-1.4322,-1.4108,-1.4088,-1.4088,-1.4088,-1.5095,-1.582,-1.6108,-1.6846,-1.7536,-1.8101,-1.7859,-1.7859,-1.8141,-1.8141,-1.855,-1.9402,-1.9402,-1.9805,-2.0605,-2.0605,-2.0605,-1.4088,-1.4088,-1.4088,-1.4088,-1.4088,-1.4088,-1.4088,-1.4182,-1.4322,-1.4489,-1.4856,0.0,0.0,0.0,0.0,0.0,0.0,0.0,-1.0194,-0.9021,-0.8374,0.0,-0.8618,0.0,-0.8868,-0.8885,-0.8885,0.0,-0.9133,-0.9347,-0.9374,-0.9585,-0.9737,-0.9819,-0.9822,-0.9822,-0.9822,-0.9822,-0.9822,-0.9822,-0.9822,-0.9778,-0.9703,-0.9703,-0.9622,-0.9483,0.0,-0.9395,-0.9309,-0.9309,-0.9205,-0.9127,-0.9059,-0.9032,-0.9025,-0.8905,-0.9427,-1.0025,-0.921,-0.997,-1.1487,-1.2132,-1.2349,-1.2457,-1.3102,-1.3318,-1.3318,-1.3318,-1.3857,-1.4502,-1.4502,-1.5097,-1.5849,-1.6499,-1.6544,-1.6554,-1.7071,-1.6837,-1.6386,-1.6126,-1.5945,-1.5784,-1.5784,-1.5784,-1.5784,-1.5784,-1.5691,-1.5418,-1.4963,-1.4683,-1.4409,-1.4122,-1.4088,-1.4088,-1.4088,-1.465,-1.522,-1.5655,-1.5827,-1.6322,-1.7261,-1.6846,-1.6805,-1.7293,-1.7302,-1.7617,-1.827,-1.827,-1.855,-1.9155,-1.9678,-1.9883,-1.3906,-1.3997,-1.4046,-1.3906,-1.3997,-1.4046,-1.3906,-1.4045,-1.4217,-1.4119,0.0,-1.4882,-1.4921,0.0,-1.4854,-1.3584,0.0,-1.1214,-0.9899,-0.8901,-0.8299,-0.8462,-0.8601,-0.875,-0.8865,-0.8885,-0.8885,-0.8885,-0.9211,-0.9381,-0.9381,-0.9659,-0.9822,-0.9822,-0.9822,-0.9822,-0.9822,-0.9822,-0.9822,-0.9822,-0.9822,-0.9822,-0.9822,-0.9822,-0.9754,-0.9639,-0.9639,-0.9551,-0.9412,-0.9412,-0.9398,-0.9367,-0.9292,-0.9241,-0.9224,-0.9042,-0.8929,-0.8967,-0.8967,-0.8898,-0.9099,-1.0402,-1.0836,-1.1051,-1.2349,-1.2729,-1.2729,-1.2729,-1.2832,-1.2994,-1.2994,-1.3156,-1.3588,-1.4824,-1.5257,-1.5677,-1.673,-1.6839,-1.6547,-1.5992,-1.5804,-1.5784,-1.5784,-1.5784,-1.5784,-1.5784,-1.5784,-1.5678,-1.5431,-1.4917,-1.4469,-1.4175,-1.4108,-1.4088,-1.4088,-1.4088,-1.4489,-1.5421,-1.4608,-1.4943,-1.6813,-1.5992,-1.5951,-1.6854,-1.6895,-1.6927,-1.709,-1.709,-1.7172,-1.7334,-1.831,-1.8877,-1.2893,-1.3336,-1.3864,-1.2857,-1.3379,-1.3822,-1.2851,-1.2799,0.0,0.0,0.0,-1.2225,-1.248,-1.2549,0.0,-1.0872,0.0,0.0,0.0,0.0,-0.818,0.0,0.0,0.0,0.0,0.0,0.0,0.0,-0.9211,-0.9381,-0.9381,-0.9659,-0.9822,-0.9822,-0.9822,-0.9822,-0.9822,-0.9822,-0.9822,-0.9822,-0.9822,-0.9822,-0.9822,-0.9822,-0.9805,-0.9785,-0.9785,0.0,-0.9568,-0.9568,-0.9496,-0.9378,-0.9351,-0.934,-0.934,-0.9313,-0.9225,-0.9173,-0.9173,-0.9039,-0.8937,-0.921,-0.9265,-0.9316,-0.9588,-0.9644,-0.9644,-0.9644,-1.0566,-1.1487,-1.1487,-1.2403,-1.3372,-1.3588,-1.4556,-1.5459,-1.5683,-1.624,-1.6607,-1.6266,-1.5999,-1.5784,-1.5784,-1.5784,-1.5784,-1.5784,-1.5784,-1.5678,-1.5431,-1.5097,-1.477,-1.4476,-1.4229,-1.4088,-1.4088,-1.4088,-1.4166,-1.437,-1.4208,-1.425,-1.4664,-1.4496,-1.4454,-1.4657,-1.4657,-1.5103,-1.5985,-1.5985,-1.6437,-1.7302,-1.7496,-1.8109,-1.3379,-1.3203,-1.3027,-1.2456,-1.2291,-1.2126,-1.1558,0.0,0.0,0.0,0.0,-1.1766,-1.1876,0.0,0.0,0.0,0.0,0.0,0.0,0.0,0.0,0.0,0.0,0.0,0.0,0.0,0.0,0.0,0.0,-0.9381,-0.9381,-0.9659,-0.9822,-0.9822,-0.9822,-0.9822,-0.9822,-0.9822,-0.9822,-0.9822,-0.9822,-0.9822,-0.9822,-0.9822,-0.9822,-0.9822,-0.9822,-0.9781,-0.972,-0.972,-0.9676,-0.9602,-0.953,-0.95,-0.949,-0.9412,-0.9344,-0.921,-0.921,-0.9059,-0.8885,-0.8885,-0.8885,-0.8885,-0.8885,-0.8885,-0.8885,-0.8885,-0.9427,-0.997,-0.997,-1.0457,-1.1214,-1.1969,-1.3264,-1.4255,-1.4077,-1.4815,-1.5495,-1.522,-1.549,-1.5784,-1.5784,-1.5784,-1.5784,-1.5784,-1.5784,-1.5731,-1.5638,-1.5237,-1.485,-1.4556,-1.4262,-1.4088,-1.4088,-1.4088,-1.4088,-1.4088,-1.4088,-1.4088,-1.4088,-1.4088,-1.4088,-1.4088,-1.4088,-1.437,-1.4859,-1.4859,-1.5144,-1.5636,-1.6198,-1.6764,-1.3779,-1.3203,-1.2547,-1.2066,-1.1466,-1.0826,-1.0351,-1.0523,0.0,0.0,-1.0796,-1.1016,-1.1063,0.0,0.0,0.0,0.0,0.0,0.0,0.0,0.0,0.0,0.0,0.0,0.0,0.0,0.0,0.0,0.0,-0.9408,-0.9473,-0.9693,-0.9822,-0.9822,-0.9822,-0.9822,-0.9822,-0.9822,-0.9822,-0.9822,-0.9822,-0.9822,-0.9822,-0.9822,-0.9822,-0.9822,-0.9822,-0.9822,-0.9822,-0.9822,-0.9822,-0.9812,-0.9696,-0.9656,-0.9639,-0.952,-0.9357,-0.9258,-0.9258,-0.9086,-0.8885,-0.8885,-0.8885,-0.8885,-0.8885,-0.8885,-0.8885,-0.8885,-0.8885,-0.8885,-0.8885,-0.8885,-0.9265,-1.0731,-1.1973,-1.2842,-1.2883,-1.3517,-1.4027,-1.3835,-1.4637,-1.5391,-1.5391,-1.5635,-1.5784,-1.5784,-1.5784,-1.5784,-1.5784,-1.5378,-1.4943,-1.4643,-1.4295,-1.4088,-1.4088,-1.4088,-1.4088,-1.4088,-1.4088,-1.4088,-1.4088,-1.4088,-1.4088,-1.4088,-1.4088,-1.4088,-1.4088,-1.4088,-1.4088,-1.413,-1.4977,-1.5496,-1.2766,-1.316,-1.3428,-1.13,-1.1466,-1.1595,-0.9536,0.0,0.0,-0.8124,-0.8053,-0.8209,-0.8354,-0.8382,-0.8333,0.0,0.0,0.0,0.0,0.0,0.0,0.0,0.0,0.0,0.0,0.0,0.0,0.0,-0.9211,-0.9496,-0.9768,-0.9805,-0.9822,-0.9822,-0.9822,-0.9822,-0.9822,-0.9822,-0.9822,-0.9822,-0.9822,-0.9822,-0.9822,-0.9822,-0.9822,-0.9822,-0.9822,-0.9822,0.0,-0.9822,-0.9822,-0.9819,-0.9805,-0.9802,-0.9798,-0.9785,-0.9602,-0.9361,-0.9361,-0.9174,-0.8885,-0.8885,-0.8885,-0.8885,-0.8885,-0.8885,-0.8885,-0.8885,-0.8885,-0.8885,-0.8885,-0.8885,-0.9265,-1.0731,-1.1214,-1.1642,-1.2969,-1.3005,-1.2792,-1.272,-1.3468,-1.407,-1.407,-1.5045,-1.5784,-1.5784,-1.5784,-1.5784,-1.5784,-1.5551,-1.5244,-1.5001,-1.4422,-1.4088,-1.4088,-1.4088,-1.4088,-1.4088,-1.4088,-1.4088,-1.4088,-1.4088,-1.4088,-1.4088,-1.4088,-1.4088,-1.4088,-1.4088,-1.4088,-1.4088,-1.4208,-1.4776,-1.3512,-1.3203,-1.2808,-1.1858,-1.1466,-1.0864,-0.9279,0.0,0.0,-0.7797,-0.7712,-0.7858,-0.7961,-0.7988,-0.7988,0.0,0.0,0.0,0.0,0.0,0.0,0.0,0.0,0.0,0.0,0.0,0.0,0.0,-0.9178,-0.9337,-0.9544,-0.9724,-0.9822,-0.9822,-0.9822,-0.9822,-0.9822,-0.9822,-0.9822,-0.9822,-0.9822,-0.9822,-0.9822,-0.9822,-0.9822,-0.9822,-0.9822,-0.9822,0.0,-0.9822,-0.9822,-0.9822,-0.9822,-0.9822,-0.9812,-0.9727,-0.9561,-0.9367,-0.9333,-0.911,-0.8885,-0.8885,-0.8885,-0.8885,-0.8885,-0.8885,-0.8885,-0.8885,-0.8885,-0.8885,-0.8885,-0.8885,-0.9047,-0.9644,-0.9754,-0.9915,-1.0511,-1.0969,-1.1263,-1.1263,-1.2044,-1.2716,-1.2716,-1.3782,-1.4657,-1.4657,-1.5289,-1.5784,-1.5784,-1.5578,-1.5284,-1.5042,-1.4589,-1.4282,-1.4102,-1.4088,-1.4088,-1.4088,-1.4088,-1.4088,-1.4088,-1.4088,-1.4088,-1.4088,-1.4088,-1.4088,-1.4088,-1.4088,-1.4088,-1.4088,-1.4088,-1.4334,-1.3258,-1.2681,-1.2237,-1.1895,-1.0956,-0.9879,0.0,0.0,-0.8324,-0.7684,-0.7648,-0.7794,-0.7894,-0.7961,-0.7988,-0.7988,0.0,-0.7988,0.0,0.0,0.0,0.0,0.0,0.0,0.0,0.0,0.0,-0.8454,-0.8499,-0.8391,-0.8023,-0.8654,-0.9203,-0.969,-0.969,-0.969,-0.969,-0.969,-0.969,-0.969,-0.969,-0.969,-0.969,-0.969,-0.969,-0.969,-0.969,-0.969,0.0,-0.969,-0.969,-0.969,-0.969,-0.969,-0.968,-0.9578,-0.9445,-0.93,-0.9248,-0.9059,-0.8885,-0.8885,-0.8885,-0.8885,-0.8885,-0.8885,-0.8885,-0.8885,-0.8885,-0.8885,-0.8885,-0.8885,-0.8885,-0.8885,-0.8885,-0.8871,-0.8824,-0.935,-0.9812,-0.9812,-1.061,-1.1365,-1.1365,-1.2425,-1.3295,-1.3295,-1.4418,-1.5242,-1.5242,-1.541,-1.5384,-1.5048,-1.4776,-1.4496,-1.4122,-1.4088,-1.4088,-1.4088,-1.4088,-1.4088,-1.4088,-1.4088,-1.4088,-1.4088,-1.4088,-1.4088,-1.4088,-1.4088,-1.4088,-1.4088,-1.4088,-1.4088,-1.1262,-1.1466,-1.2023,-1.0907,-0.9753,-0.8934,0.0,0.0,-0.7187,-0.7343,-0.7495,-0.7645,-0.7787,-0.7887,-0.7988,-0.7988,-0.7988,0.0,0.0,0.0,0.0,0.0,0.0,0.0,0.0,0.0,0.0,-0.6813,-0.6858,0.0,-0.4806,-0.6274,-0.7854,-0.9384,-0.9388,-0.9388,-0.9388,-0.9388,-0.9388,-0.9388,-0.9388,-0.9388,-0.9388,-0.9388,-0.9388,-0.9388,-0.9388,-0.9388,0.0,-0.9388,-0.9388,-0.9388,-0.9388,-0.9388,-0.9384,-0.9384,-0.9344,-0.921,-0.921,-0.9059,-0.8885,-0.8885,-0.8885,-0.8885,-0.8885,-0.8885,-0.8885,-0.8885,-0.8885,-0.8885,-0.8885,-0.8885,-0.8885,-0.8885,-0.8885,-0.8841,-0.8747,-0.8591,-0.8494,-0.835,-0.9241,-0.9998,-0.9998,-1.1072,-1.1896,-1.1896,-1.3054,-1.392,-1.392,-1.4997,-1.5605,-1.5068,-1.5008,-1.4767,-1.4135,-1.4088,-1.4088,-1.4088,-1.4088,-1.4088,-1.4088,-1.4088,-1.4088,-1.4088,-1.4088,-1.4088,-1.4088,-1.4088,-1.4088,-1.4088,-1.4088,-1.4088,-1.1943,-1.1466,-1.1042,-1.0697,-1.0308,-0.9836,-0.9065,-0.8584,-0.8155,-0.7521,-0.7456,-0.7519,-0.7767,-0.7851,-0.787,-0.7971,-0.7988,0.0,0.0,0.0,0.0,0.0,0.0,0.0,0.0,0.0,-0.5697,-0.525,-0.522,-0.5065,-0.456,-0.5036,-0.6073,-0.7788,-0.7852,-0.8323,-0.9381,-0.8381,-0.8381,-0.9381,-0.9381,-0.9381,-0.9381,-0.9381,-0.9381,-0.9381,-0.9381,-0.9381,-0.9381,-0.9381,-0.9381,-0.9381,-0.9381,-0.9381,-0.9367,-0.932,-0.9251,-0.9193,-0.9042,-0.8977,-0.8885,-0.8885,-0.8885,-0.8885,-0.8885,-0.8885,-0.8885,-0.8885,-0.8885,-0.8885,-0.8885,-0.8885,-0.8885,-0.8885,-0.8885,-0.8841,-0.8743,-0.8591,-0.8438,-0.835,-0.8492,-0.8627,-0.8627,-0.9752,-1.0583,-1.0583,-1.2469,-1.3926,-1.3926,-1.4997,-1.5605,-1.5068,-1.5008,-1.4774,-1.4135,-1.4088,-1.4088,-1.4088,-1.4088,-1.4088,-1.4088,-1.4088,-1.4088,-1.4088,-1.4088,-1.4088,-1.4088,-1.4088,-1.4088,-1.4088,-1.4088,-1.4088,0.0,-1.0135,-0.9966,-0.9966,-0.9614,0.0,0.0,-0.854,-0.8047,-0.7396,-0.7329,-0.7473,-0.7611,-0.7736,-0.7841,-0.7887,-0.7951,0.0,0.0,0.0,0.0,0.0,0.0,0.0,0.0,0.0,-0.4247,-0.3688,-0.3632,-0.3409,-0.2852,-0.3353,-0.4116,-0.5232,-0.5813,-0.6563,-0.7541,-0.662,-0.662,-0.7541,-0.7541,-0.7541,-0.7598,-0.8118,-0.8061,-0.7598,-0.8752,-0.8869,0.0,-0.8983,-0.9215,-0.9215,-0.9215,-0.9215,-0.9201,-0.9106,-0.9072,-0.9059,-0.8967,-0.8885,-0.8885,-0.8885,-0.8885,-0.8885,-0.8885,-0.8885,-0.8885,-0.8885,-0.8885,-0.8885,-0.8885,-0.8885,-0.8885,-0.8885,-0.8885,-0.8824,-0.8669,-0.855,-0.8421,-0.8221,-0.8106,-0.7988,-0.7988,-0.8676,-0.9266,-0.9266,-1.1453,-1.3156,-1.3156,-1.4704,-1.5605,-1.5068,-1.5008,-1.4774,-1.4135,-1.4088,-1.4088,-1.4088,-1.4088,-1.4088,-1.4088,-1.4088,-1.4088,-1.4088,-1.4088,-1.4088,-1.4088,-1.4088,-1.4088,-1.4088,-1.4088,-1.4088,0.0,0.0,0.0,0.0,0.0,0.0,0.0,-0.7885,0.0,-0.7095,-0.7255,-0.7405,-0.7415,-0.7594,-0.7787,-0.7807,-0.788,0.0,0.0,0.0,0.0,0.0,0.0,0.0,0.0,-0.3316,-0.3572,-0.2124,-0.2068,-0.1454,-0.0056,-0.1287,-0.2068,-0.2068,-0.3409,-0.4303,-0.447,-0.4414,-0.4414,-0.4526,-0.4526,-0.4526,-0.4528,-0.5919,-0.5808,0.0,-0.7371,-0.782,-0.6644,-0.8042,-0.8602,-0.8602,-0.8602,-0.8602,-0.8602,-0.8602,-0.8657,-0.8771,-0.8771,-0.8826,-0.8885,-0.8885,-0.8885,-0.8885,-0.8885,-0.8885,-0.8885,-0.8885,-0.8885,-0.8885,-0.8885,-0.8885,-0.8885,-0.8885,-0.8875,-0.8842,-0.8547,-0.8476,-0.8384,-0.8046,-0.7988,-0.7988,-0.7988,-0.7988,-0.7988,-0.7988,-1.0141,-1.1755,-1.1755,-1.398,-1.5317,-1.4792,-1.4822,-1.4635,-1.4008,-1.4039,-1.4088,-1.4088,-1.4088,-1.4088,-1.4088,-1.4088,-1.4088,-1.4088,-1.4088,-1.4088,-1.4088,-1.4088,-1.4088,-1.4088,-1.4088,-1.4088,-0.7183,0.0,-0.7536,-0.7536,-0.7316,-0.7183,0.0,-0.7316,-0.7095,-0.7095,0.0,0.0,-0.735,-0.7473,-0.755,-0.7773,-0.7841,0.0,0.0,0.0,0.0,0.0,0.0,0.0,0.0,-0.0871,-0.0885,-0.056,-0.0504,-0.0392,0.0,-0.0336,-0.0504,-0.0504,-0.0896,-0.2182,-0.447,-0.3352,-0.3352,-0.4526,-0.4526,-0.4526,-0.4526,-0.4862,-0.4804,-0.4528,-0.525,-0.5361,-0.5027,-0.5419,-0.553,-0.553,-0.553,-0.553,-0.553,-0.553,-0.6255,-0.7204,-0.7204,-0.7931,-0.8885,-0.8885,-0.8885,-0.8885,-0.8885,-0.8885,-0.8885,-0.8885,-0.8885,-0.8885,-0.8885,-0.8885,-0.8885,-0.8885,-0.8849,-0.8713,-0.8523,-0.8397,-0.8265,-0.8025,-0.7988,-0.7988,-0.7988,-0.7988,-0.7988,-0.7988,-0.941,-1.0435,-1.0435,-1.1848,-1.2639,-1.2208,-1.2933,-1.326,-1.2765,-1.3561,-1.4088,-1.4088,-1.4088,-1.4088,-1.4088,-1.4088,-1.4088,-1.4088,-1.4088,-1.4088,-1.4088,-1.4088,-1.4088,-1.4088,-1.4088,-1.4088,-0.7095,-0.7095,-0.7095,-0.7095,-0.7095,-0.7095,-0.7095,0.0,0.0,0.0,0.0,0.0,0.0,0.0,0.0,0.0,-0.7668,0.0,0.0,0.0,0.0,0.0,0.0,0.0,0.0,0.0,0.0,0.0,0.0,0.0,0.0,0.0,0.0,0.0,0.0,-0.0784,-0.2405,-0.1622,-0.1622,-0.2461,-0.2461,-0.2461,-0.2462,-0.313,-0.3074,-0.2517,-0.3913,-0.408,-0.3519,-0.4191,-0.4526,-0.4526,-0.4526,-0.4526,-0.4526,-0.4526,-0.5027,-0.5697,-0.5697,-0.6197,-0.698,-0.7651,-0.7875,-0.8042,-0.8716,-0.8885,-0.8885,-0.8885,-0.8885,-0.8885,-0.8885,-0.8885,-0.8865,-0.8797,-0.8771,-0.8652,-0.8431,-0.8378,-0.8225,-0.8019,-0.7988,-0.7988,-0.7988,-0.7988,-0.7988,-0.7988,-0.9118,-0.9998,-0.9998,-1.1121,-1.173,-1.1328,-1.1828,-1.2041,-1.1553,-1.2126,-1.2954,-1.4046,-1.4088,-1.4088,-1.4088,-1.4088,-1.4088,-1.4088,-1.4088,-1.4088,-1.4088,-1.4088,-1.4088,-1.4088,-1.4088,-1.4088,-0.7095,-0.7095,-0.7095,-0.7095,-0.7095,-0.7095,-0.7095,0.0,0.0,0.0,0.0,0.0,0.0,0.0,0.0,0.0,0.0,0.0,0.0,0.0,0.0,0.0,0.0,0.0,0.0,0.0,0.0,0.0,0.0,0.0,0.0,0.0,0.0,0.0,0.0,0.0,0.0,0.0,0.0,0.0,0.0,0.0,-0.0056,-0.1287,-0.1175,-0.0168,0.0,0.0,-0.1957,-0.3297,-0.3801,-0.3801,-0.3801,-0.3801,-0.3801,-0.3801,-0.3968,-0.4191,-0.4414,-0.4526,-0.4693,-0.5975,-0.6366,-0.6589,-0.7875,-0.838,-0.8546,-0.8546,-0.8716,-0.8878,-0.8854,-0.8848,-0.8811,-0.8713,-0.8659,-0.8574,-0.8326,-0.8252,-0.8197,-0.8015,-0.7988,-0.7988,-0.7988,-0.7988,-0.7988,-0.7988,-0.897,-0.9706,-0.9706,-1.0632,-1.1154,-1.0774,-1.0869,-1.0829,-1.0391,-1.0481,-1.1434,-1.3434,-1.3561,-1.3646,-1.3822,-1.3997,-1.4088,-1.4088,-1.4088,-1.4088,-1.4088,-1.4088,-1.4088,-1.4088,-1.4088,-1.4088,-0.7095,-0.7095,-0.7095,-0.7095,-0.7095,-0.7095,-0.7095,0.0,0.0,0.0,0.0,0.0,0.0,0.0,0.0,0.0,0.0,0.0,0.0,0.0,0.0,0.0,0.0,0.0,0.0,0.0,0.0,0.0,0.0,0.0,0.0,0.0,0.0,0.0,0.0,0.0,0.0,0.0,0.0,0.0,0.0,0.0,0.0,-0.0224,-0.0224,0.0,0.0,-0.056,-0.0336,-0.0616,-0.0672,-0.0672,-0.0672,-0.0672,-0.0672,-0.0672,-0.1455,-0.2738,-0.4024,-0.4526,-0.4528,-0.4751,-0.486,-0.4862,-0.5083,-0.6031,-0.7035,-0.7035,-0.7931,-0.8854,-0.8777,-0.8747,-0.8706,-0.8554,-0.8425,-0.8326,-0.8333,-0.8167,-0.8019,-0.7995,-0.7988,-0.7988,-0.7988,-0.7988,-0.7988,-0.7988,-0.8187,-0.8283,-0.8283,-0.8482,-0.8506,-0.819,-0.9025,-0.947,-0.9183,-1.0053,-1.074,-1.1128,-1.1128,-1.1558,-1.2547,-1.3555,-1.4088,-1.4088,-1.4088,-1.4088,-1.4088,-1.4088,-1.4088,-1.4088,-1.4088,-1.4088,-0.6337,-0.616,-0.616,-0.616,-0.665,-0.7095,-0.7095,0.0,0.0,0.0,0.0,0.0,0.0,0.0,0.0,0.0,0.0,0.0,0.0,0.0,0.0,0.0,0.0,0.0,0.0,0.0,0.0,0.0,0.0,0.0,0.0,0.0,0.0,0.0,0.0,0.0,0.0,0.0,0.0,0.0,0.0,0.0,0.0,0.0,0.0,0.0,0.0,0.0,0.0,0.0,0.0,0.0,0.0,0.0,0.0,0.0,-0.0448,-0.1119,-0.1847,-0.207,-0.2181,-0.3018,-0.324,-0.3409,-0.4247,-0.4997,-0.5674,-0.6389,-0.7655,-0.8801,-0.8726,-0.8648,-0.855,-0.8404,-0.8371,-0.8248,-0.8163,-0.8089,-0.7988,-0.7988,-0.7988,-0.7988,-0.7988,-0.7988,-0.7988,-0.7988,-0.7988,-0.7988,-0.7988,-0.7988,-0.7907,-0.7736,-0.811,-0.8286,-0.8087,-0.846,-0.927,-1.0524,-1.0611,-1.0826,-1.1338,-1.1906,-1.2516,-1.3118,-1.3118,-1.3464,-1.4088,-1.4088,-1.4088,-1.4088,-1.4088,-1.4088,-0.5312,-0.4999,-0.4999,-0.4999,0.0,-0.6425,-0.6962,0.0,0.0,0.0,0.0,0.0,0.0,0.0,0.0,0.0,0.0,0.0,0.0,0.0,0.0,0.0,0.0,0.0,0.0,0.0,0.0,0.0,0.0,0.0,0.0,0.0,0.0,0.0,0.0,0.0,0.0,0.0,0.0,0.0,0.0,0.0,0.0,0.0,0.0,0.0,0.0,0.0,0.0,0.0,0.0,0.0,0.0,0.0,0.0,0.0,0.0,0.0,0.0,0.0,-0.0168,-0.1343,-0.1674,-0.1891,-0.3113,-0.3899,-0.4654,-0.5679,-0.7229,-0.8608,-0.8608,-0.852,-0.8394,-0.8252,-0.8218,-0.8184,-0.8015,-0.7988,-0.7988,-0.7988,-0.7988,-0.7988,-0.7988,-0.7988,-0.7988,-0.7988,-0.7988,-0.7988,-0.7988,-0.7988,-0.7931,-0.7828,-0.7685,-0.7522,-0.7333,-0.7207,-0.7878,-0.9657,-1.0048,-1.0183,-1.0183,-1.0481,-1.1123,-1.2285,-1.2285,-1.2899,-1.4088,-1.4088,-1.4088,-1.4088,-1.4088,-1.4088,-0.4061,-0.3748,-0.3748,-0.3748,-0.3792,0.0,-0.6602,-0.5395,0.0,-0.5312,0.0,0.0,0.0,0.0,0.0,0.0,0.0,0.0,0.0,0.0,0.0,0.0,0.0,0.0,0.0,0.0,0.0,0.0,0.0,0.0,0.0,0.0,0.0,0.0,0.0,0.0,0.0,0.0,0.0,0.0,0.0,0.0,0.0,0.0,0.0,0.0,0.0,0.0,0.0,0.0,0.0,0.0,0.0,0.0,0.0,0.0,0.0,0.0,0.0,0.0,0.0,-0.0112,-0.0167,-0.0165,-0.0274,-0.2161,-0.4251,-0.4357,-0.6299,-0.8354,-0.8354,-0.8344,-0.8248,-0.8092,-0.8005,-0.8005,-0.7992,-0.7988,-0.7988,-0.7988,-0.7988,-0.7988,-0.7988,-0.7988,-0.7988,-0.7988,-0.7988,-0.7988,-0.7988,-0.7988,-0.7931,-0.7828,-0.7685,-0.7478,-0.7139,-0.7102,-0.7183,-0.7356,-0.8408,-0.9017,-0.9017,-1.0053,-1.1123,-1.2285,-1.2285,-1.2899,-1.4088,-1.4088,-1.4088,-1.4088,-1.4088,-1.4088,-0.2814,-0.2503,-0.2503,-0.2503,-0.1924,0.0,0.0,-0.4239,-0.3748,0.0,0.0,0.0,0.0,0.0,0.0,0.0,0.0,0.0,0.0,0.0,0.0,0.0,0.0,0.0,0.0,0.0,0.0,0.0,0.0,0.0,0.0,0.0,0.0,0.0,0.0,0.0,0.0,0.0,0.0,0.0,0.0,0.0,0.0,0.0,0.0,0.0,0.0,0.0,0.0,0.0,0.0,0.0,0.0,0.0,0.0,0.0,0.0,0.0,0.0,0.0,0.0,0.0,0.0,-0.0162,-0.0968,-0.1962,-0.3184,-0.4852,-0.6077,-0.7077,-0.8037,-0.8201,-0.8113,-0.8005,-0.7988,-0.7988,-0.7988,-0.7988,-0.7988,-0.7988,-0.7988,-0.7988,-0.7988,-0.7988,-0.7988,-0.7988,-0.7988,-0.7988,-0.7988,-0.7988,-0.7968,-0.7911,-0.774,-0.7475,-0.7122,-0.7095,-0.7095,-0.7095,-0.7533,-0.7797,-0.7797,-0.8185,-0.9309,-1.1209,-1.1252,-1.2211,-1.4088,-1.4088,-1.4088,-1.4088,-1.4088,-1.4088,-0.1567,-0.121,-0.121,-0.121,0.0,0.0,-0.2102,-0.2458,0.0,0.0,0.0,0.0,0.0,0.0,0.0,0.0,0.0,0.0,0.0,0.0,0.0,0.0,0.0,0.0,0.0,0.0,0.0,0.0,0.0,0.0,0.0,0.0,0.0,0.0,0.0,0.0,0.0,0.0,0.0,0.0,0.0,0.0,0.0,0.0,0.0,0.0,0.0,0.0,0.0,0.0,0.0,0.0,0.0,0.0,0.0,0.0,0.0,0.0,0.0,0.0,0.0,0.0,0.0,-0.0159,-0.1109,-0.1666,-0.2358,-0.4199,-0.5328,-0.625,-0.7301,-0.7764,-0.7988,-0.7988,-0.7988,-0.7988,-0.7988,-0.7988,-0.7988,-0.7988,-0.7988,-0.7988,-0.7988,-0.7988,-0.7988,-0.7988,-0.7988,-0.7988,-0.7988,-0.7988,-0.7955,-0.7864,-0.7719,-0.7475,-0.7122,-0.7095,-0.7095,-0.7095,-0.7095,-0.7095,-0.7095,-0.7095,-0.8053,-1.0009,-1.0053,-1.1047,-1.2997,-1.2997,-1.2997,-1.2997,-1.2997,-1.3173,-0.0314,0.0,0.0,0.0,0.0,0.0,0.0,0.0,0.0,0.0,0.0,0.0,0.0,0.0,0.0,0.0,0.0,0.0,0.0,0.0,0.0,0.0,0.0,0.0,0.0,0.0,0.0,0.0,0.0,0.0,0.0,0.0,0.0,0.0,0.0,0.0,0.0,0.0,0.0,0.0,0.0,0.0,0.0,0.0,0.0,0.0,0.0,0.0,0.0,0.0,0.0,0.0,0.0,0.0,0.0,0.0,0.0,0.0,0.0,0.0,0.0,0.0,0.0,0.0,0.0,-0.0972,-0.2013,-0.2013,-0.3919,-0.5979,-0.5979,-0.6983,-0.7988,-0.7988,-0.7988,-0.7988,-0.7988,-0.7988,-0.7988,-0.7988,-0.7988,-0.7988,-0.7988,-0.7988,-0.7988,-0.7988,-0.7988,-0.7988,-0.7988,-0.7988,-0.7877,-0.7631,-0.76,-0.7475,-0.7122,-0.7095,-0.7095,-0.7095,-0.7095,-0.7095,-0.7095,-0.7095,-0.7665,-0.889,-0.889,-0.9453,-1.0611,-1.0611,-1.0611,-1.0611,-1.0611,-1.1209,-0.009,0.0,0.0,0.0,0.0,0.0,0.0,0.0,0.0,0.0,0.0,0.0,0.0,0.0,0.0,0.0,0.0,0.0,0.0,0.0,0.0,0.0,0.0,0.0,0.0,0.0,0.0,0.0,0.0,0.0,0.0,0.0,0.0,0.0,0.0,0.0,0.0,0.0,0.0,0.0,0.0,0.0,0.0,0.0,0.0,0.0,0.0,0.0,0.0,0.0,0.0,0.0,0.0,0.0,0.0,0.0,0.0,0.0,0.0,0.0,0.0,0.0,0.0,-0.0153,-0.1118,-0.1669,-0.2213,-0.3165,-0.3967,-0.4568,-0.4568,-0.5575,-0.6833,-0.7786,-0.7988,-0.7988,-0.7988,-0.7988,-0.7988,-0.7988,-0.7988,-0.7988,-0.7988,-0.7988,-0.7988,-0.7988,-0.7988,-0.7988,-0.7988,-0.7988,-0.7877,-0.7631,-0.76,-0.7475,-0.7122,-0.7095,-0.7095,-0.7095,-0.7095,-0.7095,-0.7095,-0.7095,-0.7665,-0.889,-0.889,-0.9453,-1.0611,-1.0611,-1.0611,-1.0611,-1.0611,-1.0783,-0.0584,-0.0359,0.0,0.0,0.0,0.0,0.0,0.0,0.0,0.0,0.0,0.0,0.0,0.0,0.0,0.0,0.0,0.0,0.0,0.0,0.0,0.0,0.0,0.0,0.0,0.0,0.0,0.0,0.0,0.0,0.0,0.0,0.0,0.0,0.0,0.0,0.0,0.0,0.0,0.0,0.0,0.0,0.0,0.0,0.0,0.0,0.0,0.0,0.0,0.0,0.0,0.0,0.0,0.0,0.0,0.0,0.0,0.0,0.0,0.0,0.0,0.0,0.0,-0.0151,-0.0958,-0.1209,-0.136,-0.2163,-0.2815,-0.3215,-0.3215,-0.4218,-0.5525,-0.6883,-0.7637,-0.7988,-0.7988,-0.7988,-0.7988,-0.7988,-0.7988,-0.7988,-0.7988,-0.7988,-0.7988,-0.7988,-0.7988,-0.7988,-0.7988,-0.7988,-0.7877,-0.7631,-0.76,-0.7475,-0.7122,-0.7095,-0.7095,-0.7095,-0.7095,-0.7095,-0.7095,-0.7095,-0.7445,-0.8189,-0.8189,-0.8536,-0.9226,-0.9226,-0.9226,-0.9226,-0.9226,-0.9488,-0.1344,0.0,0.0,0.0,0.0,0.0,0.0,0.0,0.0,0.0,0.0,0.0,0.0,0.0,0.0,0.0,0.0,0.0,0.0,0.0,0.0,0.0,0.0092,0.0186,0.0142,0.0143,0.019,0.0333,0.0242,0.0196,0.0342,0.0348,0.0352,0.0352,0.0352,0.0353,0.0353,0.0353,0.0353,0.0353,0.0353,0.0353,0.0353,0.0101,0.0,0.0,0.0,0.0,0.0,0.0,0.0,0.0,0.0,0.0,0.0,0.0,0.0,0.0,0.0,0.0,0.0,0.0,0.0,0.0,0.0,0.0,0.0,0.0,-0.0857,-0.1812,-0.1812,-0.2815,-0.4117,-0.5325,-0.6731,-0.7839,-0.7988,-0.7988,-0.7988,-0.7988,-0.7988,-0.7988,-0.7988,-0.7988,-0.7988,-0.7988,-0.7988,-0.7988,-0.7988,-0.7988,-0.7877,-0.7631,-0.76,-0.7475,-0.7122,-0.7095,-0.7095,-0.7095,-0.7095,-0.7095,-0.7095,-0.7095,-0.7095,-0.7095,-0.7095,-0.7095,-0.7095,-0.7095,-0.7095,-0.7095,-0.7095,-0.7709,0.0,-0.018,0.0,0.0,0.0,0.0,0.0,0.0,0.0,0.0,0.0,0.0,0.0,0.0,0.0,0.0,0.0,0.0,0.0,0.0,0.0,0.0,0.0858,0.1408,0.1392,0.1394,0.1823,0.2751,0.1958,0.1819,0.2772,0.283,0.2858,0.3,0.3001,0.3022,0.3115,0.3115,0.3115,0.3115,0.3115,0.3115,0.3065,0.0958,0.0,0.0,0.0,0.0,0.0,0.0,0.0,0.0,0.0,0.0,0.0,0.0,0.0,0.0,0.0,0.0,0.0,0.0,0.0,0.0,0.0,0.0,0.0,0.0,-0.0202,-0.0454,-0.0454,-0.1411,-0.2514,-0.2816,-0.4672,-0.6734,-0.7786,-0.7988,-0.7988,-0.7988,-0.7988,-0.7988,-0.7988,-0.7988,-0.7988,-0.7988,-0.7988,-0.7988,-0.7988,-0.7988,-0.7877,-0.7631,-0.76,-0.7475,-0.7122,-0.7095,-0.7095,-0.7095,-0.7095,-0.7095,-0.7095,-0.7095,-0.7095,-0.7095,-0.7095,-0.7095,-0.7095,-0.7095,-0.7095,-0.7095,-0.7095,-0.7228,0.0,0.0,0.0,0.0,0.0,0.0,0.0,0.0,0.0,0.0,0.0,0.0,0.0,0.0,0.0,0.0,0.0494,0.0852,0.0852,0.1344,0.1746,0.1746,0.2281,0.2648,0.2677,0.2679,0.2918,0.3548,0.3026,0.2949,0.3555,0.3587,0.3624,0.371,0.3711,0.3728,0.3813,0.3813,0.3831,0.3915,0.3915,0.3934,0.3915,0.1913,0.0605,0.0,0.0,0.0,0.0,0.0,0.0,0.0,0.0,0.0,0.0,0.0,0.0,0.0,0.0,0.0,0.0,0.0,0.0,0.0,0.0,0.0,0.0,0.0,0.0,0.0,0.0,-0.0504,-0.1209,-0.1862,-0.3568,-0.5222,-0.5924,-0.6578,-0.7033,-0.7033,-0.7587,-0.7988,-0.7988,-0.7988,-0.7988,-0.7988,-0.7988,-0.7988,-0.7988,-0.7928,-0.7845,-0.7624,-0.7536,-0.7394,-0.7115,-0.7095,-0.7095,-0.7095,-0.7095,-0.7095,-0.7095,-0.7095,-0.7095,-0.7095,-0.7095,-0.7095,-0.7095,-0.7095,-0.7095,-0.7095,-0.7095,-0.7095,0.0,0.0,0.0,0.0,0.0,0.0,0.0,0.0,0.0,0.0,0.0,0.0,0.0269,0.0314,0.0359,0.0583,0.1478,0.2102,0.2102,0.2992,0.3614,0.3614,0.3792,0.3927,0.3927,0.3927,0.397,0.4192,0.4036,0.3983,0.4211,0.4187,0.4233,0.4246,0.4246,0.4256,0.4269,0.4269,0.4353,0.4473,0.4473,0.4411,0.4226,0.3136,0.1801,0.0353,0.0353,0.0202,0.0,0.0,0.0,0.0,0.0,0.0,0.0,0.0,0.0,0.0,0.0,0.0,0.0,0.0,0.0,0.0,0.0,0.0,0.0,0.0,0.0,0.0,0.0,0.0,-0.0303,-0.141,-0.2514,-0.3416,-0.3915,-0.487,-0.5727,-0.5979,-0.7083,-0.7988,-0.7988,-0.7988,-0.7988,-0.7988,-0.7988,-0.7988,-0.7988,-0.7906,-0.7756,-0.7614,-0.7461,-0.7309,-0.7109,-0.7095,-0.7095,-0.7095,-0.7095,-0.7095,-0.7095,-0.7095,-0.7095,-0.7095,-0.7095,-0.7095,-0.7095,-0.7095,-0.7095,-0.7095,-0.7095,-0.7095,0.0,0.0,0.0,0.0,0.0,0.0,0.0,0.0,0.0,0.0,0.0,0.0314,0.1389,0.1567,0.1924,0.2948,0.326,0.3349,0.3349,0.3481,0.3614,0.3614,0.4508,0.5179,0.5179,0.5179,0.5581,0.6558,0.5727,0.5605,0.6586,0.6646,0.6715,0.6887,0.689,0.695,0.7073,0.7073,0.7083,0.7102,0.7102,0.6487,0.5396,0.5206,0.3895,0.1712,0.1712,0.1058,0.0,0.0,0.0,0.0,0.0,0.0,0.0,0.0,0.0,0.0,0.0,0.0,0.0,0.0,0.0,0.0,0.0,0.0,0.0,0.0,0.0,0.0,0.0,0.0,-0.0051,-0.0202,-0.0404,-0.1159,-0.3515,-0.4166,-0.4618,-0.5777,-0.7083,-0.7988,-0.7988,-0.7988,-0.7988,-0.7988,-0.7988,-0.7988,-0.7988,-0.7906,-0.7756,-0.7614,-0.7461,-0.7309,-0.7109,-0.7095,-0.7095,-0.7095,-0.7095,-0.7095,-0.7095,-0.7095,-0.7095,-0.7095,-0.7095,-0.7095,-0.7095,-0.7095,-0.7095,-0.7095,-0.7095,-0.7095,0.0,0.0,0.0,0.0,0.0,0.0,0.0,0.0,0.0,0.0,0.0,0.018,0.0673,0.1344,0.1969,0.2503,0.3707,0.4596,0.4596,0.5174,0.5575,0.5575,0.6024,0.634,0.634,0.634,0.6561,0.7051,0.665,0.6561,0.7095,0.7095,0.7129,0.7241,0.7241,0.7275,0.7343,0.7343,0.7387,0.7472,0.756,0.7312,0.6735,0.6735,0.5313,0.2874,0.2874,0.2582,0.1951,0.127,0.1026,0.0929,0.0247,0.0,0.0,0.0,0.0,0.0,0.0,0.0,0.0,0.0,0.0,0.0,0.0,0.0,0.0,0.0,0.0,0.0,0.0,0.0,0.0,0.0,0.0,-0.0303,-0.1511,-0.2364,-0.3265,-0.462,-0.5977,-0.6883,-0.6883,-0.7487,-0.7988,-0.7988,-0.7988,-0.7958,-0.7923,-0.7784,-0.7638,-0.7489,-0.7333,-0.7214,-0.7102,-0.7095,-0.7095,-0.7095,-0.7095,-0.7095,-0.7095,-0.7095,-0.7095,-0.7095,-0.7095,-0.7095,-0.7095,-0.7095,-0.7095,-0.7095,-0.7095,-0.7095,0.0,0.0,0.0,0.0,0.0,0.0,0.0,0.0,0.0,0.0,0.0,0.0,0.0,0.1254,0.2458,0.3038,0.4643,0.5849,0.5849,0.6561,0.7095,0.7095,0.7095,0.7095,0.7095,0.7095,0.7095,0.7095,0.7095,0.7095,0.7095,0.7095,0.7095,0.7095,0.7095,0.7095,0.7095,0.7095,0.7156,0.7316,0.7428,0.7482,0.7482,0.7482,0.64,0.4487,0.4203,0.3938,0.3512,0.2614,0.2235,0.2143,0.092,0.0438,0.0439,0.0099,0.0,0.0,0.0,0.0,0.0,0.0,0.0,0.0,0.0,0.0,0.0,0.0,0.0,0.0,0.0,0.0,0.0,0.0,0.0,0.0,0.0,-0.1058,-0.2314,-0.3316,-0.457,-0.5475,-0.5475,-0.6581,-0.7487,-0.7487,-0.7756,-0.7891,-0.7824,-0.7651,-0.7499,-0.7429,-0.7234,-0.7095,-0.7095,-0.7095,-0.7095,-0.7095,-0.7095,-0.7095,-0.7095,-0.7095,-0.7095,-0.7095,-0.7095,-0.7095,-0.7095,-0.7095,-0.7095,-0.7095,-0.7095,-0.7095,0.0,0.0,0.0,0.0,0.0,0.0,0.0,0.0,0.0,0.0,0.0,0.0,0.0,0.1924,0.4239,0.647,0.6918,0.7007,0.7007,0.7051,0.7095,0.7095,0.7095,0.7095,0.7095,0.7095,0.7095,0.7095,0.7095,0.7095,0.7095,0.7095,0.7095,0.7095,0.7095,0.7095,0.7095,0.7095,0.7098,0.7109,0.7115,0.7122,0.7122,0.7122,0.703,0.6866,0.592,0.4787,0.3607,0.3512,0.3512,0.337,0.2189,0.1716,0.1573,0.043,0.0,0.0,0.0,0.0,0.0,0.0,0.0,0.0,0.0,0.0,0.0,0.0,0.0,0.0,0.0,0.0,0.0,0.0,0.0,0.0,0.0,-0.1058,-0.2013,-0.2113,-0.3165,-0.4116,-0.4116,-0.5222,-0.6079,-0.6079,-0.7073,-0.7821,-0.7814,-0.756,-0.7426,-0.7415,-0.7234,-0.7095,-0.7095,-0.7095,-0.7095,-0.7095,-0.7095,-0.7095,-0.7095,-0.7095,-0.7095,-0.7095,-0.7095,-0.7095,-0.7095,-0.7095,-0.7095,-0.7095,-0.7095,-0.7095,0.0,0.0,0.0,0.0,0.0,0.0,0.0,0.0,0.0,0.0,0.0,0.0494,0.2013,0.3037,0.3881,0.4727,0.611,0.7095,0.7095,0.7095,0.7095,0.7095,0.7095,0.7095,0.7095,0.7095,0.7095,0.7095,0.7095,0.7095,0.7095,0.7095,0.7095,0.7095,0.7095,0.7095,0.7095,0.7095,0.7095,0.7095,0.7095,0.7095,0.7095,0.7095,0.7095,0.7102,0.6709,0.6294,0.5793,0.5065,0.4747,0.4617,0.3429,0.247,0.173,0.1327,0.0667,0.0,0.0,0.0,0.0,0.0,0.0,0.0,0.0,0.0,0.0,0.0,0.0,0.0,0.0,0.0,0.0,0.0,0.0,0.0,0.0,-0.0397,-0.0706,-0.0706,-0.1812,-0.2715,-0.2715,-0.3831,-0.4738,-0.4738,-0.5726,-0.6487,-0.6409,-0.6971,-0.7333,-0.7234,-0.7129,-0.7095,-0.7095,-0.7095,-0.7095,-0.7095,-0.7095,-0.7095,-0.7095,-0.7095,-0.7095,-0.7095,-0.7095,-0.7095,-0.7095,-0.7095,-0.7095,-0.7095,-0.7095,-0.7095,0.0,0.0,0.0,0.0,0.0,0.0,0.0,0.0,0.0,0.0,0.0,0.0494,0.2102,0.3037,0.3837,0.4639,0.6065,0.7095,0.7095,0.7095,0.7095,0.7095,0.7095,0.7095,0.7095,0.7095,0.7095,0.7095,0.7095,0.0,0.7095,0.7095,0.7095,0.7095,0.7095,0.7095,0.7095,0.7095,0.7095,0.7095,0.7095,0.7095,0.7095,0.7095,0.7095,0.7095,0.7095,0.7095,0.7051,0.6293,0.5983,0.5855,0.4669,0.3692,0.2972,0.2549,0.1911,0.1166,0.0747,0.0607,0.056,0.014,0.0,0.0,0.0,0.0,0.0,0.0,0.0,0.0,0.0,0.0,0.0,0.0,0.0,0.0,0.0,0.0,0.0,0.0,-0.0742,-0.1334,-0.1334,-0.2444,-0.3343,-0.3343,-0.4377,-0.5095,-0.503,-0.5997,-0.6664,-0.6526,-0.6874,-0.7095,-0.7095,-0.7095,-0.7095,-0.7095,-0.7095,-0.7095,-0.7095,-0.7095,-0.7095,-0.7095,-0.7095,-0.7095,-0.7095,-0.7095,-0.7095,-0.7095,-0.7095,-0.7095,0.0,0.0,0.0,0.0,0.0,0.0,0.0,0.0,0.0,0.0,0.0,0.0,0.0045,0.1969,0.4328,0.665,0.7095,0.7095,0.7095,0.7095,0.7095,0.7095,0.7095,0.7095,0.7095,0.7095,0.7095,0.7095,0.7095,0.7095,0.7095,0.7095,0.7095,0.7095,0.7095,0.7095,0.7095,0.7095,0.7095,0.7095,0.7095,0.7095,0.7095,0.7095,0.7095,0.7095,0.7095,0.7095,0.7095,0.7095,0.7095,0.7007,0.5891,0.5447,0.527,0.4105,0.3614,0.3436,0.2281,0.1835,0.1657,0.0449,0.0045,0.0045,0.0,0.0,0.0,0.0,0.0,0.0,0.0,0.0,0.0,0.0,0.0,0.0,0.0,0.0,0.0,0.0,0.0,0.0,0.0,-0.1095,-0.1949,-0.1949,-0.2986,-0.3726,-0.3726,-0.4703,-0.5359,-0.5403,-0.6381,-0.7051,-0.7095,-0.7095,-0.7095,-0.7095,-0.7095,-0.7095,-0.7095,-0.7095,-0.7095,-0.7095,-0.7095,-0.7095,-0.7095,-0.7095,-0.7095,-0.7095,-0.7095,-0.7095,0.0,0.0,0.0,0.0,0.0,0.0,0.0,0.0,0.0,0.0,0.0,0.0269,0.1121,0.1835,0.3083,0.5492,0.6561,0.7095,0.7095,0.7095,0.7095,0.7095,0.7095,0.7095,0.7095,0.7095,0.7095,0.0,0.7095,0.7095,0.7095,0.7095,0.7095,0.7095,0.7095,0.7095,0.7095,0.7095,0.7095,0.7095,0.7095,0.7095,0.7095,0.7095,0.7095,0.7095,0.7095,0.7095,0.7095,0.7095,0.7095,0.7051,0.6738,0.6115,0.5359,0.5045,0.433,0.357,0.3213,0.3081,0.2903,0.1701,0.1299,0.1121,0.0269,0.0,0.0,0.0,0.0,0.0,0.0,0.0,0.0,0.0,0.0,0.0,0.0,0.0,0.0,0.0,0.0,0.0,0.0,-0.033,-0.0559,-0.0559,-0.1601,-0.2345,-0.2345,-0.3361,-0.4419,-0.5314,-0.5672,-0.6204,-0.7051,-0.7095,-0.7095,-0.7095,-0.7095,-0.7095,-0.7095,-0.7095,-0.7095,-0.7095,-0.7095,-0.7095,-0.7095,-0.7095,-0.7095,-0.7095,-0.7095,-0.7095,0.0,0.0,0.0,0.0,0.0,0.0,0.0,0.0,0.0,0.0,0.0,0.0225,0.0942,0.1478,0.2281,0.3662,0.4863,0.5977,0.6962,0.7095,0.7095,0.7095,0.7095,0.7095,0.7095,0.7095,0.7095,0.7095,0.7095,0.7095,0.7095,0.7095,0.7095,0.7095,0.7095,0.7095,0.7095,0.7095,0.7095,0.7095,0.7095,0.7095,0.7095,0.7095,0.7095,0.7095,0.7095,0.7095,0.7095,0.7095,0.7095,0.7095,0.7095,0.6694,0.6115,0.6115,0.5667,0.4994,0.4508,0.433,0.4152,0.2948,0.2191,0.1656,0.0986,0.0404,0.0,0.0,0.0,0.0,0.0,0.0,0.0,0.0,0.0,0.0,0.0,0.0,0.0,0.0,0.0,0.0,0.0,0.0,0.0,0.0,-0.0587,-0.1031,-0.1031,-0.2102,-0.3127,-0.3842,-0.4332,-0.491,-0.5575,-0.562,-0.562,-0.562,-0.6113,-0.616,-0.5664,-0.6113,-0.6381,-0.6381,-0.6381,-0.6605,-0.7095,-0.7095,-0.7095,-0.7095,-0.7095,-0.7095,0.0,0.0,0.0,0.0,0.0,0.0,0.0,0.0,0.0,0.0,0.009,0.018,0.018,0.1165,0.2058,0.2192,0.2992,0.437,0.6602,0.6918,0.6962,0.7095,0.7095,0.7095,0.7095,0.7095,0.7095,0.7095,0.7095,0.7095,0.7095,0.7095,0.7095,0.7095,0.7095,0.7095,0.7095,0.7095,0.7095,0.7095,0.7095,0.7095,0.7095,0.7095,0.7095,0.7095,0.7095,0.7095,0.7095,0.7095,0.7095,0.7095,0.7095,0.7095,0.7095,0.7095,0.7095,0.6962,0.5938,0.5581,0.5403,0.4194,0.3081,0.2192,0.2058,0.1254,0.0359,0.0225,0.009,0.0,0.0,0.0,0.0,0.0,0.0,0.0,0.0,0.0,0.0,0.0,0.0,0.0,0.0,0.0,0.0,0.0,0.0,0.0,0.0,-0.0942,-0.1657,-0.179,-0.2769,-0.3436,-0.357,-0.3614,-0.3614,-0.3614,-0.4596,-0.4732,-0.3659,-0.4776,-0.5403,-0.5403,-0.5403,-0.5894,-0.6918,-0.7051,-0.7095,-0.7095,-0.7095,-0.7051,0.0,0.0,0.0,0.0,0.0,0.0,0.0,0.0,0.0,0.0,0.0762,0.1433,0.1433,0.2413,0.3571,0.4554,0.4061,0.4105,0.5534,0.5714,0.6071,0.7007,0.7095,0.7095,0.7095,0.7095,0.7095,0.7095,0.7095,0.7095,0.7095,0.7095,0.7095,0.7095,0.7095,0.7095,0.7095,0.7095,0.7095,0.7095,0.7095,0.7095,0.7095,0.7095,0.7095,0.7095,0.7095,0.7095,0.7095,0.7095,0.7095,0.7095,0.7095,0.7095,0.7095,0.7095,0.7095,0.7051,0.683,0.6782,0.6561,0.5445,0.4868,0.451,0.3527,0.3081,0.2681,0.1701,0.0763,0.0,0.0,0.0,0.0,0.0,0.0,0.0,0.0,0.0,0.0,0.0,0.0,0.0,0.0,0.0,0.0,0.0,0.0,0.0,0.0,-0.0225,-0.0718,-0.1701,-0.2013,-0.2547,-0.3525,-0.3614,-0.3614,-0.3614,-0.3838,-0.3838,-0.3614,-0.4776,-0.5403,-0.5403,-0.5403,-0.5492,-0.5714,-0.665,-0.7095,-0.7095,-0.7095,-0.6605,0.0,0.0,0.0,0.0,0.0,0.0,0.0,0.0,0.0,0.0,0.0494,0.1076,0.17,0.0,0.3083,0.4285,0.3482,0.3349,0.5134,0.4865,0.4954,0.6115,0.6248,0.647,0.7051,0.7095,0.7095,0.7095,0.7095,0.7095,0.7095,0.7095,0.7095,0.7095,0.7095,0.7095,0.7095,0.7095,0.7095,0.7095,0.7095,0.7095,0.7095,0.7095,0.7095,0.7095,0.7095,0.7095,0.7095,0.7095,0.7095,0.7095,0.7095,0.7095,0.7095,0.7095,0.7095,0.7095,0.7095,0.7095,0.7007,0.6428,0.5849,0.527,0.4688,0.4061,0.3349,0.2147,0.1344,0.0763,0.0135,0.0,0.0,0.0,0.0,0.0,0.0,0.0,0.0,0.0,0.0,0.0,0.0,0.0,0.0,0.0,0.0,0.0,0.0,0.0,-0.0225,-0.0852,-0.0897,-0.1165,-0.1746,-0.179,-0.179,-0.179,-0.237,-0.2413,-0.1835,-0.295,-0.3619,-0.3619,-0.4196,-0.4508,-0.4508,-0.5085,-0.5977,-0.7051,-0.5888,-0.5354,0.0,0.0,0.0,0.0,0.0,0.0673,0.0,0.0,0.0,0.0673,0.0897,0.0,0.0,0.0,0.0,0.0,0.0,0.0,0.0,0.4317,0.0,0.5581,0.5536,0.5849,0.7007,0.7095,0.7095,0.7095,0.7095,0.7095,0.7095,0.7095,0.7095,0.7095,0.7095,0.7095,0.7095,0.7095,0.7095,0.7095,0.7095,0.7095,0.7095,0.7095,0.7095,0.7095,0.7095,0.7095,0.7095,0.7095,0.7095,0.7095,0.7095,0.7095,0.7095,0.7095,0.7095,0.7095,0.7095,0.7095,0.7095,0.7095,0.647,0.5714,0.5714,0.491,0.3749,0.2771,0.2325,0.1924,0.0941,0.0539,0.0359,0.0359,0.018,0.0,0.0,0.0,0.0,0.0,0.0,0.0,0.0,0.0,0.0,0.0,0.0,0.0,0.0,0.0,0.0,0.0,0.0,0.0,0.0,0.0,0.0,0.0,-0.0897,-0.1031,-0.0045,-0.1165,-0.179,-0.179,-0.2769,-0.326,-0.326,-0.3037,-0.4105,-0.6378,-0.4503,-0.4016,0.0,0.0,0.0,0.0,0.317,0.0,0.0,0.0,0.317,0.317,0.0,0.0,0.0,0.0,0.0,0.0,0.0,0.0,0.5132,0.4232,0.4417,0.6647,0.6027,0.5849,0.7007,0.7095,0.7095,0.7095,0.7095,0.7095,0.7095,0.7095,0.7095,0.7095,0.7095,0.7095,0.7095,0.7095,0.7095,0.7095,0.7095,0.7095,0.7095,0.7095,0.7095,0.7095,0.7095,0.7095,0.7095,0.7095,0.7095,0.7095,0.7095,0.7095,0.7095,0.7095,0.7095,0.7095,0.7095,0.7095,0.7095,0.7095,0.7007,0.6918,0.6918,0.6115,0.5179,0.5045,0.4241,0.3349,0.3215,0.2413,0.1612,0.1612,0.0762,0.0,0.0,0.0,0.0,0.0,0.0,0.0,0.0,0.0,0.0,0.0,0.0,0.0,0.0,0.0,0.0,0.0,0.0,0.0,0.0,0.0,0.0,0.0,-0.0135,-0.0135,0.0,-0.1165,-0.179,-0.179,-0.1924,-0.2013,-0.2013,-0.0942,-0.1657,-0.397,-0.3703,-0.3081,0.0,0.0,0.0,0.0,0.0,0.0,0.0,0.0,0.3614,0.0,0.0,0.0,0.0,0.0,0.0,0.0,0.6125,0.0,0.0,0.0,0.4239,0.0,0.0,0.0,0.7007,0.7095,0.7095,0.7095,0.7095,0.7095,0.7095,0.7095,0.7095,0.7095,0.7095,0.7095,0.7095,0.7095,0.7095,0.7095,0.7095,0.7095,0.7095,0.7095,0.7095,0.7095,0.7095,0.7095,0.7095,0.7095,0.7095,0.7095,0.7095,0.7095,0.7095,0.7095,0.7095,0.7095,0.7095,0.7095,0.7095,0.7095,0.7095,0.7095,0.7095,0.6782,0.6248,0.5581,0.5045,0.4463,0.3792,0.3215,0.2858,0.2858,0.2458,0.1879,0.121,0.1031,0.0852,0.0135,0.0,0.0,0.0,0.0,0.0,0.0,0.0,0.0,0.0,0.0,0.0,0.0,0.0,0.0,0.0,0.0,0.0,0.0,0.0,0.0,0.0,-0.0494,-0.0763,-0.0763,-0.0763,-0.0763,-0.0763,-0.0269,-0.0539,-0.1522,-0.1522,-0.1612,0.4816,0.0,0.0,0.0,0.0,0.0,0.0,0.0,0.0,0.0,0.0,0.0,0.0,0.0,0.0,0.0,0.0,0.6043,0.0,0.0,0.0,0.0,0.0,0.0,0.0,0.7095,0.7095,0.7095,0.7095,0.7095,0.7095,0.7095,0.7095,0.7095,0.7095,0.7095,0.7095,0.7095,0.7095,0.7095,0.7095,0.7095,0.7095,0.7095,0.7095,0.7095,0.7095,0.7095,0.7095,0.7095,0.7095,0.7095,0.7095,0.7095,0.7095,0.7095,0.7095,0.7095,0.7095,0.7095,0.7095,0.7095,0.7095,0.7095,0.7095,0.7095,0.6918,0.6115,0.5849,0.5669,0.4774,0.4328,0.4105,0.4105,0.3838,0.326,0.2057,0.179,0.1433,0.0225,0.0,0.0,0.0,0.0,0.0,0.0,0.0,0.0,0.0,0.0,0.0,0.0,0.0,0.0,0.0,0.0,0.0,0.0,0.0,0.0,0.0,0.0,0.0,0.0,0.0,0.0,0.0,0.0,0.0,0.0,0.0,-0.0449,0.0,0.0,0.0,0.6837,0.0,0.0,0.0,0.0,0.6587,0.0,0.0,0.0,0.0,0.0,0.0,0.0,0.0,0.0,0.0,0.0,0.0,0.0,0.0,0.0,0.0,0.7095,0.7095,0.7095,0.7095,0.7095,0.7095,0.7095,0.7095,0.7095,0.7095,0.7095,0.7095,0.7095,0.7095,0.7095,0.7095,0.7095,0.7095,0.7095,0.7095,0.7095,0.7095,0.7095,0.7095,0.7095,0.7095,0.7095,0.7095,0.7095,0.7095,0.7095,0.7095,0.7095,0.7095,0.7095,0.7095,0.7095,0.7095,0.7095,0.7095,0.7095,0.7095,0.7051,0.7051,0.7051,0.7007,0.616,0.5359,0.5359,0.4463,0.326,0.2057,0.179,0.1433,0.0225,0.0,0.0,0.0,0.0,0.0,0.0,0.0,0.0,0.0,0.0,0.0,0.0,0.0,0.0,0.0,0.0,0.0,0.0,0.0,0.0,0.0,0.0,0.0,0.0,0.0,0.0,0.0,0.0,0.0,0.0,0.0,0.0,0.0,0.0,0.692,0.6814,0.0,0.0,0.0,0.0,0.0,0.0,0.0,0.0,0.0,0.0,0.0,0.0,0.0,0.0,0.0,0.0,0.0,0.0,0.0,0.0,0.0,0.0,0.7095,0.7095,0.7095,0.7095,0.7095,0.7095,0.7095,0.7095,0.7095,0.7095,0.7095,0.7095,0.7095,0.7095,0.7095,0.7095,0.7095,0.7095,0.7095,0.7095,0.7095,0.7095,0.7095,0.7095,0.7095,0.7095,0.7095,0.7095,0.7095,0.7095,0.7095,0.7095,0.7095,0.7095,0.7095,0.7095,0.7095,0.7095,0.7095,0.7095,0.7095,0.7095,0.7095,0.7095,0.7095,0.6827,0.6517,0.6517,0.6201,0.5575,0.4421,0.4198,0.3575,0.1567,0.121,0.0942,0.0135,0.0,0.0,0.0,0.0,0.0,0.0,0.0,0.0,0.0,0.0,0.0,0.0,0.0,0.0,0.0,0.0,0.0,0.0,0.0,0.0,0.0,0.0,0.0,0.0,0.0,0.0,0.0,0.0,0.0,0.6871,0.6848,0.0,0.6658,0.662,0.0,0.6556,0.0,0.0,0.0,0.0,0.0,0.0,0.0,0.0,0.0,0.0,0.0,0.0,0.6542,0.0,0.0,0.0,0.0,0.0,0.0,0.7041,0.7092,0.7095,0.7095,0.7095,0.7095,0.7095,0.7095,0.7095,0.7095,0.7095,0.7095,0.7095,0.7095,0.7095,0.7095,0.7095,0.7095,0.7095,0.7095,0.7095,0.7095,0.7095,0.7095,0.7095,0.7095,0.7095,0.7095,0.7095,0.7095,0.7095,0.7095,0.7095,0.7095,0.7095,0.7095,0.7095,0.7095,0.7095,0.7095,0.7095,0.7095,0.7095,0.7095,0.7095,0.7095,0.7095,0.7095,0.7095,0.6786,0.5625,0.5403,0.4823,0.2815,0.2458,0.2057,0.0852,0.0628,0.0494,0.0045,0.0,0.0,0.0,0.0,0.0,0.0,0.0,0.0,0.0,0.0,0.0,0.0,0.0,0.0,0.0,0.0,0.0,0.0,0.0,0.0,0.0,0.0,0.0,0.0,0.0,0.0]}]]